[[{"header":{"parameterUnit":"m.s-1","parameterCategory":1,"la1":31.0,"la2":29.5877,"lo1":-88.7671,"lo2":-86.6584,"dx":0.0162,"dy":0.0185,"nx":115,"ny":88,"refTime":"2023-02-03T18:00:00:Z","depth":0,"parameterNumber":2,"parameterNumberName":"U-component_of_WINDS"},"data":[0.0,0.0,0.0,0.0,0.0,0.0,0.0,0.0,0.0,0.0,0.0,0.0,0.0,0.0,0.0,0.0,0.0,0.0,0.0,0.0,0.0,0.0,0.0,0.0,0.0,0.0,0.0,0.0,0.0,0.0,0.0,0.0,0.0,0.0,0.0,0.0,0.0,0.0,0.0,0.0,0.0,0.0,0.0,0.0,0.0,0.0,0.0,0.0,0.0,0.0,0.0,0.0,0.0,0.0,0.0,0.0,0.0,0.0,0.0,0.0,0.0,0.0,0.0,0.0,0.0,0.0,0.0,0.0,0.0,0.0,0.0,0.0,0.0,0.0,0.0,0.0,0.0,0.0,0.0,0.0,0.0,0.0,0.0,0.0,0.0,0.0,0.0,0.0,0.0,0.0,0.0,0.0,0.0,0.0,0.0,0.0,0.0,0.0,0.0,0.0,0.0,0.0,0.0,0.0,0.0,0.0,0.0,0.0,0.0,0.0,0.0,0.0,0.0,0.0,0.0,0.0,0.0,0.0,0.0,0.0,0.0,0.0,0.0,0.0,0.0,0.0,0.0,0.0,0.0,0.0,0.0,0.0,0.0,0.0,0.0,0.0,0.0,0.0,0.0,0.0,0.0,0.0,0.0,0.0,0.0,0.0,0.0,0.0,0.0,0.0,0.0,0.0,0.0,0.0,0.0,0.0,0.0,0.0,0.0,0.0,0.0,0.0,0.0,0.0,0.0,0.0,0.0,0.0,0.0,0.0,0.0,0.0,0.0,0.0,0.0,0.0,0.0,0.0,0.0,0.0,0.0,0.0,0.0,0.0,0.0,0.0,0.0,0.0,0.0,0.0,0.0,0.0,0.0,0.0,0.0,0.0,0.0,0.0,0.0,0.0,0.0,0.0,0.0,0.0,0.0,0.0,0.0,0.0,0.0,0.0,0.0,0.0,0.0,0.0,0.0,0.0,0.0,0.0,0.0,0.0,0.0,0.0,0.0,0.0,0.0,0.0,0.0,0.0,0.0,0.0,0.0,0.0,0.0,0.0,0.0,0.0,0.0,0.0,0.0,0.0,0.0,0.0,0.0,0.0,0.0,0.0,0.0,0.0,0.0,0.0,0.0,0.0,0.0,0.0,0.0,0.0,0.0,0.0,0.0,0.0,0.0,0.0,0.0,0.0,0.0,0.0,0.0,0.0,0.0,0.0,0.0,0.0,0.0,0.0,0.0,0.0,0.0,0.0,0.0,0.0,0.0,0.0,0.0,0.0,0.0,0.0,0.0,0.0,0.0,0.0,0.0,0.0,0.0,0.0,0.0,0.0,0.0,0.0,0.0,0.0,0.0,0.0,0.0,0.0,0.0,0.0,0.0,0.0,0.0,0.0,0.0,0.0,0.0,0.0,0.0,0.0,0.0,0.0,0.0,0.0,0.0,0.0,0.0,0.0,0.0,0.0,0.0,0.0,0.0,0.0,0.0,0.0,0.0,0.0,0.0,0.0,0.0,0.0,0.0,0.0,0.0,0.0,0.0,0.0,0.0,0.0,0.0,0.0,0.0,0.0,0.0,0.0,0.0,0.0,0.0,0.0,0.0,0.0,0.0,0.0,0.0,0.0,0.0,0.0,0.0,0.0,0.0,0.0,0.0,0.0,0.0,0.0,0.0,0.0,0.0,0.0,0.0,0.0,0.0,0.0,0.0,0.0,0.0,0.0,0.0,0.0,0.0,0.0,0.0,0.0,0.0,0.0,0.0,0.0,0.0,0.0,0.0,0.0,0.0,0.0,0.0,0.0,0.0,0.0,0.0,0.0,0.0,0.0,0.0,0.0,0.0,0.0,0.0,0.0,0.0,0.0,0.0,0.0,0.0,0.0,0.0,0.0,0.0,0.0,0.0,0.0,0.0,0.0,0.0,0.0,0.0,0.0,0.0,0.0,0.0,0.0,0.0,0.0,0.0,0.0,0.0,0.0,0.0,0.0,0.0,0.0,0.0,0.0,0.0,0.0,0.0,0.0,0.0,0.0,0.0,0.0,0.0,0.0,0.0,0.0,0.0,0.0,0.0,0.0,0.0,0.0,0.0,0.0,0.0,0.0,0.0,0.0,0.0,0.0,0.0,0.0,0.0,0.0,0.0,0.0,0.0,0.0,0.0,0.0,0.0,0.0,0.0,0.0,0.0,0.0,0.0,0.0,0.0,0.0,0.0,0.0,0.0,0.0,0.0,0.0,0.0,0.0,0.0,0.0,0.0,0.0,0.0,0.0,0.0,0.0,0.0,0.0,0.0,0.0,0.0,0.0,0.0,0.0,0.0,0.0,0.0,0.0,0.0,0.0,0.0,0.0,0.0,0.0,0.0,0.0,0.0,0.0,0.0,0.0,0.0,0.0,0.0,0.0,0.0,0.0,0.0,0.0,0.0,0.0,0.0,0.0,0.0,0.0,0.0,0.0,0.0,0.0,0.0,0.0,0.0,0.0,0.0,0.0,0.0,0.0,0.0,0.0,0.0,0.0,0.0,0.0,0.0,0.0,0.0,0.0,0.0,0.0,0.0,0.0,0.0,0.0,0.0,0.0,0.0,0.0,0.0,0.0,0.0,0.0,0.0,0.0,0.0,0.0,0.0,0.0,0.0,0.0,0.0,0.0,0.0,0.0,0.0,0.0,0.0,0.0,0.0,0.0,0.0,0.0,0.0,0.0,0.0,0.0,0.0,0.0,0.0,0.0,0.0,0.0,0.0,0.0,0.0,0.0,0.0,0.0,0.0,0.0,0.0,0.0,0.0,0.0,0.0,0.0,0.0,0.0,0.0,0.0,0.0,0.0,0.0,0.0,0.0,0.0,0.0,0.0,0.0,0.0,0.0,0.0,0.0,0.0,0.0,0.0,0.0,0.0,0.0,0.0,0.0,0.0,0.0,0.0,0.0,0.0,0.0,0.0,0.0,0.0,0.0,0.0,0.0,0.0,0.0,0.0,0.0,0.0,0.0,0.0,0.0,0.0,0.0,0.0,0.0,0.0,0.0,0.0,0.0,0.0,0.0,0.0,0.0,0.0,0.0,0.0,0.0,0.0,0.0,0.0,0.0,0.0,0.0,0.0,0.0,0.0,0.0,0.0,0.0,0.0,0.0,0.0,0.0,0.0,0.0,0.0,0.0,0.0,0.0,0.0,0.0,0.0,0.0,0.0,0.0,0.0,0.0,0.0,0.0,0.0,0.0,0.0,0.0,0.0,0.0,0.0,0.0,0.0,0.0,0.0,0.0,0.0,0.0,0.0,0.0,0.0,0.0,0.0,0.0,0.0,0.0,0.0,0.0,0.0,0.0,0.0,0.0,0.0,0.0,0.0,0.0,0.0,0.0,0.0,0.0,0.0,0.0,0.0,0.0,0.0,0.0,0.0,0.0,0.0,0.0,0.0,0.0,0.0,0.0,0.0,0.0,0.0,0.0,0.0,0.0,0.0,0.0,0.0,0.0,0.0,0.0,0.0,0.0,0.0,0.0,0.0,0.0,0.0,0.0,0.0,0.0,0.0,0.0,0.0,0.0,0.0,0.0,0.0,0.0,0.0,0.0,0.0,0.0,0.0,0.0,0.0,0.0,0.0,0.0,0.0,0.0,0.0,0.0,0.0,0.0,0.0,0.0,0.0,0.0,0.0,0.0,0.0,0.0,0.0,0.0,0.0,0.0,0.0,0.0,0.0,0.0,0.0,0.0,0.0,0.0,0.0,0.0,0.0,0.0,0.0,0.0,0.0,0.0,0.0,0.0,0.0,0.0,0.0,0.0,0.0,0.0,0.0,0.0,0.0,0.0,0.0,0.0,0.0,0.0,0.0,0.0,0.0,0.0,0.0,0.0,0.0,0.0,0.0,0.0,0.0,0.0,0.0,0.0,0.0,0.0,0.0,0.0,0.0,0.0,0.0,0.0,0.0,0.0,0.0,0.0,0.0,0.0,0.0,0.0,0.0,0.0,0.0,0.0,0.0,0.0,0.0,0.0,0.0,0.0,0.0,0.0,0.0,0.0,0.0,0.0,0.0,0.0,0.0,0.0,0.0,0.0,0.0,0.0,0.0,0.0,0.0,0.0,0.0,0.0,0.0,0.0,0.0,0.0,0.0,0.0,0.0,0.0,0.0,0.0,0.0,0.0,0.0,0.0,0.0,0.0,0.0,0.0,0.0,0.0,0.0,0.0,0.0,0.0,0.0,0.0,0.0,0.0,0.0,0.0,0.0,0.0,0.0,0.0,0.0,0.0,0.0,0.0,0.0,0.0,0.0,0.0,0.0,0.0,0.0,2.5501,0.0,0.0,0.0,0.0,0.0,0.0,0.0,0.0,0.0,0.0,0.0,0.0,0.0,0.0,0.0,0.0,0.0,0.0,0.0,0.0,0.0,0.0,0.0,0.0,0.0,0.0,0.0,0.0,0.0,0.0,0.0,0.0,0.0,0.0,0.0,0.0,0.0,0.0,0.0,0.0,0.0,0.0,0.0,0.0,0.0,0.0,0.0,0.0,0.0,0.0,0.0,0.0,0.0,0.0,0.0,0.0,0.0,0.0,0.0,0.0,0.0,0.0,0.0,0.0,0.0,0.0,0.0,0.0,0.0,0.0,0.0,0.0,0.0,0.0,0.0,0.0,0.0,0.0,0.0,0.0,0.0,0.0,0.0,0.0,0.0,0.0,0.0,0.0,0.0,0.0,0.0,0.0,0.0,0.0,0.0,0.0,0.0,0.0,0.0,0.0,0.0,0.0,0.0,0.0,0.0,0.0,0.0,0.0,0.0,0.0,2.6345,2.6973,2.4436,2.3818,2.5465,0.0,0.0,0.0,0.0,0.0,0.0,0.0,0.0,0.0,0.0,0.0,0.0,0.0,0.0,0.0,0.0,0.0,0.0,0.0,0.0,0.0,0.0,0.0,0.0,0.0,0.0,0.0,0.0,0.0,0.0,0.0,0.0,0.0,0.0,0.0,0.0,0.0,0.0,0.0,0.0,0.0,0.0,0.0,0.0,0.0,0.0,0.0,0.0,0.0,0.0,0.0,0.0,0.0,0.0,0.0,0.0,0.0,0.0,0.0,0.0,0.0,0.0,0.0,0.0,0.0,0.0,0.0,0.0,0.0,0.0,0.0,0.0,0.0,0.0,0.0,0.0,0.0,0.0,0.0,0.0,0.0,0.0,0.0,0.0,0.0,0.0,0.0,0.0,0.0,0.0,0.0,0.0,0.0,0.0,0.0,0.0,0.0,0.0,0.0,0.0,0.0,0.0,0.0,0.0,0.0,0.0,0.0,0.0,0.0,0.0,0.0,0.0,2.4597,2.3888,2.5254,0.0,0.0,0.0,0.0,0.0,0.0,0.0,0.0,0.0,0.0,0.0,0.0,0.0,0.0,0.0,0.0,0.0,0.0,0.0,0.0,0.0,0.0,0.0,0.0,0.0,0.0,0.0,0.0,0.0,0.0,0.0,0.0,0.0,0.0,0.0,0.0,0.0,0.0,0.0,0.0,0.0,0.0,0.0,0.0,0.0,0.0,0.0,0.0,0.0,0.0,0.0,0.0,0.0,0.0,0.0,0.0,0.0,0.0,0.0,0.0,0.0,0.0,0.0,0.0,0.0,0.0,0.0,0.0,0.0,0.0,0.0,0.0,0.0,0.0,0.0,0.0,0.0,0.0,0.0,0.0,0.0,0.0,0.0,0.0,0.0,0.0,0.0,0.0,0.0,0.0,0.0,0.0,0.0,0.0,0.0,0.0,0.0,0.0,0.0,0.0,0.0,0.0,0.0,0.0,0.0,0.0,0.0,0.0,0.0,0.0,2.8308,2.8397,2.8098,0.0,2.6399,0.0,0.0,0.0,0.0,0.0,0.0,0.0,0.0,0.0,0.0,0.0,0.0,0.0,0.0,0.0,0.0,0.0,0.0,0.0,0.0,0.0,0.0,0.0,0.0,0.0,0.0,0.0,0.0,0.0,0.0,0.0,0.0,0.0,0.0,0.0,0.0,0.0,0.0,0.0,0.0,0.0,0.0,0.0,0.0,0.0,0.0,0.0,0.0,0.0,0.0,0.0,0.0,0.0,0.0,0.0,0.0,0.0,0.0,0.0,0.0,0.0,0.0,0.0,0.0,0.0,0.0,0.0,0.0,0.0,0.0,0.0,0.0,0.0,0.0,0.0,0.0,0.0,0.0,0.0,0.0,0.0,0.0,0.0,0.0,0.0,0.0,0.0,0.0,0.0,0.0,0.0,0.0,0.0,0.0,0.0,0.0,0.0,0.0,0.0,0.0,0.0,0.0,0.0,0.0,0.0,0.0,0.0,0.0,0.0,0.0,2.759,2.7991,2.841,2.8059,0.0,0.0,0.0,0.0,0.0,0.0,0.0,0.0,0.0,0.0,0.0,0.0,0.0,0.0,0.0,0.0,0.0,0.0,0.0,0.0,0.0,0.0,0.0,0.0,0.0,0.0,0.0,0.0,0.0,0.0,0.0,0.0,0.0,0.0,0.0,0.0,0.0,0.0,0.0,0.0,0.0,0.0,0.0,0.0,0.0,0.0,0.0,0.0,0.0,0.0,0.0,0.0,0.0,0.0,0.0,0.0,0.0,0.0,0.0,0.0,0.0,0.0,0.0,0.0,0.0,0.0,0.0,0.0,0.0,0.0,0.0,0.0,0.0,0.0,0.0,0.0,0.0,0.0,0.0,0.0,0.0,0.0,0.0,0.0,0.0,0.0,0.0,0.0,0.0,0.0,0.0,0.0,0.0,0.0,0.0,0.0,0.0,0.0,0.0,0.0,0.0,0.0,0.0,0.0,0.0,0.0,0.0,0.0,0.0,0.0,2.7648,2.745,2.7872,2.8281,2.813,2.7384,0.0,0.0,0.0,0.0,0.0,0.0,0.0,0.0,0.0,0.0,0.0,0.0,0.0,0.0,0.0,0.0,0.0,0.0,0.0,0.0,0.0,0.0,0.0,0.0,0.0,0.0,0.0,0.0,0.0,0.0,0.0,0.0,0.0,0.0,0.0,0.0,0.0,0.0,0.0,0.0,0.0,0.0,0.0,0.0,0.0,0.0,0.0,0.0,0.0,0.0,0.0,0.0,0.0,0.0,0.0,0.0,0.0,0.0,0.0,0.0,0.0,0.0,0.0,0.0,0.0,0.0,0.0,0.0,0.0,0.0,0.0,0.0,0.0,0.0,0.0,0.0,0.0,0.0,0.0,0.0,0.0,0.0,0.0,0.0,0.0,0.0,0.0,0.0,0.0,0.0,0.0,0.0,0.0,0.0,0.0,0.0,0.0,0.0,0.0,0.0,0.0,0.0,0.0,0.0,0.0,0.0,0.0,0.0,3.031,2.9407,2.8772,2.8547,2.833,2.8054,0.0,0.0,0.0,0.0,0.0,0.0,0.0,0.0,0.0,0.0,0.0,0.0,0.0,0.0,0.0,0.0,0.0,0.0,0.0,0.0,0.0,0.0,0.0,0.0,0.0,0.0,0.0,0.0,0.0,0.0,0.0,0.0,0.0,0.0,0.0,0.0,0.0,0.0,0.0,0.0,0.0,0.0,0.0,0.0,0.0,0.0,0.0,0.0,0.0,0.0,0.0,0.0,0.0,0.0,0.0,0.0,0.0,0.0,0.0,0.0,0.0,0.0,0.0,0.0,0.0,0.0,0.0,0.0,0.0,0.0,0.0,0.0,0.0,0.0,0.0,0.0,0.0,0.0,0.0,0.0,0.0,0.0,0.0,0.0,0.0,0.0,0.0,0.0,0.0,0.0,0.0,0.0,0.0,0.0,0.0,0.0,0.0,0.0,0.0,0.0,0.0,0.0,0.0,0.0,0.0,0.0,0.0,0.0,0.0,3.0176,3.0021,2.9732,2.9309,2.9932,2.9724,0.0,0.0,0.0,0.0,0.0,0.0,0.0,0.0,0.0,0.0,0.0,0.0,0.0,0.0,0.0,0.0,0.0,0.0,0.0,0.0,0.0,0.0,0.0,0.0,0.0,0.0,0.0,0.0,0.0,0.0,0.0,0.0,0.0,0.0,0.0,0.0,0.0,0.0,0.0,0.0,0.0,0.0,0.0,0.0,0.0,0.0,0.0,0.0,0.0,0.0,0.0,0.0,0.0,0.0,0.0,0.0,0.0,0.0,0.0,0.0,0.0,0.0,0.0,0.0,0.0,0.0,0.0,0.0,0.0,0.0,0.0,0.0,0.0,0.0,0.0,0.0,0.0,0.0,0.0,0.0,0.0,0.0,0.0,0.0,0.0,0.0,0.0,0.0,0.0,0.0,0.0,0.0,0.0,0.0,0.0,0.0,0.0,0.0,0.0,0.0,0.0,0.0,0.0,0.0,0.0,0.0,0.0,0.0,0.0,3.0282,0.0,3.0025,2.9759,3.0485,3.0336,0.0,0.0,0.0,0.0,0.0,0.0,0.0,0.0,0.0,0.0,0.0,0.0,0.0,0.0,0.0,0.0,0.0,0.0,0.0,0.0,0.0,0.0,0.0,0.0,0.0,0.0,0.0,0.0,0.0,0.0,0.0,0.0,0.0,0.0,0.0,0.0,0.0,0.0,0.0,0.0,0.0,0.0,0.0,0.0,0.0,0.0,0.0,0.0,0.0,0.0,0.0,0.0,0.0,0.0,0.0,0.0,0.0,0.0,0.0,0.0,0.0,0.0,0.0,0.0,0.0,0.0,0.0,0.0,0.0,0.0,0.0,0.0,0.0,0.0,0.0,0.0,0.0,0.0,0.0,0.0,0.0,0.0,0.0,0.0,0.0,0.0,0.0,0.0,0.0,0.0,0.0,0.0,0.0,0.0,0.0,0.0,0.0,0.0,0.0,0.0,0.0,0.0,0.0,0.0,0.0,0.0,0.0,0.0,3.1844,3.0883,3.0023,2.9705,2.9913,2.9902,2.9723,0.0,0.0,0.0,0.0,0.0,0.0,0.0,0.0,0.0,0.0,0.0,0.0,0.0,0.0,0.0,0.0,0.0,0.0,0.0,0.0,0.0,0.0,0.0,0.0,0.0,0.0,0.0,0.0,0.0,0.0,0.0,0.0,0.0,0.0,0.0,0.0,0.0,0.0,0.0,0.0,0.0,0.0,0.0,0.0,0.0,0.0,0.0,0.0,0.0,0.0,0.0,0.0,0.0,0.0,0.0,0.0,0.0,0.0,0.0,0.0,0.0,0.0,0.0,0.0,0.0,0.0,0.0,0.0,0.0,0.0,0.0,0.0,0.0,0.0,0.0,0.0,0.0,0.0,0.0,0.0,0.0,0.0,0.0,0.0,0.0,0.0,0.0,0.0,0.0,0.0,0.0,0.0,0.0,0.0,0.0,0.0,0.0,0.0,0.0,0.0,0.0,0.0,0.0,0.0,0.0,0.0,0.0,0.0,0.0,3.3206,3.0294,2.9661,3.1537,3.0192,2.966,0.0,0.0,0.0,0.0,0.0,0.0,0.0,0.0,0.0,0.0,0.0,0.0,0.0,0.0,0.0,0.0,0.0,0.0,0.0,0.0,0.0,0.0,0.0,0.0,0.0,0.0,0.0,0.0,0.0,0.0,0.0,0.0,0.0,0.0,0.0,0.0,0.0,0.0,0.0,0.0,0.0,0.0,0.0,0.0,0.0,0.0,0.0,0.0,0.0,0.0,0.0,0.0,0.0,0.0,0.0,0.0,0.0,0.0,0.0,0.0,0.0,0.0,0.0,0.0,0.0,0.0,0.0,0.0,0.0,0.0,0.0,0.0,0.0,0.0,0.0,0.0,0.0,0.0,0.0,0.0,0.0,0.0,0.0,0.0,0.0,0.0,0.0,0.0,0.0,0.0,0.0,0.0,0.0,0.0,0.0,0.0,0.0,0.0,0.0,0.0,0.0,0.0,0.0,0.0,0.0,0.0,0.0,0.0,0.0,3.5027,3.1316,3.0142,3.2003,3.0856,3.0067,2.9788,0.0,0.0,0.0,0.0,0.0,0.0,0.0,0.0,0.0,0.0,0.0,0.0,0.0,0.0,0.0,0.0,0.0,0.0,0.0,0.0,0.0,0.0,0.0,0.0,0.0,0.0,0.0,0.0,0.0,0.0,0.0,0.0,0.0,0.0,0.0,0.0,0.0,0.0,0.0,0.0,0.0,0.0,0.0,0.0,0.0,0.0,0.0,0.0,0.0,0.0,0.0,0.0,0.0,0.0,0.0,0.0,0.0,0.0,0.0,0.0,0.0,0.0,0.0,0.0,0.0,0.0,0.0,0.0,0.0,0.0,0.0,0.0,0.0,0.0,0.0,0.0,0.0,0.0,0.0,0.0,0.0,0.0,0.0,0.0,0.0,0.0,0.0,0.0,0.0,0.0,0.0,0.0,0.0,0.0,0.0,0.0,0.0,0.0,0.0,0.0,0.0,0.0,0.0,0.0,0.0,0.0,0.0,0.0,3.6764,3.3183,3.1521,3.1795,3.1887,3.089,0.0,0.0,0.0,0.0,0.0,0.0,0.0,0.0,0.0,0.0,0.0,0.0,0.0,0.0,0.0,0.0,0.0,0.0,0.0,0.0,0.0,0.0,0.0,0.0,0.0,0.0,0.0,0.0,0.0,0.0,0.0,0.0,0.0,0.0,0.0,0.0,0.0,0.0,0.0,0.0,0.0,0.0,0.0,0.0,0.0,0.0,0.0,0.0,0.0,0.0,0.0,0.0,0.0,0.0,0.0,0.0,0.0,0.0,0.0,0.0,0.0,0.0,0.0,0.0,0.0,0.0,0.0,0.0,0.0,0.0,0.0,0.0,0.0,0.0,0.0,0.0,0.0,0.0,0.0,0.0,0.0,0.0,0.0,0.0,0.0,0.0,0.0,0.0,0.0,0.0,0.0,0.0,0.0,0.0,0.0,0.0,0.0,0.0,0.0,0.0,0.0,0.0,0.0,0.0,0.0,0.0,0.0,0.0,0.0,3.7614,3.7686,3.7351,3.6518,3.3412,3.1683,0.0,0.0,0.0,0.0,0.0,0.0,0.0,0.0,0.0,0.0,0.0,0.0,0.0,0.0,0.0,0.0,0.0,0.0,0.0,0.0,0.0,0.0,0.0,0.0,0.0,0.0,0.0,0.0,0.0,0.0,0.0,0.0,0.0,0.0,0.0,0.0,0.0,0.0,0.0,0.0,0.0,0.0,0.0,0.0,0.0,0.0,0.0,0.0,0.0,0.0,0.0,0.0,0.0,0.0,0.0,0.0,0.0,0.0,0.0,0.0,0.0,0.0,0.0,0.0,0.0,0.0,0.0,0.0,0.0,0.0,0.0,0.0,0.0,0.0,0.0,0.0,0.0,0.0,0.0,0.0,0.0,0.0,0.0,0.0,0.0,0.0,0.0,0.0,0.0,0.0,0.0,0.0,0.0,0.0,0.0,0.0,0.0,0.0,0.0,0.0,0.0,0.0,0.0,0.0,0.0,0.0,0.0,0.0,3.8102,3.8097,4.0455,4.1308,4.0385,3.6444,3.331,0.0,0.0,0.0,0.0,0.0,0.0,0.0,0.0,0.0,0.0,0.0,0.0,0.0,0.0,0.0,0.0,0.0,0.0,0.0,0.0,0.0,0.0,0.0,0.0,0.0,0.0,0.0,0.0,0.0,0.0,0.0,0.0,0.0,0.0,0.0,0.0,0.0,0.0,0.0,0.0,0.0,0.0,0.0,0.0,0.0,0.0,0.0,0.0,0.0,0.0,0.0,0.0,0.0,0.0,0.0,0.0,0.0,0.0,0.0,0.0,0.0,0.0,0.0,0.0,0.0,0.0,0.0,0.0,0.0,0.0,0.0,0.0,0.0,0.0,0.0,0.0,0.0,0.0,0.0,0.0,0.0,0.0,0.0,0.0,0.0,0.0,0.0,0.0,0.0,0.0,0.0,0.0,0.0,0.0,0.0,0.0,0.0,0.0,0.0,0.0,0.0,0.0,0.0,0.0,0.0,0.0,0.0,0.0,3.9382,3.8666,4.2186,4.3726,4.2944,3.9575,3.5271,0.0,0.0,0.0,0.0,0.0,0.0,0.0,0.0,0.0,0.0,0.0,0.0,0.0,0.0,0.0,0.0,0.0,0.0,0.0,0.0,0.0,0.0,0.0,0.0,0.0,0.0,0.0,0.0,0.0,0.0,0.0,0.0,0.0,0.0,0.0,0.0,0.0,0.0,0.0,0.0,0.0,0.0,0.0,0.0,0.0,0.0,0.0,0.0,0.0,0.0,0.0,0.0,0.0,0.0,0.0,0.0,0.0,0.0,0.0,0.0,0.0,0.0,0.0,0.0,0.0,0.0,0.0,0.0,0.0,0.0,0.0,0.0,0.0,0.0,0.0,0.0,0.0,0.0,0.0,0.0,0.0,0.0,0.0,0.0,0.0,0.0,0.0,0.0,0.0,0.0,0.0,0.0,0.0,0.0,0.0,0.0,0.0,0.0,0.0,0.0,0.0,0.0,0.0,0.0,0.0,0.0,0.0,0.0,4.0409,4.1236,4.4274,4.4784,4.242,3.8223,3.518,0.0,0.0,0.0,0.0,0.0,0.0,0.0,0.0,0.0,0.0,0.0,0.0,0.0,0.0,0.0,0.0,0.0,0.0,0.0,0.0,0.0,0.0,0.0,0.0,0.0,0.0,0.0,0.0,0.0,0.0,0.0,0.0,0.0,0.0,0.0,0.0,0.0,0.0,0.0,0.0,0.0,0.0,0.0,0.0,0.0,0.0,0.0,0.0,3.2324,0.0,0.0,0.0,0.0,0.0,0.0,0.0,0.0,0.0,0.0,0.0,0.0,0.0,0.0,0.0,0.0,0.0,0.0,0.0,0.0,0.0,0.0,0.0,0.0,0.0,0.0,0.0,0.0,0.0,0.0,0.0,0.0,0.0,0.0,0.0,0.0,0.0,0.0,0.0,0.0,0.0,0.0,0.0,0.0,0.0,0.0,0.0,0.0,0.0,0.0,0.0,0.0,0.0,0.0,0.0,0.0,0.0,0.0,0.0,4.173,4.3215,4.5924,4.6046,4.3389,3.8801,3.5649,0.0,0.0,0.0,0.0,0.0,0.0,0.0,0.0,0.0,0.0,0.0,0.0,0.0,0.0,0.0,0.0,0.0,0.0,0.0,0.0,0.0,0.0,0.0,0.0,0.0,0.0,0.0,0.0,0.0,0.0,0.0,0.0,0.0,0.0,0.0,0.0,0.0,0.0,0.0,0.0,0.0,0.0,0.0,0.0,0.0,0.0,0.0,0.0,0.0,0.0,0.0,0.0,0.0,0.0,0.0,0.0,0.0,0.0,0.0,0.0,0.0,0.0,0.0,0.0,0.0,0.0,0.0,0.0,0.0,0.0,0.0,0.0,0.0,0.0,0.0,0.0,0.0,0.0,0.0,0.0,0.0,0.0,0.0,0.0,0.0,0.0,0.0,0.0,0.0,0.0,0.0,0.0,0.0,0.0,0.0,0.0,0.0,0.0,0.0,0.0,0.0,0.0,0.0,0.0,0.0,0.0,0.0,4.0455,4.2867,4.5235,4.6972,4.681,4.467,3.9674,3.6024,3.3955,0.0,0.0,0.0,0.0,0.0,0.0,0.0,0.0,0.0,0.0,0.0,0.0,0.0,0.0,0.0,0.0,0.0,0.0,0.0,0.0,0.0,0.0,0.0,0.0,0.0,0.0,0.0,0.0,0.0,0.0,0.0,0.0,0.0,0.0,0.0,0.0,0.0,0.0,3.0695,3.093,0.0,0.0,0.0,0.0,0.0,0.0,0.0,0.0,3.183,0.0,0.0,0.0,0.0,0.0,0.0,0.0,0.0,0.0,0.0,0.0,0.0,0.0,0.0,0.0,0.0,0.0,0.0,0.0,0.0,0.0,0.0,0.0,0.0,0.0,0.0,0.0,0.0,0.0,0.0,0.0,0.0,0.0,0.0,0.0,0.0,0.0,0.0,0.0,0.0,0.0,0.0,0.0,0.0,0.0,0.0,0.0,0.0,0.0,0.0,0.0,0.0,0.0,0.0,0.0,0.0,4.0405,4.0458,4.2986,4.8189,4.6883,4.547,4.4042,3.8182,3.4791,3.4267,0.0,0.0,0.0,0.0,0.0,0.0,0.0,0.0,0.0,0.0,0.0,0.0,0.0,0.0,0.0,0.0,0.0,0.0,0.0,0.0,0.0,0.0,0.0,0.0,0.0,0.0,0.0,0.0,0.0,0.0,0.0,0.0,0.0,0.0,0.0,0.0,0.0,0.0,0.0,3.0467,3.0535,0.0,0.0,0.0,0.0,0.0,0.0,0.0,0.0,3.2548,0.0,0.0,0.0,0.0,0.0,0.0,0.0,0.0,0.0,0.0,0.0,0.0,0.0,0.0,0.0,0.0,0.0,0.0,0.0,0.0,0.0,0.0,0.0,0.0,0.0,0.0,0.0,0.0,0.0,0.0,0.0,0.0,0.0,0.0,0.0,0.0,0.0,0.0,0.0,0.0,0.0,0.0,0.0,0.0,0.0,0.0,0.0,0.0,0.0,0.0,0.0,0.0,0.0,0.0,0.0,4.002,4.1386,4.3883,4.7533,4.6463,4.5105,4.3576,3.8418,3.5283,0.0,0.0,0.0,0.0,0.0,0.0,0.0,0.0,0.0,0.0,0.0,0.0,0.0,0.0,0.0,0.0,0.0,0.0,0.0,0.0,0.0,0.0,0.0,0.0,0.0,0.0,0.0,0.0,0.0,0.0,0.0,0.0,0.0,0.0,0.0,0.0,0.0,0.0,0.0,0.0,3.0874,3.1496,3.107,0.0,0.0,0.0,0.0,0.0,0.0,3.3112,3.2835,0.0,0.0,0.0,0.0,0.0,0.0,0.0,0.0,0.0,0.0,0.0,0.0,0.0,0.0,0.0,0.0,0.0,0.0,0.0,0.0,0.0,0.0,0.0,0.0,0.0,0.0,0.0,0.0,0.0,0.0,0.0,0.0,0.0,0.0,0.0,0.0,0.0,0.0,0.0,0.0,0.0,0.0,0.0,0.0,0.0,0.0,0.0,0.0,0.0,0.0,0.0,0.0,0.0,0.0,0.0,3.9725,4.208,4.4396,4.6503,4.5771,4.4654,4.3266,3.8549,3.5524,0.0,0.0,0.0,0.0,0.0,0.0,0.0,0.0,0.0,0.0,0.0,0.0,0.0,0.0,0.0,0.0,0.0,0.0,0.0,0.0,0.0,0.0,0.0,0.0,0.0,0.0,0.0,0.0,0.0,0.0,0.0,0.0,0.0,0.0,0.0,0.0,0.0,0.0,0.0,0.0,0.0,3.259,3.185,3.2895,0.0,0.0,0.0,0.0,3.3778,3.3946,0.0,0.0,0.0,0.0,0.0,0.0,0.0,0.0,0.0,0.0,0.0,0.0,0.0,0.0,0.0,0.0,0.0,0.0,0.0,0.0,0.0,0.0,0.0,0.0,0.0,0.0,0.0,0.0,0.0,0.0,0.0,0.0,0.0,0.0,0.0,0.0,0.0,0.0,0.0,0.0,0.0,0.0,0.0,0.0,0.0,0.0,0.0,0.0,0.0,0.0,0.0,0.0,0.0,0.0,0.0,0.0,4.0824,4.1398,4.3473,4.6951,4.485,4.3522,4.32,3.6967,3.3841,0.0,0.0,0.0,0.0,0.0,0.0,0.0,0.0,0.0,0.0,0.0,0.0,0.0,0.0,0.0,0.0,0.0,0.0,0.0,0.0,0.0,0.0,0.0,0.0,0.0,0.0,0.0,0.0,0.0,0.0,0.0,0.0,0.0,0.0,0.0,0.0,0.0,0.0,0.0,0.0,0.0,3.3032,3.2914,3.3453,3.3492,0.0,0.0,0.0,3.4625,3.65,0.0,0.0,0.0,0.0,0.0,0.0,0.0,0.0,0.0,0.0,0.0,0.0,0.0,0.0,0.0,0.0,0.0,0.0,0.0,0.0,0.0,0.0,0.0,0.0,0.0,0.0,0.0,0.0,0.0,0.0,0.0,0.0,0.0,0.0,0.0,0.0,0.0,0.0,0.0,0.0,0.0,0.0,0.0,0.0,0.0,0.0,0.0,0.0,0.0,0.0,0.0,0.0,0.0,0.0,0.0,3.7444,3.8898,4.1193,4.324,4.4914,4.3545,4.2538,4.2016,3.6458,3.3683,0.0,0.0,0.0,0.0,0.0,0.0,0.0,0.0,0.0,0.0,0.0,0.0,0.0,0.0,0.0,0.0,0.0,0.0,0.0,0.0,0.0,0.0,0.0,0.0,0.0,0.0,0.0,0.0,0.0,0.0,0.0,0.0,0.0,0.0,0.0,0.0,0.0,0.0,0.0,0.0,0.0,0.0,3.4466,3.4931,0.0,0.0,0.0,3.6864,3.6959,0.0,0.0,0.0,0.0,0.0,0.0,0.0,0.0,0.0,0.0,0.0,0.0,0.0,0.0,0.0,0.0,0.0,0.0,0.0,0.0,0.0,0.0,0.0,0.0,0.0,0.0,0.0,0.0,0.0,0.0,0.0,0.0,0.0,0.0,0.0,0.0,0.0,0.0,0.0,0.0,0.0,0.0,0.0,0.0,0.0,0.0,0.0,0.0,0.0,0.0,0.0,0.0,0.0,0.0,0.0,0.0,0.0,3.7597,4.1154,4.3072,4.3154,4.2551,4.1852,4.0956,3.6544,0.0,0.0,0.0,0.0,0.0,0.0,0.0,0.0,0.0,0.0,0.0,0.0,0.0,0.0,0.0,0.0,0.0,0.0,0.0,0.0,0.0,0.0,0.0,0.0,0.0,0.0,0.0,0.0,0.0,0.0,0.0,0.0,0.0,0.0,0.0,0.0,0.0,0.0,0.0,0.0,0.0,0.0,3.6033,3.5907,3.6789,3.756,0.0,0.0,3.8837,3.9117,4.0211,3.9804,0.0,0.0,0.0,0.0,0.0,0.0,0.0,0.0,0.0,0.0,0.0,0.0,0.0,0.0,0.0,0.0,0.0,0.0,0.0,0.0,0.0,0.0,0.0,0.0,0.0,0.0,0.0,0.0,0.0,0.0,0.0,0.0,0.0,0.0,0.0,0.0,0.0,0.0,0.0,0.0,0.0,0.0,0.0,0.0,0.0,0.0,0.0,0.0,0.0,0.0,0.0,0.0,0.0,0.0,0.0,3.8736,4.1168,4.2685,4.3154,4.2223,4.1503,4.0956,3.7178,3.4906,0.0,0.0,0.0,0.0,0.0,0.0,0.0,0.0,0.0,0.0,0.0,0.0,0.0,0.0,0.0,0.0,0.0,0.0,0.0,0.0,0.0,0.0,0.0,0.0,0.0,0.0,0.0,0.0,0.0,0.0,0.0,0.0,0.0,0.0,0.0,0.0,0.0,0.0,0.0,0.0,0.0,3.7455,3.6962,3.8792,4.0399,0.0,0.0,4.0902,4.0451,4.3017,4.2914,3.6536,0.0,0.0,0.0,0.0,0.0,0.0,0.0,0.0,0.0,0.0,0.0,0.0,0.0,0.0,0.0,0.0,0.0,0.0,0.0,0.0,0.0,0.0,0.0,0.0,0.0,0.0,0.0,0.0,0.0,0.0,0.0,0.0,0.0,0.0,0.0,0.0,0.0,0.0,0.0,0.0,0.0,0.0,0.0,0.0,0.0,0.0,0.0,0.0,0.0,0.0,0.0,0.0,0.0,3.7249,3.7651,4.0775,4.266,4.3119,4.2507,4.1786,4.1022,3.7549,3.5196,0.0,0.0,0.0,0.0,0.0,0.0,0.0,0.0,0.0,0.0,0.0,0.0,0.0,0.0,0.0,0.0,0.0,0.0,0.0,0.0,0.0,0.0,0.0,0.0,0.0,0.0,0.0,0.0,3.1583,3.1817,3.2638,0.0,0.0,0.0,0.0,0.0,0.0,0.0,0.0,0.0,0.0,3.95,4.0926,4.2534,0.0,0.0,4.3335,4.3134,4.261,4.3037,4.2009,3.7714,3.6911,0.0,0.0,0.0,0.0,0.0,0.0,0.0,0.0,0.0,0.0,0.0,0.0,0.0,0.0,0.0,0.0,0.0,0.0,0.0,0.0,0.0,0.0,0.0,0.0,0.0,0.0,0.0,0.0,0.0,0.0,0.0,0.0,0.0,0.0,0.0,0.0,0.0,0.0,0.0,0.0,0.0,0.0,0.0,0.0,0.0,0.0,0.0,0.0,0.0,0.0,0.0,0.0,3.7106,3.7392,4.0857,4.2879,4.3394,4.2748,4.1983,4.0978,3.8292,3.6085,0.0,0.0,0.0,0.0,0.0,0.0,0.0,0.0,0.0,0.0,0.0,0.0,0.0,0.0,0.0,0.0,0.0,0.0,0.0,0.0,0.0,0.0,0.0,0.0,0.0,0.0,0.0,0.0,3.2804,3.2994,3.3105,0.0,0.0,0.0,0.0,0.0,0.0,0.0,0.0,0.0,0.0,4.1473,4.3194,4.4456,4.5007,4.429,4.3937,4.3618,4.3216,4.2522,4.1135,3.8442,0.0,0.0,0.0,0.0,0.0,0.0,0.0,0.0,0.0,0.0,0.0,0.0,0.0,0.0,0.0,0.0,0.0,0.0,0.0,0.0,0.0,0.0,0.0,0.0,0.0,0.0,0.0,0.0,0.0,0.0,0.0,0.0,0.0,0.0,0.0,0.0,0.0,0.0,0.0,0.0,0.0,0.0,0.0,0.0,0.0,0.0,0.0,0.0,0.0,0.0,0.0,0.0,0.0,0.0,3.8462,4.1551,4.3394,4.3831,4.2922,4.1961,4.1022,3.9526,3.7855,3.5961,0.0,0.0,0.0,0.0,0.0,0.0,0.0,0.0,0.0,0.0,0.0,0.0,0.0,0.0,0.0,0.0,0.0,0.0,0.0,0.0,0.0,0.0,0.0,0.0,0.0,0.0,3.2414,3.3054,3.3253,0.0,0.0,0.0,0.0,0.0,0.0,0.0,0.0,0.0,0.0,4.0696,4.3318,4.2861,4.3843,4.4315,4.3438,4.2452,4.1745,4.1741,4.1643,4.0848,0.0,0.0,0.0,0.0,0.0,0.0,0.0,0.0,0.0,0.0,0.0,0.0,0.0,0.0,0.0,0.0,0.0,0.0,0.0,0.0,0.0,0.0,0.0,0.0,0.0,0.0,0.0,0.0,0.0,0.0,0.0,0.0,0.0,0.0,0.0,0.0,0.0,0.0,0.0,0.0,3.7059,3.609,0.0,0.0,0.0,0.0,0.0,0.0,0.0,0.0,0.0,0.0,0.0,0.0,3.7251,3.8331,4.1539,4.3285,4.3416,4.2769,4.1961,4.1022,3.994,3.8095,3.5539,0.0,0.0,0.0,0.0,0.0,0.0,0.0,0.0,0.0,0.0,0.0,0.0,0.0,0.0,0.0,0.0,0.0,0.0,0.0,0.0,0.0,0.0,0.0,0.0,0.0,3.3456,0.0,0.0,0.0,0.0,0.0,0.0,0.0,0.0,0.0,0.0,0.0,3.6807,4.0337,4.0575,4.094,4.2411,4.3418,4.4202,0.0,0.0,0.0,0.0,0.0,0.0,0.0,0.0,0.0,0.0,0.0,0.0,0.0,0.0,4.0953,3.8611,3.9595,4.0955,4.1312,0.0,0.0,0.0,0.0,0.0,0.0,0.0,0.0,0.0,0.0,0.0,0.0,0.0,0.0,0.0,0.0,3.5211,0.0,0.0,0.0,0.0,0.0,0.0,0.0,0.0,3.7006,3.8016,3.8642,3.769,3.7536,0.0,3.688,3.5771,0.0,0.0,0.0,0.0,0.0,0.0,0.0,0.0,3.7505,3.8195,4.1492,4.3285,4.3416,4.2944,4.2311,4.1503,4.0268,3.8519,3.6282,3.4666,3.3859,0.0,0.0,0.0,0.0,0.0,0.0,0.0,0.0,0.0,0.0,0.0,0.0,0.0,0.0,0.0,0.0,0.0,0.0,0.0,0.0,0.0,0.0,0.0,3.4893,0.0,0.0,0.0,0.0,0.0,0.0,0.0,0.0,0.0,3.7128,3.7039,3.8185,4.1629,4.1278,4.1,4.1851,0.0,0.0,0.0,0.0,0.0,0.0,0.0,3.779,3.7196,3.7754,3.8897,4.0811,4.2988,4.4384,4.402,0.0,0.0,4.1545,4.2495,4.389,4.4245,4.4333,4.4229,4.388,4.3949,4.4086,0.0,0.0,0.0,0.0,0.0,0.0,0.0,0.0,3.6152,3.6444,0.0,0.0,0.0,0.0,0.0,0.0,0.0,0.0,0.0,0.0,3.9098,4.0075,3.8981,3.8959,3.9097,0.0,3.8175,3.7445,3.722,3.6042,0.0,0.0,0.0,0.0,0.0,0.0,3.8117,3.8335,4.1524,4.3438,4.3831,4.3438,4.2922,4.2342,4.0552,3.9109,3.8139,3.6282,3.5597,3.6336,3.3869,0.0,0.0,0.0,0.0,0.0,0.0,0.0,0.0,0.0,0.0,0.0,0.0,0.0,0.0,0.0,0.0,0.0,0.0,0.0,0.0,3.5118,0.0,0.0,0.0,0.0,0.0,0.0,0.0,0.0,0.0,0.0,3.6528,3.8793,4.0644,4.0757,0.0,0.0,0.0,0.0,4.1814,3.8073,3.7473,3.7535,3.7494,3.8573,3.9515,3.983,0.0,0.0,4.4196,4.4618,4.4698,4.3612,4.6271,4.7947,4.6477,4.5409,4.5043,4.5904,4.5513,4.4707,4.4708,4.4849,4.4573,3.861,0.0,0.0,0.0,0.0,3.8897,3.9721,4.015,4.0198,3.988,3.9223,3.8436,0.0,0.0,0.0,0.0,0.0,0.0,3.9411,3.9566,4.1058,4.2211,4.2917,4.1891,4.1432,4.1485,4.0479,3.977,3.936,3.8328,3.6861,3.4958,0.0,0.0,0.0,0.0,3.8444,4.0192,4.252,4.3613,4.3416,4.3285,4.2922,4.2386,4.0214,3.9078,3.9153,3.7623,3.6728,3.6582,3.4865,0.0,0.0,0.0,0.0,0.0,0.0,0.0,0.0,0.0,0.0,0.0,0.0,0.0,0.0,0.0,0.0,0.0,0.0,0.0,3.5831,3.746,3.793,0.0,0.0,0.0,0.0,0.0,0.0,0.0,0.0,0.0,3.8972,3.856,3.912,0.0,0.0,3.8462,3.8824,3.931,3.9832,4.043,0.0,0.0,0.0,4.0886,4.0192,4.0637,4.3208,4.5322,4.579,4.7443,4.8777,4.8824,4.9894,5.0867,5.1134,5.0389,4.9653,4.9605,4.989,5.0056,4.9771,4.9591,4.9595,4.2147,3.9946,3.992,3.9899,3.9977,4.1611,4.2558,4.2959,4.2983,4.2758,4.2242,4.0965,3.9745,3.8596,3.8259,0.0,0.0,0.0,4.0751,4.1362,4.2408,4.3523,4.4559,4.4101,4.3804,4.3796,4.2879,4.2267,4.1961,4.0236,3.8794,0.0,0.0,0.0,3.6784,3.8344,3.9831,4.1284,4.3197,4.3963,4.3482,4.3307,4.2944,4.2398,4.0967,4.0214,4.0159,3.8728,3.7745,3.7243,3.567,3.4513,0.0,0.0,0.0,0.0,0.0,0.0,0.0,0.0,0.0,0.0,0.0,3.5396,0.0,0.0,0.0,0.0,3.5982,3.6286,3.6662,3.7996,0.0,0.0,0.0,0.0,0.0,0.0,0.0,3.6648,3.9042,4.067,4.0436,3.9829,4.0244,4.2548,4.0873,3.9592,4.0007,0.0,4.1037,4.1956,4.154,4.1715,4.3363,4.2909,4.2573,4.3447,4.5431,4.7009,4.7403,4.9216,5.0643,5.1025,5.1447,5.1924,5.2546,5.2269,5.2048,5.2005,5.2494,5.272,5.2094,5.1993,5.2025,4.5692,4.457,4.2444,4.178,4.2273,4.3944,4.4725,4.4831,4.4839,4.5075,4.5314,4.322,4.2464,4.2627,4.116,0.0,0.0,4.0246,4.1325,4.1896,4.3436,4.4378,4.4845,4.5718,4.6111,4.609,4.5238,4.4801,4.4626,4.2092,4.1131,4.1755,3.9646,3.8488,3.8466,4.052,4.1699,4.183,4.3599,4.4356,4.3897,4.3416,4.2922,4.2507,4.2376,4.1862,4.1066,3.9624,3.8588,3.8073,3.6296,3.5277,3.5102,0.0,0.0,0.0,0.0,0.0,0.0,0.0,0.0,0.0,0.0,0.0,0.0,0.0,0.0,0.0,3.7873,0.0,3.7033,3.7848,0.0,0.0,0.0,4.0657,4.2062,4.1825,4.1274,4.0555,0.0,0.0,0.0,0.0,4.325,4.4692,4.4744,4.425,4.3403,4.3997,4.425,4.2898,4.2769,4.3032,4.3902,4.4793,4.5915,4.7111,4.8256,4.8686,4.8836,4.9852,5.0736,5.1017,5.1358,5.1734,5.1716,5.2151,5.2597,5.3181,5.3373,5.3174,5.2451,5.2234,5.2231,4.8388,4.7789,4.7217,4.6219,4.5029,4.6295,4.7154,4.7588,4.7213,4.6681,4.5998,4.4611,4.3357,4.2205,4.2615,4.2659,4.2444,4.3643,4.444,4.4972,4.572,4.6308,4.681,4.7029,4.7138,4.7116,4.692,4.6592,4.6199,4.5507,4.4386,4.2913,4.2629,4.1765,4.0388,4.0891,4.1721,4.2813,4.3657,4.4006,4.3875,4.3032,4.2726,4.2988,4.1918,4.1393,4.1481,3.9745,3.8588,3.8117,3.6981,3.5823,3.4731,3.425,0.0,0.0,0.0,0.0,0.0,0.0,0.0,0.0,0.0,3.7471,3.6515,0.0,3.7884,0.0,3.9398,4.1041,4.1743,4.2433,0.0,0.0,4.1624,4.1558,4.1554,4.2884,4.3066,4.1244,4.3192,4.4447,4.3815,4.4561,4.5675,4.7089,4.5164,4.3608,4.3714,4.4557,4.5046,4.4793,4.5522,4.6439,4.687,4.7553,4.8099,4.8514,4.8746,4.9022,4.9333,4.9932,5.0588,5.1338,5.1849,5.2235,5.2611,5.2832,5.2772,5.2723,5.2947,5.3152,5.2947,5.2596,5.2353,4.9781,4.9541,4.9541,4.8764,4.7612,4.853,4.8908,4.8827,4.8584,4.8007,4.7215,4.6336,4.5046,4.3641,4.4582,4.4663,4.4194,4.5372,4.619,4.6679,4.7378,4.7946,4.8449,4.8645,4.8755,4.8733,4.8536,4.8187,4.7706,4.7488,4.6592,4.5129,4.5384,4.4626,4.2966,4.207,4.2245,4.3504,4.3766,4.4006,4.4159,4.3032,4.2442,4.2498,4.0694,3.9821,4.0083,3.8217,3.7199,3.7134,3.6435,3.5641,3.4834,3.4425,3.391,0.0,0.0,0.0,0.0,0.0,0.0,0.0,0.0,0.0,0.0,0.0,3.8969,0.0,0.0,0.0,4.2818,4.3382,4.3697,4.3521,4.3673,4.3986,4.4484,4.5726,4.6013,4.4675,4.6043,4.6884,4.6311,4.6832,4.7575,4.8383,4.6936,4.5865,4.6127,4.6592,4.692,4.6963,4.7597,4.8187,4.8471,4.8711,4.8907,4.8907,4.8907,4.906,4.9501,4.9964,5.0517,5.1265,5.1636,5.1856,5.2162,5.2206,5.2081,5.1978,5.2228,5.2478,5.252,5.2334,5.2167,5.0589,5.0589,5.0524,5.0221,4.9909,5.0523,5.0217,4.9292,4.9397,4.916,4.8647,4.8063,4.7012,4.5843,4.6708,4.6401,4.5362,4.6526,4.734,4.7881,4.8711,4.9301,4.9697,5.009,5.0305,5.0284,4.9912,4.9475,4.8995,4.8623,4.8099,4.7422,4.7444,4.6767,4.5267,4.3542,4.3053,4.3788,4.3919,4.4159,4.4473,4.301,4.1983,4.1383,3.9209,3.7986,3.7876,3.6173,3.5386,3.5765,3.5393,3.5168,3.5277,3.4578,3.4218,0.0,3.466,0.0,0.0,0.0,0.0,0.0,0.0,0.0,0.0,4.0579,4.0627,4.1035,4.2963,4.3768,4.2754,4.3149,4.3879,4.502,4.5782,4.6889,4.8449,4.8891,4.8921,4.8649,4.878,4.8741,4.8286,4.8645,4.8886,4.8864,4.8733,4.8536,4.8798,4.8733,4.8711,4.8907,4.8907,4.8798,4.8842,4.8886,4.8907,4.8907,4.8907,4.9064,4.953,4.9922,5.042,5.0883,5.1026,5.1034,5.1013,5.1055,5.1055,5.1055,5.135,5.1623,5.1707,5.1749,5.1707,5.2075,5.2031,5.1682,5.1463,5.1376,5.1537,5.0885,4.9821,5.0178,5.0087,4.9586,4.9055,4.8374,4.7723,4.8256,4.854,4.8689,4.8912,4.9304,4.9741,4.9956,5.0087,5.0174,5.0221,5.0305,5.0305,5.0218,4.9956,4.9457,4.9781,4.8864,4.6882,4.7291,4.6767,0.0,0.0,0.0,0.0,4.4058,4.4334,4.3984,4.2201,4.0847,4.0016,3.841,0.0,3.6937,3.5823,3.5052,3.4768,3.4681,0.0,0.0,0.0,0.0,0.0,0.0,0.0,0.0,0.0,0.0,0.0,4.2256,4.1801,4.1784,4.1184,4.159,4.3445,4.3419,4.419,4.6542,4.6144,4.6388,4.7877,4.7921,4.8197,4.8999,4.9231,4.918,4.8808,4.9135,4.9187,4.8833,4.8864,4.8907,4.8907,4.8907,4.8907,4.8907,4.8907,4.8907,4.8907,4.8907,4.8907,4.8907,4.8907,4.8907,4.8907,4.8907,4.9076,4.9532,4.967,4.9956,5.0438,5.0505,5.0527,5.0527,5.0527,5.0485,5.0527,5.0612,5.0781,5.1139,5.1223,5.1097,5.2839,0.0,5.2337,5.2009,0.0,0.0,5.0957,5.0125,5.033,5.0174,4.9769,4.9729,4.9509,4.9235,4.9497,4.9737,4.9937,4.9937,5.0218,5.0677,5.0677,5.0808,5.1048,5.1048,5.1048,5.1048,5.1048,5.0655,4.9959,5.0156,4.9414,4.7815,4.8056,4.7815,4.7094,4.6614,4.5653,4.4255,4.4713,4.4823,4.4539,4.2944,4.1721,4.0968,0.0,0.0,0.0,0.0,0.0,0.0,0.0,0.0,0.0,0.0,0.0,3.8298,3.9128,4.0449,4.2289,4.3107,4.3979,4.5024,4.4448,4.345,4.2171,4.2872,4.3811,4.4804,4.4821,4.5642,4.7516,4.7537,4.7775,4.8607,4.8774,4.8922,4.9016,4.9278,4.9279,4.895,4.9069,4.9144,4.8947,4.8907,4.8907,4.8907,4.8907,4.8907,4.8907,4.8907,4.8907,4.8907,4.8907,4.8907,4.8907,4.8907,4.8828,4.867,4.8591,4.8713,4.8978,4.8992,4.9169,4.9638,4.9574,4.9423,4.9423,4.9423,4.9423,4.9423,4.9593,4.9679,4.9806,5.0273,5.0718,5.3342,5.3298,5.2817,5.2337,5.1878,5.1485,5.1026,5.0568,0.0,0.0,0.0,5.0287,5.0502,5.0568,5.0568,5.0568,5.0568,5.0568,5.0808,5.1201,5.1242,5.1419,5.1791,5.1813,5.1813,5.1813,5.1813,5.1332,5.0458,5.0371,4.9869,4.9104,4.8951,4.8951,4.8995,4.8558,4.7488,4.5893,4.5565,4.5347,4.5172,4.3774,4.2726,4.2015,3.958,3.8304,3.8554,3.744,3.7178,3.792,3.7986,3.8139,3.8466,3.8575,3.8454,3.8152,3.9112,4.0603,4.2529,4.3585,4.4946,4.6783,4.6449,4.5126,4.2701,4.4641,4.5859,4.5557,4.6257,4.6958,4.7588,4.8072,4.844,4.8523,4.8987,4.9156,4.8902,4.9155,4.9241,4.8986,4.8886,4.8907,4.8907,4.8907,4.8907,4.8907,4.8907,4.8907,4.8907,4.8907,4.8907,4.8907,4.8907,4.8868,4.8789,4.8749,4.8569,4.8092,4.8052,4.8024,4.7987,4.7958,4.815,4.8608,4.8388,4.8272,4.8245,4.8329,4.8286,4.8286,4.8544,4.8673,4.8458,4.9124,4.9806,5.38,5.3757,5.332,5.2839,5.2381,5.2315,5.2031,5.1529,5.0677,5.0764,5.1463,5.1114,5.1201,5.1594,5.1594,5.1594,5.1594,5.1594,5.1638,0.0,5.1703,5.1725,5.1813,5.1813,5.1813,5.1813,5.1813,5.1529,5.0961,5.0524,5.0043,4.9501,4.9104,4.9104,4.9414,4.9038,4.8471,4.7772,4.6548,4.55,4.4692,4.3272,4.1896,4.064,3.9449,3.8326,3.7623,3.7492,3.7361,3.7483,3.7514,3.8257,3.9896,4.0388,4.1396,4.3161,4.3852,4.4601,4.5489,4.5498,4.5396,4.5435,4.5714,4.5533,4.4723,4.5275,4.5724,4.5675,4.6159,4.6847,4.77,4.7955,4.8193,4.8662,4.8813,4.8885,4.8868,4.896,4.8986,4.8907,4.8907,4.8907,4.8907,4.8907,4.8907,4.8907,4.8907,4.8907,4.8907,4.8907,4.8907,4.8907,4.8907,4.8749,4.8511,4.8392,4.8052,4.7293,4.7213,4.7057,4.6742,4.6701,4.6905,4.7239,4.7271,4.7344,4.7687,4.7788,4.7788,4.7745,4.7811,4.7831,4.7745,4.8004,4.8177,5.4325,5.4259,5.3757,5.3429,5.3232,5.2708,5.2228,5.1769,5.1332,5.1376,5.1747,5.1572,5.1594,5.1791,5.1813,5.1813,5.1813,5.1813,5.1813,5.1813,5.1813,5.1813,5.1813,5.1813,5.1813,5.1813,5.1813,5.155,5.1133,5.083,5.0371,4.9632,4.937,4.941,4.9566,4.937,4.8929,4.8204,4.7269,4.633,4.5369,4.4473,4.3665,4.301,4.2311,4.1765,4.1339,4.1284,4.1284,4.1317,4.1284,4.1699,4.2585,4.2835,4.3407,4.4403,4.4703,4.5088,4.5678,4.5592,4.5521,4.5581,4.5581,4.5478,4.5182,4.5351,4.5704,4.6154,4.6235,4.6588,4.7582,4.7913,4.8146,4.8432,4.8718,4.8864,4.8903,4.8907,4.8907,4.8907,4.8907,4.8907,4.8907,4.8907,4.8907,4.8907,4.8907,4.8907,4.8868,4.871,4.867,4.8828,4.871,4.849,4.8291,4.7853,4.7373,4.6709,4.6448,4.6125,4.5738,4.5653,4.5826,4.6196,4.6282,4.6468,4.6864,4.6963,4.6963,4.6963,4.6963,4.692,4.692,4.6963,4.7094,5.4696,5.4653,5.4259,5.4041,5.3822,5.3014,5.2446,5.214,5.2118,5.2118,5.2097,5.19,5.1813,5.1813,5.1813,5.1813,5.1813,5.1813,5.1813,5.1813,5.1813,5.1813,5.1813,5.1813,5.1813,5.1813,5.1813,5.166,5.1439,5.133,5.0742,4.9828,4.9632,4.9632,4.9741,4.9563,4.9104,4.8339,4.7772,4.7007,4.6024,4.5653,4.5398,4.5303,4.4932,4.4713,4.4604,4.4582,4.4582,4.4582,4.4582,4.4582,4.4582,4.4692,4.4757,4.4757,4.4845,4.5063,4.5376,4.5332,4.5522,4.5959,4.5784,4.5594,4.5616,4.5703,4.598,4.6423,4.6542,4.6892,4.763,4.8094,4.8379,4.8361,4.8667,4.8864,4.8907,4.8907,4.8907,4.8907,4.8907,4.8907,4.8907,4.8907,4.8907,4.8907,4.8907,4.8868,4.8749,4.8472,4.841,4.8331,4.8193,4.7954,4.7853,4.7213,4.6528,4.5982,4.5617,4.523,4.486,4.4687,4.4919,4.5312,4.5533,4.5754,4.6079,4.6294,4.6333,4.6396,4.644,4.6352,4.6396,4.6279,4.6429,5.4696,5.4696,5.4609,5.4346,5.3844,5.3363,5.308,5.3058,5.3058,5.308,5.2948,5.2184,5.1834,5.1813,5.1834,5.1856,5.1856,5.1813,5.1834,5.1834,5.1813,5.1813,5.1856,5.1813,5.1813,5.1813,5.1813,5.1966,5.2249,5.1922,5.1223,5.0305,4.9785,4.9847,5.0109,4.941,4.8929,4.882,4.7946,4.7007,4.6068,4.5959,4.574,4.5288,4.5281,4.5041,4.467,4.4582,4.4604,4.4582,4.4626,4.4604,4.4648,4.5019,4.5238,4.5201,4.5609,4.5893,4.5893,4.5544,4.5544,4.5959,4.6314,4.6533,4.6554,4.7007,4.6898,4.6548,4.7269,4.7941,4.816,4.8536,4.8776,4.8776,4.8842,4.8907,4.8907,4.8907,4.8907,4.8907,4.8907,4.8907,4.8907,4.8907,4.8907,4.8907,4.8828,4.8749,4.8472,4.8172,4.7853,4.7413,4.7132,4.6931,4.6629,4.6144,4.5576,4.4842,4.4575,4.437,4.4102,4.3976,4.4009,4.466,4.4948,4.5293,4.5703,4.6016,4.6289,4.6308,4.6308,4.6308,4.6269,4.6016,4.6068,5.4522,5.4237,5.4237,5.3953,5.3451,5.3298,5.3211,5.3211,5.3211,5.3211,5.3167,5.2796,5.2643,5.2643,5.2643,5.2621,5.2643,5.2643,5.2621,5.2643,5.2643,5.2643,5.2621,5.2337,5.2206,5.2184,5.1944,5.2053,5.2381,5.2293,5.1856,5.1179,5.0396,5.0131,5.0218,4.9366,4.8907,4.8864,4.7968,4.7138,4.6483,4.6155,4.5915,4.5762,4.5718,4.5653,4.5456,4.5412,4.5412,4.5434,4.5434,4.5434,4.5434,4.5631,4.5587,4.5369,4.5478,4.5718,4.598,4.5806,4.5915,4.6358,4.6576,4.6816,4.7182,4.7619,4.7745,4.7466,4.7876,4.8313,4.8558,4.8776,4.8907,4.8907,4.8907,4.8907,4.8907,4.8907,4.8907,4.8907,4.8907,4.8907,4.8907,4.8907,4.8907,4.8868,4.871,4.8472,4.8273,4.7653,4.6991,4.6588,4.5982,4.5698,4.5739,4.5332,4.4862,4.4452,4.4164,4.3856,4.3774,4.3691,4.3848,4.4297,4.4707,4.5137,4.5625,4.5996,4.6308,4.6308,4.6289,4.625,4.5996,4.5844,4.5844,5.4499,5.3931,5.3757,5.3495,5.3211,5.3211,5.3298,5.3407,5.3407,5.3473,5.3604,5.3604,5.3604,5.356,5.3342,5.3211,5.3211,5.3211,5.3211,5.3211,5.3211,5.3211,5.3167,5.2861,5.2621,5.2488,5.2162,5.2228,5.2643,5.2686,5.2446,5.1922,5.1135,5.0655,5.0436,4.9585,4.9104,4.9017,4.8056,4.7247,4.6685,4.6264,4.6002,4.6002,4.6002,4.5937,4.5806,4.5937,4.5871,4.5609,4.574,4.574,4.5631,4.574,4.5718,4.5522,4.5369,4.555,4.6155,4.6068,4.6286,4.6854,4.7029,4.7269,4.7662,4.8138,4.84,4.8339,4.8422,4.8558,4.882,4.8907,4.8907,4.8907,4.8907,4.8907,4.8907,4.8907,4.8907,4.8907,4.8907,4.8907,4.8907,4.8907,4.8907,4.8868,4.8529,4.8132,4.7893,4.7031,4.6265,4.582,4.4965,4.478,4.5148,4.4739,4.4288,4.4164,4.3917,4.3733,4.3691,4.3691,4.3711,4.4082,4.4551,4.498,4.5332,4.5762,4.623,4.6289,4.6269,4.6152,4.582,4.5668,4.5508,5.4805,5.3866,5.3386,5.3232,5.3189,5.3189,5.3429,5.3757,5.3822,5.4128,5.45,5.4565,5.4609,5.4522,5.3669,5.3232,5.3232,5.3276,5.3298,5.3298,5.3276,5.3232,5.3211,5.3189,5.2948,5.2577,5.2446,5.2664,5.3123,5.3189,5.2927,5.2446,5.1944,5.1463,5.0939,5.0021,4.9544,4.937,4.8187,4.7247,4.6745,4.6264,4.6002,4.6002,4.6002,4.5806,4.5463,4.5784,4.5609,4.4713,4.5172,4.5194,4.4801,4.5129,4.5544,4.5871,4.5565,4.574,4.6445,4.6352,4.6483,4.7335,4.7815,4.8138,4.8143,4.8536,4.8776,4.8842,4.8798,4.8864,4.8886,4.8907,4.8907,4.8907,4.8907,4.8907,4.8907,4.8907,4.8907,4.8907,4.8907,4.8907,4.8907,4.8907,4.8868,4.8767,4.8551,4.8012,4.7213,4.6588,4.5779,4.4965,4.4493,4.4411,4.4391,4.4186,4.3876,4.3793,4.3835,4.3691,4.3691,4.3711,4.375,4.3848,4.4258,4.4648,4.5019,4.543,4.5918,4.6113,4.6191,4.6055,4.5586,4.5273,4.5117,5.463,5.3429,5.2948,5.2752,5.2752,5.2752,5.3036,5.3451,5.3757,5.3997,5.4237,5.4565,5.4696,5.4675,5.4347,5.4128,5.4128,5.4172,5.4172,5.4172,5.4128,5.4172,5.4106,5.3822,5.3386,5.297,5.2643,5.273,5.3254,5.3822,5.3713,5.2992,5.2468,5.1856,5.1048,5.0109,4.9588,4.9435,4.823,4.74,4.716,4.6417,4.6002,4.6002,4.6002,4.5937,4.5762,4.5915,4.5828,4.55,4.5653,4.5675,4.55,4.5369,4.5638,4.6271,4.6024,4.6177,4.7051,4.7335,4.757,4.7919,4.8361,4.8623,4.8667,4.8798,4.8907,4.8907,4.8907,4.8907,4.8907,4.8907,4.8907,4.8907,4.8907,4.8907,4.8907,4.8907,4.8907,4.8907,4.8907,4.8907,4.8907,4.8907,4.8789,4.8529,4.8132,4.7493,4.6669,4.5962,4.523,4.4575,4.4164,4.3958,4.3958,4.3856,4.3691,4.3691,4.3691,4.3691,4.3691,4.3691,4.373,4.3789,4.4101,4.457,4.5039,4.5664,4.6035,4.6152,4.6211,4.5918,4.5351,4.5016,4.4805,5.4499,5.3386,5.2752,5.2402,5.2271,5.2271,5.2621,5.3211,5.3517,5.3822,5.4194,5.4521,5.4696,5.4696,5.4696,5.4696,5.4696,5.4696,5.4696,5.4718,5.4849,5.4937,5.4915,5.4718,5.4303,5.3647,5.3014,5.297,5.3451,5.4106,5.3975,5.3232,5.2861,5.2249,5.131,5.0349,4.9806,4.9585,4.8427,4.7745,4.7597,4.6745,4.6243,4.6221,4.609,4.5915,4.5806,4.5915,4.5828,4.5609,4.5696,4.5849,4.5937,4.5696,4.5943,4.6789,4.6679,4.6832,4.7575,4.799,4.8269,4.8405,4.8689,4.8907,4.8907,4.8907,4.8907,4.8907,4.8907,4.8907,4.8907,4.8907,4.8907,4.8907,4.8907,4.8907,4.8907,4.8907,4.8907,4.8907,4.8907,4.8907,4.8907,4.8907,4.871,4.8331,4.7813,4.7071,4.6225,4.5393,4.4657,4.4247,4.3917,4.3774,4.3774,4.3733,4.3691,4.3691,4.3691,4.3691,4.3691,4.3691,4.375,4.3808,4.4121,4.4609,4.5176,4.584,4.6113,4.625,4.6172,4.5937,4.541,4.484,4.4609,5.4434,5.38,5.2927,5.2381,5.2031,5.2009,5.2402,5.3145,5.3233,5.3713,5.439,5.463,5.4608,5.4652,5.4652,5.4718,5.4762,5.4784,5.474,5.474,5.5112,5.533,5.5329,5.5657,5.5351,5.4543,5.3669,5.3495,5.3844,5.3953,5.38,5.332,5.3167,5.2643,5.1769,5.083,5.0305,4.9978,4.8864,4.8187,4.8056,4.7204,4.6723,4.6663,4.633,4.5959,4.55,4.5828,4.5653,4.4997,4.5238,4.5565,4.6068,4.609,4.6483,4.7291,4.7466,4.7706,4.8138,4.8247,4.8449,4.8733,4.8886,4.8907,4.8907,4.8907,4.8907,4.8907,4.8907,4.8907,4.8907,4.8907,4.8907,4.8907,4.8907,4.8907,4.8907,4.8907,4.8907,4.8907,4.8907,4.8907,4.8907,4.8828,4.863,4.8172,4.7493,4.6669,4.584,4.4985,4.4288,4.3898,4.3733,4.3691,4.3691,4.3691,4.3691,4.3691,4.3691,4.3691,4.3691,4.3711,4.3808,4.3926,4.4473,4.4961,4.5351,4.5937,4.6172,4.6269,4.6133,4.5859,4.5332,4.4743,4.4375,5.546,5.4434,5.415,5.356,5.2817,5.2774,5.297,5.3211,5.3191,5.3386,5.3689,5.4014,5.4143,5.4254,5.452,5.4893,5.5177,5.5199,5.5024,5.4806,5.4893,5.5111,5.5395,5.5548,5.5264,5.4762,5.4412,5.4106,5.3975,5.4259,5.4041,5.3363,5.3211,5.2708,5.1813,5.1157,5.0699,5.0218,4.9235,4.8514,4.8204,4.7575,4.7247,4.7247,4.7094,4.6942,4.681,4.6308,4.6046,4.6024,4.6161,4.6467,4.692,4.7029,4.7313,4.7859,4.7968,4.8187,4.858,4.8667,4.8711,4.8864,4.8907,4.8907,4.8907,4.8907,4.8907,4.8907,4.8907,4.8907,4.8907,4.8907,4.8907,4.8907,4.8907,4.8907,4.8907,4.8907,4.8907,4.8907,4.8907,4.8907,4.8828,4.871,4.8352,4.7813,4.7031,4.6184,4.5352,4.4739,4.4247,4.3774,4.3733,4.3691,4.3691,4.3691,4.3691,4.3691,4.3691,4.3808,4.3789,4.3828,4.3926,4.4277,4.4824,4.5254,4.5644,4.5957,4.6211,4.6094,4.5859,4.5508,4.5078,4.4668,4.4258,5.6181,5.5243,5.5002,5.4522,5.3757,5.3582,5.3452,5.343,5.3277,5.3164,5.3247,5.3481,5.3873,5.418,5.458,5.5064,5.5613,5.5657,5.5482,5.5309,5.5462,5.568,5.5875,5.5897,5.5657,5.5287,5.5046,5.4674,5.4259,5.45,5.4215,5.3363,5.3211,5.273,5.1856,5.1332,5.083,5.0284,4.9563,4.8929,4.8449,4.799,4.775,4.7728,4.7575,4.7488,4.7444,4.6876,4.6679,4.6942,4.6969,4.7247,4.7684,4.775,4.7985,4.8318,4.8449,4.858,4.8864,4.8886,4.8907,4.8907,4.8907,4.8907,4.8907,4.8907,4.8907,4.8907,4.8907,4.8907,4.8907,4.8907,4.8907,4.8907,4.8907,4.8907,4.8907,4.8907,4.8907,4.8907,4.8907,4.8868,4.867,4.8511,4.7933,4.7272,4.6508,4.5739,4.4985,4.4411,4.4041,4.3774,4.3733,4.3691,4.3691,4.3691,4.3691,4.3691,4.3691,4.3887,4.4004,4.4062,4.416,4.4766,4.5332,4.5586,4.5937,4.6094,4.6269,4.5937,4.5723,4.5391,4.5078,4.457,4.416,5.6574,5.6116,5.5657,5.5198,5.4674,5.4237,5.3929,5.3791,5.3313,5.3088,5.314,5.3157,5.3705,5.4453,5.4674,5.5273,5.5981,5.6138,5.6181,5.6269,5.6509,5.6706,5.664,5.6706,5.6465,5.5985,5.5592,5.5133,5.4631,5.4675,5.4172,5.332,5.3167,5.273,5.19,5.1332,5.0958,5.0436,4.9912,4.9432,4.8951,4.8471,4.8208,4.8226,4.7881,4.7684,4.7684,4.7684,4.7597,4.7553,4.7575,4.7815,4.816,4.8247,4.8427,4.8798,4.8886,4.8864,4.8907,4.8907,4.8907,4.8907,4.8907,4.8907,4.8907,4.8907,4.8907,4.8907,4.8907,4.8907,4.8907,4.8907,4.8907,4.8907,4.8907,4.8907,4.8907,4.8907,4.8907,4.8907,4.8868,4.8749,4.837,4.8251,4.7533,4.6669,4.5941,4.523,4.4698,4.4164,4.3815,4.373,4.3769,4.3906,4.3965,4.418,4.418,4.4199,4.4121,4.418,4.4355,4.4433,4.4629,4.5277,4.5683,4.5937,4.6113,4.623,4.6308,4.6172,4.5879,4.5508,4.5039,4.4531,4.4199,5.7055,5.6618,5.6487,5.5932,5.5181,5.4984,5.4474,5.3852,5.3047,5.2664,5.2653,5.2673,5.3243,5.4101,5.4829,5.5659,5.6394,5.6618,5.6858,5.7096,5.7205,5.7099,5.6946,5.7164,5.688,5.6181,5.5941,5.5482,5.474,5.4696,5.4194,5.3232,5.3189,5.2709,5.19,5.166,5.1354,5.0914,5.0371,4.9872,4.9392,4.8973,4.8711,4.8689,4.858,4.8536,4.858,4.8886,4.8689,4.8077,4.8361,4.858,4.8689,4.8711,4.8776,4.8864,4.8907,4.8907,4.8907,4.8907,4.8907,4.8907,4.8951,4.8907,4.8907,4.8907,4.8907,4.8907,4.8907,4.8907,4.8907,4.8907,4.8907,4.8907,4.8907,4.8907,4.8907,4.8907,4.8907,4.8907,4.8907,4.8713,4.8316,4.7778,4.7155,4.6348,4.5556,4.4839,4.4507,4.4179,4.3926,4.3906,4.3945,4.4141,4.4316,4.457,4.4707,4.4766,4.4707,4.4609,4.4805,4.4961,4.5257,4.5688,4.5898,4.6172,4.6211,4.6289,4.6308,4.6308,4.5801,4.5312,4.4941,4.4492,4.4316,5.7361,5.7053,5.6868,5.6346,5.5557,5.5134,5.4439,5.3541,5.278,5.2303,5.2144,5.2349,5.3013,5.3918,5.4864,5.5834,5.6732,5.7006,5.7252,5.7402,5.7445,5.7361,5.723,5.7426,5.7033,5.6203,5.6116,5.5548,5.4849,5.4696,5.4106,5.3385,5.3211,5.2687,5.1878,5.1791,5.155,5.1133,5.0742,5.0327,4.9632,4.9563,4.9388,4.9322,4.9366,4.9497,4.9541,4.9781,4.9541,4.906,4.9213,4.941,4.9195,4.9191,4.9126,4.8951,4.8907,4.8907,4.8907,4.8907,4.8907,4.8951,4.906,4.9191,4.9213,4.9213,4.9213,4.9173,4.9038,4.8929,4.8907,4.8907,4.8907,4.8907,4.8907,4.8907,4.8907,4.8907,4.8907,4.889,4.8862,4.8753,4.8353,4.7696,4.7069,4.6393,4.5669,4.5129,4.4712,4.4383,4.4219,4.4258,4.4355,4.457,4.4687,4.4883,4.5019,4.5098,4.5254,4.5137,4.5254,4.5449,4.5703,4.5957,4.6172,4.6308,4.6308,4.6308,4.6308,4.6113,4.5586,4.5312,4.5058,4.4687,4.4492,5.7533,5.7396,5.6929,5.6393,5.5701,5.48,5.3867,5.3011,5.243,5.1986,5.1819,5.2147,5.2907,5.3882,5.4913,5.5914,5.6814,5.7216,5.7424,5.7445,5.7402,5.7293,5.7317,5.7448,5.6989,5.6247,5.6116,5.5526,5.4915,5.4696,5.4194,5.3538,5.3276,5.2686,5.1987,5.1813,5.1529,5.1199,5.1067,5.0655,5.0087,5.0065,4.9937,4.9741,4.9937,5.0131,5.0218,5.0287,5.0134,4.9803,5.0131,5.0021,4.9716,4.9654,4.9541,4.9235,4.9191,4.917,4.9104,4.9191,4.9126,4.9235,4.9519,4.9654,4.9654,4.9654,4.961,4.9501,4.9213,4.9038,4.8907,4.8907,4.8907,4.8907,4.8907,4.8907,4.8907,4.8907,4.8907,4.8955,4.8966,4.8696,4.8404,4.7898,4.7318,4.6428,4.5737,4.5171,4.4918,4.4772,4.4726,4.4805,4.4922,4.5058,4.5117,4.5133,4.5231,4.5371,4.5625,4.5683,4.5723,4.5898,4.6113,4.6308,4.6308,4.6308,4.6308,4.6308,4.6308,4.6152,4.5781,4.5683,4.5566,4.5078,4.4766,5.7651,5.6929,5.6367,5.564,5.4815,5.4141,5.3345,5.2424,5.1943,5.1693,5.1666,5.2093,5.2837,5.3767,5.512,5.6188,5.6742,5.7209,5.7467,5.7424,5.7099,5.6968,5.7033,5.7273,5.6946,5.6269,5.6094,5.557,5.4915,5.4653,5.4368,5.3822,5.3363,5.2752,5.1987,5.1922,5.1572,5.1199,5.1133,5.1048,5.0764,5.0502,5.0415,5.0305,5.0393,5.0371,5.0415,5.0699,5.0851,5.0761,5.048,5.0305,5.0196,5.0174,5.0025,4.9956,4.9934,4.9956,4.9978,4.9912,4.9978,4.989,5.0021,5.0152,5.0152,5.0174,4.9937,4.9697,4.9519,4.9279,4.8951,4.8907,4.8907,4.8907,4.8907,4.8907,4.8907,4.8929,4.9082,4.9246,4.9121,4.889,4.8805,4.7797,4.7106,4.6436,4.5865,4.5252,4.514,4.5156,4.5215,4.5312,4.541,4.5527,4.5566,4.5605,4.5683,4.5703,4.5898,4.6035,4.6094,4.6133,4.6269,4.6308,4.6308,4.6308,4.6308,4.6308,4.6308,4.6152,4.6016,4.5898,4.5703,4.5312,4.5234,5.7524,5.6695,5.5734,5.4836,5.4054,5.3336,5.2592,5.1932,5.1624,5.1479,5.1624,5.2248,5.2915,5.35,5.4904,5.585,5.6226,5.6883,5.7172,5.7094,5.688,5.6684,5.6509,5.6662,5.6465,5.5854,5.5766,5.5329,5.4871,5.4653,5.4412,5.3931,5.3604,5.3232,5.2577,5.2446,5.2228,5.1878,5.1767,5.168,5.1398,5.1398,5.1485,5.1616,5.166,5.1594,5.1441,5.1572,5.1594,5.1354,5.0961,5.0677,5.0677,5.0655,5.0568,5.0349,5.0305,5.0305,5.0305,5.0284,5.0196,5.0065,5.0393,5.0458,5.048,5.0502,5.0436,5.0043,4.9737,4.9432,4.8973,4.8907,4.8907,4.8907,4.8907,4.8995,4.917,4.9257,4.9322,4.9511,4.9435,4.9327,4.89,4.8023,4.7469,4.7035,4.6326,4.5746,4.5785,4.5801,4.5742,4.582,4.5898,4.5957,4.5996,4.6055,4.6113,4.6113,4.6133,4.6211,4.623,4.625,4.6289,4.6308,4.6308,4.6308,4.6308,4.6308,4.6308,4.623,4.6133,4.6016,4.5918,4.5801,4.5801,5.7079,5.632,5.4978,5.4006,5.3384,5.2471,5.1843,5.1474,5.1397,5.1435,5.1571,5.2462,5.2856,5.3329,5.4524,5.5141,5.5661,5.6346,5.6874,5.6672,5.666,5.6378,5.6094,5.5897,5.5701,5.5352,5.544,5.5156,5.4828,5.4675,5.4522,5.4106,5.391,5.3517,5.3276,5.3167,5.2839,5.2402,5.2446,5.2402,5.2162,5.2337,5.2643,5.2861,5.2927,5.2774,5.2512,5.249,5.2402,5.2031,5.1658,5.1398,5.1267,5.1111,5.0983,5.0546,5.0655,5.0699,5.072,5.0633,5.048,5.0021,5.0655,5.0873,5.0699,5.083,5.0699,5.0218,4.9675,4.9261,4.8951,4.8907,4.8951,4.9017,4.9017,4.9235,4.9606,4.9741,4.9934,4.9878,4.9741,4.959,4.926,4.8581,4.81,4.7528,4.6789,4.6308,4.6308,4.6269,4.6152,4.6094,4.6133,4.6133,4.6172,4.6172,4.6289,4.6308,4.6308,4.6308,4.6308,4.6308,4.6308,4.6308,4.6308,4.6308,4.6308,4.6308,4.6308,4.6308,4.6269,4.6172,4.6191,4.6289,4.6269,5.6464,5.4815,5.4122,5.3309,5.2442,5.1814,5.1523,5.1377,5.1397,5.1397,5.1474,5.2056,5.2635,5.3185,5.4074,5.5025,5.5708,5.6252,5.6462,5.6243,5.6215,5.5938,5.5526,5.5265,5.4981,5.4981,5.5156,5.5112,5.4806,5.4675,5.4631,5.4478,5.415,5.3691,5.3451,5.3189,5.3123,5.2796,5.2927,5.2992,5.2992,5.308,5.3211,5.3363,5.3385,5.3254,5.3145,5.308,5.3058,5.297,5.2905,5.2599,5.2162,5.155,5.131,5.1398,5.1463,5.1441,5.1463,5.1529,5.1507,5.1485,5.1572,5.1398,5.1179,5.1267,5.0983,5.0087,4.9454,4.9038,4.8929,4.9017,4.917,4.9366,4.9541,4.9654,5.0131,5.0458,5.072,5.0682,5.026,4.9743,4.9343,4.8806,4.7986,4.7398,4.6789,4.6396,4.6308,4.6308,4.6269,4.625,4.6269,4.6269,4.6289,4.6269,4.6308,4.6308,4.6308,4.6308,4.6308,4.6308,4.6308,4.6308,4.6308,4.6308,4.6308,4.6308,4.6308,4.6308,4.6308,4.6308,4.6308,4.6308,4.6308,5.5443,5.4026,5.324,5.2684,5.2153,5.162,5.1397,5.1397,5.1397,5.1397,5.1523,5.1939,5.2346,5.2732,5.3357,5.4265,5.512,5.5451,5.5613,5.5613,5.5681,5.5454,5.5111,5.4806,5.4718,5.4762,5.4937,5.4959,5.4718,5.4696,5.4696,5.4653,5.439,5.4172,5.4062,5.3997,5.3669,5.3407,5.3451,5.3539,5.3582,5.3779,5.3931,5.3953,5.391,5.3844,5.356,5.3582,5.3408,5.3211,5.2948,5.2861,5.2664,5.2293,5.1813,5.1878,5.2031,5.214,5.2228,5.2315,5.2315,5.1856,5.1987,5.1769,5.1419,5.1354,5.1179,5.0262,4.9523,4.9279,4.9301,4.9432,4.9737,4.9912,4.9978,5.0196,5.0589,5.0917,5.1157,5.1271,5.0648,5.0061,4.9595,4.8867,4.7854,4.7181,4.6702,4.6483,4.6308,4.6308,4.6308,4.6308,4.6308,4.6265,4.6221,4.6177,4.609,4.609,4.6133,4.6133,4.6177,4.6133,4.6221,4.6308,4.6308,4.6221,4.6308,4.6308,4.6308,4.6308,4.6308,4.6308,4.6308,4.6308,4.6308,5.4286,5.3309,5.2539,5.2153,5.1959,5.1571,5.1397,5.1397,5.1397,5.1397,5.1426,5.1814,5.2104,5.2346,5.28,5.3473,5.4217,5.4408,5.4753,5.4928,5.5226,5.5118,5.4801,5.4674,5.4631,5.4434,5.4477,5.4609,5.4696,5.4696,5.4696,5.4675,5.4696,5.4696,5.4631,5.4543,5.4368,5.4215,5.4041,5.4041,5.415,5.4434,5.4696,5.4696,5.4696,5.4434,5.4128,5.4084,5.3931,5.3604,5.3298,5.3123,5.3254,5.2992,5.2577,5.2228,5.2446,5.2577,5.2708,5.2905,5.2752,5.2118,5.2293,5.1922,5.1376,5.1201,5.1135,5.0524,4.9912,4.9544,4.9544,4.9763,4.9978,5.0131,5.0218,5.048,5.0873,5.1221,5.1419,5.1302,5.0801,5.0273,4.9742,4.8716,4.7658,4.7137,4.6638,4.644,4.6308,4.6308,4.6308,4.6308,4.6265,4.6177,4.6133,4.6002,4.587,4.5695,4.5695,4.5651,4.5783,4.587,4.5958,4.6046,4.607,4.5983,4.6177,4.6308,4.6308,4.6308,4.6308,4.6308,4.6308,4.6308,4.6308,5.3301,5.2374,5.2249,5.1959,5.1523,5.1445,5.1397,5.1397,5.1397,5.1397,5.1397,5.1474,5.1765,5.2153,5.2655,5.2992,5.3377,5.389,5.4192,5.4283,5.4783,5.4928,5.466,5.4694,5.4412,5.415,5.4019,5.4281,5.4412,5.4543,5.4609,5.4587,5.4522,5.4653,5.45,5.4456,5.4675,5.4587,5.4587,5.4587,5.4587,5.4653,5.4696,5.4696,5.4696,5.4653,5.4543,5.4522,5.4456,5.4456,5.4412,5.4194,5.391,5.3779,5.3451,5.3211,5.3101,5.3123,5.3145,5.3298,5.3101,5.2577,5.2512,5.1987,5.1419,5.0873,5.0808,5.1046,5.024,4.9719,4.9632,4.941,4.9432,4.9759,5.0152,5.0502,5.0917,5.1242,5.1441,5.1302,5.0821,5.0252,4.9699,4.8544,4.7528,4.705,4.6638,4.644,4.6308,4.6308,4.6308,4.6308,4.6133,4.6002,4.587,4.5783,4.5563,4.5299,4.5255,4.5255,4.5343,4.5475,4.5519,4.5563,4.5675,4.5939,4.6177,4.6308,4.6308,4.6308,4.6308,4.6308,4.6308,4.6308,4.6308,5.2153,5.1765,5.1717,5.162,5.1426,5.1397,5.1397,5.1397,5.1397,5.1397,5.1397,5.1397,5.1523,5.1814,5.2008,5.2269,5.2587,5.3048,5.3495,5.3752,5.4225,5.4494,5.4547,5.4365,5.4041,5.3888,5.3648,5.3582,5.3822,5.3844,5.3844,5.3888,5.3909,5.3779,5.3931,5.3866,5.3997,5.4194,5.4477,5.4675,5.4696,5.4696,5.4696,5.4696,5.4696,5.4652,5.4652,5.4696,5.4696,5.4696,5.4696,5.4609,5.4412,5.4346,5.4215,5.4106,5.4019,5.391,5.367,5.3866,5.3538,5.308,5.2817,5.2468,5.1638,5.1092,5.0808,5.1046,5.072,5.0349,5.0152,5.0109,5.0043,5.0152,5.0218,5.0327,5.072,5.107,5.1291,5.1088,5.0798,5.004,4.9277,4.8294,4.7321,4.6745,4.6483,4.6396,4.6308,4.6308,4.6308,4.6308,4.6046,4.5783,4.5607,4.5475,4.5166,4.4946,4.4946,4.4946,4.499,4.5034,4.5034,4.5299,4.5607,4.587,4.6221,4.6308,4.6308,4.6308,4.6308,4.6308,4.6308,4.6308,4.6308,5.1269,5.1221,5.1338,5.1397,5.1397,5.1397,5.1397,5.1397,5.1397,5.1397,5.1397,5.1397,5.1397,5.1377,5.1474,5.1717,5.1988,5.2034,5.263,5.3193,5.3632,5.3932,5.421,5.4123,5.3975,5.3713,5.3386,5.3123,5.2883,5.2883,5.297,5.3189,5.3363,5.3298,5.3232,5.3342,5.3538,5.3953,5.4478,5.4675,5.4696,5.4696,5.4696,5.4652,5.4608,5.452,5.4475,5.4472,5.4471,5.4475,5.4605,5.465,5.4652,5.4609,5.4609,5.4543,5.4543,5.4412,5.4281,5.4281,5.4128,5.3669,5.3211,5.2861,5.2315,5.1725,5.1441,5.157,5.1114,5.0851,5.0655,5.072,5.048,5.0371,5.0436,5.0393,5.0436,5.0895,5.0985,5.067,5.0218,4.9469,4.8669,4.7858,4.7098,4.6512,4.6308,4.6269,4.6226,4.6206,4.6114,4.6026,4.5651,4.5236,4.4838,4.4706,4.4529,4.4352,4.4307,4.4307,4.413,4.4263,4.4415,4.4813,4.5387,4.5783,4.609,4.6221,4.6308,4.6308,4.6308,4.6308,4.6308,4.6308,4.6308,5.0859,5.0879,5.1201,5.1338,5.1338,5.1377,5.1358,5.128,5.1319,5.1319,5.1319,5.1338,5.128,5.1338,5.126,5.1308,5.1464,5.1593,5.1968,5.2478,5.2946,5.3468,5.3857,5.4098,5.3997,5.3407,5.3058,5.2577,5.2098,5.2014,5.2491,5.308,5.2863,5.3058,5.3167,5.3123,5.3429,5.3888,5.4412,5.4675,5.4696,5.4696,5.4652,5.4564,5.4254,5.3943,5.3965,5.406,5.4234,5.4248,5.4487,5.4732,5.4804,5.474,5.4718,5.4696,5.4696,5.4631,5.4609,5.4565,5.4325,5.3931,5.3451,5.3036,5.273,5.2533,5.2381,5.2184,5.166,5.1242,5.0917,5.0699,5.0568,5.0436,5.0458,5.0458,5.0546,5.083,5.0832,5.0298,4.9831,4.9343,4.8419,4.7673,4.6715,4.6076,4.5937,4.5918,4.6002,4.5934,4.5768,4.5568,4.5147,4.4617,4.3845,4.3596,4.3284,4.3016,4.2864,4.2927,4.2927,4.3195,4.3774,4.4503,4.5078,4.5544,4.6002,4.6177,4.6308,4.6308,4.6308,4.6308,4.6308,4.6308,4.6308,5.0644,5.0449,5.0605,5.0664,5.0664,5.0664,5.0664,5.0664,5.0664,5.082,5.1035,5.0801,5.0801,5.0918,5.0742,5.0664,5.0644,5.0718,5.1217,5.1792,5.2251,5.2928,5.3409,5.3552,5.3235,5.3059,5.2666,5.2038,5.1436,5.1329,5.1269,5.1592,5.2106,5.2252,5.2424,5.2971,5.3451,5.3888,5.4368,5.4696,5.4696,5.4652,5.452,5.421,5.4422,5.4129,5.4011,5.4214,5.4439,5.4646,5.4651,5.4859,5.5,5.4871,5.4762,5.4718,5.4718,5.4696,5.4696,5.4631,5.4347,5.356,5.3058,5.2817,5.2883,5.2577,5.249,5.2315,5.2204,5.1767,5.1133,5.0895,5.0742,5.0502,5.048,5.0589,5.0655,5.0895,5.0895,5.0467,5.0112,4.9723,4.8689,4.7571,4.6556,4.5683,4.5613,4.5562,4.5627,4.5561,4.5332,4.5027,4.4561,4.3997,4.3221,4.264,4.2057,4.1742,4.1471,4.1759,4.2029,4.2703,4.3284,4.4041,4.4813,4.5343,4.5783,4.6133,4.6308,4.6308,4.6308,4.6308,4.6308,4.6265,4.6133,5.0254,4.998,4.9844,4.9988,5.0204,5.0223,5.0223,5.0223,5.0243,5.0312,5.0586,5.0312,5.0332,5.0469,5.0371,5.0098,5.0058,5.0075,5.0588,5.1022,5.1566,5.2359,5.3022,5.3226,5.2953,5.2822,5.2235,5.1588,5.0886,5.076,5.0676,5.0761,5.1037,5.1441,5.2103,5.2841,5.356,5.391,5.4368,5.4542,5.452,5.4583,5.4448,5.3998,5.4025,5.3896,5.3703,5.386,5.4217,5.457,5.4829,5.5133,5.5235,5.5198,5.4981,5.4871,5.4784,5.4718,5.4696,5.4609,5.4325,5.3647,5.3298,5.297,5.273,5.2599,5.2512,5.273,5.2577,5.227,5.1614,5.1791,5.1638,5.1507,5.1354,5.1376,5.0939,5.098,5.0851,5.0679,5.0156,4.9406,4.8208,4.7032,4.612,4.5382,4.5297,4.5289,4.5301,4.5126,4.4753,4.4379,4.393,4.3256,4.2595,4.1922,4.12,4.0629,4.0538,4.0901,4.1308,4.2029,4.2882,4.373,4.444,4.5122,4.5519,4.5739,4.6046,4.6245,4.6158,4.6002,4.5914,4.5826,4.5739,4.957,4.9492,4.9148,4.9441,5.0106,5.0156,5.0164,5.0067,5.0058,5.0117,5.0176,5.0098,5.0058,5.0098,4.9922,4.9648,4.9394,4.9414,4.9828,5.0386,5.091,5.1899,5.2592,5.2878,5.2497,5.2391,5.1788,5.0995,5.0358,4.9934,4.9934,5.0187,5.046,5.1101,5.1874,5.317,5.3801,5.3975,5.4389,5.4255,5.4183,5.4329,5.4099,5.3835,5.3487,5.3368,5.3194,5.3431,5.3888,5.4398,5.4971,5.5395,5.5936,5.5635,5.5395,5.5373,5.5024,5.4806,5.4696,5.4696,5.4281,5.3779,5.3363,5.3254,5.3058,5.2817,5.2599,5.2774,5.2686,5.2686,5.2796,5.2927,5.2468,5.2206,5.1987,5.1791,5.1332,5.1135,5.1092,5.0946,4.9854,4.8689,4.7525,4.6434,4.5628,4.5078,4.4996,4.4993,4.4943,4.4626,4.425,4.3764,4.3305,4.2497,4.1787,4.1019,4.0356,3.9719,3.9582,3.9947,4.0629,4.1444,4.2326,4.3329,4.4223,4.5002,4.5192,4.5318,4.5475,4.5588,4.5675,4.5563,4.5475,4.5343,4.5249,4.9355,4.9062,4.8952,4.907,4.9343,4.9343,4.9343,4.9343,4.9363,4.9473,4.9629,4.9453,4.9343,4.9285,4.8984,4.8711,4.8379,4.8594,4.8979,4.9864,5.0297,5.1207,5.192,5.2074,5.1782,5.1423,5.0847,5.0229,4.9529,4.91,4.8899,4.9122,5.0089,5.1075,5.2015,5.2881,5.3075,5.3353,5.361,5.3715,5.3857,5.3732,5.3556,5.3391,5.3131,5.2889,5.2694,5.308,5.3805,5.4513,5.5201,5.5736,5.628,5.6116,5.5875,5.5875,5.5613,5.5286,5.4805,5.439,5.3953,5.3582,5.3211,5.3014,5.2708,5.2599,5.2621,5.2686,5.2621,5.2512,5.2271,5.2228,5.1966,5.1966,5.1834,5.1813,5.1594,5.1572,5.155,5.13,5.0519,4.8903,4.7515,4.6668,4.5796,4.5156,4.5055,4.4745,4.4613,4.4157,4.3725,4.3202,4.2637,4.1788,4.1009,4.0481,3.9778,3.9086,3.8916,3.905,3.981,4.0793,4.1893,4.3,4.398,4.4898,4.4881,4.4838,4.4744,4.475,4.4838,4.4971,4.4952,4.4819,4.466,4.9121,4.8913,4.8894,4.8894,4.8894,4.8894,4.8894,4.8894,4.8913,4.9043,4.916,4.8828,4.8652,4.8561,4.8183,4.7754,4.7441,4.7838,4.8531,4.9402,4.9713,5.0678,5.1253,5.1103,5.0878,5.048,4.9929,4.923,4.8628,4.8276,4.8396,4.8912,4.9615,5.0674,5.1643,5.2207,5.274,5.3101,5.3315,5.3387,5.3436,5.3303,5.3003,5.2866,5.2674,5.2577,5.2562,5.3126,5.3999,5.4779,5.5412,5.5968,5.658,5.664,5.6378,5.6356,5.6116,5.5701,5.5045,5.4499,5.4106,5.3604,5.2883,5.2446,5.2293,5.2206,5.2359,5.2424,5.2468,5.2468,5.2315,5.2184,5.214,5.2162,5.2009,5.2009,5.1791,5.1747,5.1747,5.1517,5.0844,4.9215,4.7707,4.6958,4.6143,4.5617,4.5176,4.4799,4.4442,4.4023,4.3465,4.285,4.2353,4.1664,4.0897,4.0222,3.9415,3.8496,3.8461,3.8564,3.9262,4.0311,4.151,4.263,4.3513,4.4186,4.4357,4.4346,4.3899,4.3793,4.3985,4.4109,4.4346,4.4178,4.3929,4.8894,4.8894,4.8894,4.8894,4.8894,4.8894,4.8894,4.8894,4.8894,4.8894,4.8855,4.8418,4.8203,4.8066,4.7734,4.7324,4.707,4.7383,4.8082,4.8717,4.8991,5.0138,5.0655,5.0527,4.9955,4.9597,4.9174,4.8512,4.7802,4.791,4.8261,4.8782,4.9312,5.0156,5.0945,5.1699,5.2357,5.2794,5.2981,5.3023,5.3111,5.2901,5.262,5.2436,5.2268,5.2139,5.2266,5.278,5.3596,5.4509,5.5367,5.6354,5.6924,5.6987,5.688,5.6706,5.6422,5.5941,5.5439,5.4958,5.4477,5.3953,5.3254,5.2512,5.2097,5.2097,5.2249,5.2402,5.249,5.2817,5.297,5.2883,5.2817,5.2643,5.2402,5.2206,5.1878,5.1791,5.1791,5.1455,5.0802,4.9489,4.812,4.7215,4.6852,4.6477,4.6052,4.5527,4.5082,4.429,4.3678,4.2705,4.2218,4.1694,4.0928,4.0057,3.9309,3.8431,3.8419,3.8602,3.9287,3.9918,4.1011,4.2061,4.2892,4.3503,4.3777,4.3452,4.2787,4.2785,4.2955,4.3148,4.336,4.324,4.3044,4.8894,4.8894,4.8894,4.8894,4.8894,4.8894,4.8894,4.8894,4.8894,4.8757,4.8379,4.8262,4.7851,4.726,4.7168,4.6855,4.6797,4.6919,4.747,4.7963,4.8389,4.8872,4.9149,4.9212,4.8751,4.8455,4.8154,4.7973,4.7798,4.7785,4.8038,4.8456,4.9058,4.9532,5.0178,5.0845,5.1799,5.2451,5.2661,5.2782,5.2654,5.2382,5.2168,5.202,5.1821,5.1746,5.1823,5.2587,5.3452,5.4435,5.5114,5.5968,5.6829,5.688,5.6858,5.723,5.688,5.64,5.5919,5.5439,5.5002,5.463,5.4194,5.3407,5.2795,5.2402,5.2468,5.2599,5.2621,5.2861,5.3101,5.3101,5.3058,5.2905,5.2708,5.2468,5.2206,5.2097,5.2054,5.1716,5.1038,5.0144,4.8769,4.8065,4.7721,4.7421,4.7038,4.6509,4.5788,4.499,4.4021,4.3041,4.2253,4.1831,4.0719,3.9791,3.9126,3.8553,3.8604,3.8713,3.9086,3.9815,4.0629,4.1559,4.2491,4.3005,4.3329,4.2757,4.196,4.1755,4.1858,4.2104,4.229,4.2301,4.2264,4.8894,4.8894,4.8894,4.8894,4.8894,4.8894,4.8835,4.8679,4.864,4.8418,4.8183,4.7787,4.7402,4.6948,4.6777,4.6562,4.6387,4.6562,4.7042,4.7696,4.7716,4.8157,4.8257,4.814,4.7919,4.7618,4.7515,4.7601,4.7588,4.7979,4.8242,4.8561,4.8906,4.9453,5.0212,5.1071,5.1893,5.236,5.2573,5.2562,5.2394,5.1994,5.1742,5.1606,5.1405,5.1348,5.1347,5.2323,5.3452,5.4373,5.4988,5.5754,5.6631,5.6815,5.7033,5.7339,5.7273,5.6837,5.6443,5.6159,5.5723,5.5395,5.522,5.4674,5.3953,5.3473,5.3298,5.3189,5.2992,5.2905,5.3058,5.3189,5.3167,5.3123,5.2948,5.2774,5.2643,5.2512,5.2276,5.202,5.1424,5.0652,4.9836,4.9172,4.8696,4.8554,4.8268,4.7754,4.6835,4.5788,4.4681,4.3538,4.2702,4.1972,4.0863,4.0092,3.9696,3.9342,3.9072,3.9178,3.9287,3.9645,4.0397,4.1251,4.2139,4.2464,4.2563,4.1944,4.1279,4.116,4.1152,4.1426,4.1616,4.1649,4.1591,4.8894,4.8894,4.8894,4.8874,4.8835,4.8815,4.8555,4.8183,4.8164,4.8144,4.7988,4.7402,4.7148,4.7051,4.6816,4.6601,4.6484,4.6543,4.6797,4.7557,4.7192,4.7372,4.769,4.7809,4.7439,4.7284,4.743,4.7721,4.7492,4.7949,4.8574,4.8952,4.9258,4.9844,5.0742,5.1465,5.2237,5.2748,5.263,5.2463,5.2492,5.1992,5.1201,5.0976,5.1113,5.1289,5.1296,5.2164,5.3473,5.4263,5.5051,5.5754,5.6425,5.6815,5.7077,5.7339,5.7426,5.7252,5.6968,5.6771,5.6596,5.6356,5.6158,5.5941,5.5373,5.4477,5.4128,5.4041,5.391,5.3953,5.4128,5.4215,5.4194,5.4062,5.391,5.3626,5.3298,5.3037,5.2625,5.239,5.2068,5.1335,5.0945,5.0299,5.0106,4.9896,4.9545,4.9027,4.8081,4.6875,4.559,4.4295,4.3323,4.2583,4.19,4.1157,4.0664,4.0284,3.9931,3.9692,3.9785,3.9988,4.0161,4.0874,4.148,4.1595,4.157,4.1099,4.0888,4.0811,4.0832,4.0885,4.0982,4.1111,4.1031,4.8894,4.8894,4.8894,4.8718,4.8379,4.8379,4.8125,4.7734,4.7734,4.7754,4.7734,4.7793,4.7676,4.7344,4.7187,4.6992,4.6777,4.6601,4.6689,4.6738,4.6547,4.6697,4.6938,4.7144,4.7008,4.7253,4.7576,4.8105,4.8327,4.8613,4.8926,4.9316,4.9668,5.0254,5.125,5.1914,5.2422,5.2969,5.2706,5.2471,5.2511,5.1943,5.1269,5.1074,5.1133,5.1172,5.1363,5.2175,5.3124,5.3897,5.4847,5.5775,5.6701,5.6747,5.7055,5.7405,5.7467,5.7426,5.7361,5.7273,5.7142,5.7186,5.7053,5.7053,5.664,5.5635,5.5067,5.5024,5.498,5.5067,5.5133,5.5176,5.522,5.5045,5.4871,5.4477,5.4041,5.3604,5.3148,5.2909,5.2671,5.2368,5.1998,5.1695,5.1544,5.1262,5.0891,5.0342,4.9393,4.826,4.685,4.5511,4.4134,4.3316,4.2678,4.2114,4.1548,4.1278,4.0941,4.0682,4.0394,4.0297,4.0297,4.0391,4.071,4.1005,4.1126,4.0814,4.0657,4.0643,4.0643,4.0739,4.0721,4.0835,4.0688,4.8894,4.8874,4.8633,4.8418,4.8203,4.8008,4.7695,4.7383,4.75,4.7623,4.7598,4.7793,4.7793,4.7519,4.7383,4.7246,4.687,4.6699,4.6523,4.6348,4.6308,4.6308,4.6484,4.6694,4.688,4.7104,4.7832,4.8418,4.9023,4.9199,4.9375,4.9824,5.0137,5.0762,5.1699,5.2148,5.2539,5.2988,5.2637,5.2461,5.2402,5.1777,5.123,5.1055,5.1094,5.1113,5.1335,5.2011,5.2912,5.3903,5.5009,5.5704,5.6425,5.6655,5.7009,5.7361,5.7467,5.7467,5.7467,5.7467,5.7467,5.7467,5.7467,5.7293,5.7293,5.6443,5.6225,5.6116,5.5679,5.5679,5.5701,5.5723,5.5919,5.5919,5.5679,5.5373,5.5067,5.4739,5.4455,5.4258,5.406,5.3908,5.3514,5.3038,5.2885,5.2725,5.231,5.1616,5.0707,4.96,4.8192,4.6802,4.543,4.411,4.3257,4.2802,4.2355,4.2116,4.2008,4.1586,4.1182,4.0634,4.0409,4.0524,4.0655,4.0899,4.0902,4.0708,4.0641,4.0736,4.0684,4.0598,4.061,4.0705,4.0771,4.8796,4.8757,4.8301,4.8086,4.7988,4.7656,4.7246,4.6953,4.7305,4.748,4.748,4.7558,4.7578,4.75,4.7305,4.709,4.685,4.6719,4.6484,4.6328,4.6308,4.6308,4.6484,4.6777,4.7129,4.7519,4.8086,4.8769,4.9414,4.9492,4.9726,5.0351,5.1016,5.1611,5.2129,5.248,5.2812,5.2754,5.25,5.2129,5.1875,5.1621,5.123,5.1094,5.1152,5.1123,5.1219,5.1711,5.2672,5.3808,5.5041,5.5918,5.6435,5.6781,5.7118,5.7448,5.7467,5.7467,5.7467,5.7467,5.7467,5.7467,5.7467,5.7467,5.7467,5.7336,5.7142,5.6902,5.6465,5.6312,5.6312,5.6378,5.6596,5.6662,5.64,5.6181,5.5941,5.5701,5.5526,5.5417,5.5263,5.5132,5.4826,5.4368,5.4191,5.4052,5.3575,5.2863,5.2046,5.0803,4.9475,4.8119,4.6789,4.546,4.4224,4.3562,4.3232,4.3232,4.3073,4.2515,4.1811,4.0836,4.0416,4.0691,4.0837,4.0869,4.0884,4.0815,4.0825,4.0853,4.0882,4.0864,4.0928,4.1023,4.115,4.834,4.8301,4.7871,4.7519,4.7207,4.709,4.6816,4.6523,4.6875,4.7051,4.7168,4.7461,4.7734,4.8066,4.8027,4.7656,4.687,4.6674,4.6523,4.6348,4.6308,4.6308,4.6562,4.7148,4.7812,4.8262,4.8613,4.9023,4.9629,4.9668,5.0137,5.1133,5.1211,5.1816,5.248,5.2676,5.2558,5.2461,5.2246,5.1914,5.1641,5.1377,5.1211,5.1133,5.1143,5.1045,5.118,5.1762,5.2431,5.348,5.4847,5.5915,5.6573,5.6971,5.7312,5.7448,5.7467,5.7467,5.7467,5.7467,5.7467,5.7467,5.7467,5.7467,5.7467,5.7467,5.7361,5.7361,5.7099,5.7099,5.7053,5.7099,5.723,5.7099,5.6902,5.6727,5.6531,5.6225,5.5985,5.5941,5.5897,5.581,5.5701,5.5416,5.5416,5.5139,5.4684,5.3988,5.3269,5.2014,5.0692,4.9299,4.7942,4.6929,4.5722,4.4698,4.4318,4.4284,4.3864,4.272,4.1603,4.0546,4.0318,4.0637,4.0651,4.0619,4.0662,4.1014,4.098,4.1026,4.1134,4.1214,4.1261,4.1325,4.1452]},{"header":{"parameterUnit":"m.s-1","parameterCategory":1,"la1":31.0,"la2":29.5877,"lo1":-88.7671,"lo2":-86.6584,"dx":0.0162,"dy":0.0185,"nx":115,"ny":88,"refTime":"2023-02-03T18:00:00:Z","depth":0,"parameterNumber":3,"parameterNumberName":"V-component_of_WINDS"},"data":[0.0,0.0,0.0,0.0,0.0,0.0,0.0,0.0,0.0,0.0,0.0,0.0,0.0,0.0,0.0,0.0,0.0,0.0,0.0,0.0,0.0,0.0,0.0,0.0,0.0,0.0,0.0,0.0,0.0,0.0,0.0,0.0,0.0,0.0,0.0,0.0,0.0,0.0,0.0,0.0,0.0,0.0,0.0,0.0,0.0,0.0,0.0,0.0,0.0,0.0,0.0,0.0,0.0,0.0,0.0,0.0,0.0,0.0,0.0,0.0,0.0,0.0,0.0,0.0,0.0,0.0,0.0,0.0,0.0,0.0,0.0,0.0,0.0,0.0,0.0,0.0,0.0,0.0,0.0,0.0,0.0,0.0,0.0,0.0,0.0,0.0,0.0,0.0,0.0,0.0,0.0,0.0,0.0,0.0,0.0,0.0,0.0,0.0,0.0,0.0,0.0,0.0,0.0,0.0,0.0,0.0,0.0,0.0,0.0,0.0,0.0,0.0,0.0,0.0,0.0,0.0,0.0,0.0,0.0,0.0,0.0,0.0,0.0,0.0,0.0,0.0,0.0,0.0,0.0,0.0,0.0,0.0,0.0,0.0,0.0,0.0,0.0,0.0,0.0,0.0,0.0,0.0,0.0,0.0,0.0,0.0,0.0,0.0,0.0,0.0,0.0,0.0,0.0,0.0,0.0,0.0,0.0,0.0,0.0,0.0,0.0,0.0,0.0,0.0,0.0,0.0,0.0,0.0,0.0,0.0,0.0,0.0,0.0,0.0,0.0,0.0,0.0,0.0,0.0,0.0,0.0,0.0,0.0,0.0,0.0,0.0,0.0,0.0,0.0,0.0,0.0,0.0,0.0,0.0,0.0,0.0,0.0,0.0,0.0,0.0,0.0,0.0,0.0,0.0,0.0,0.0,0.0,0.0,0.0,0.0,0.0,0.0,0.0,0.0,0.0,0.0,0.0,0.0,0.0,0.0,0.0,0.0,0.0,0.0,0.0,0.0,0.0,0.0,0.0,0.0,0.0,0.0,0.0,0.0,0.0,0.0,0.0,0.0,0.0,0.0,0.0,0.0,0.0,0.0,0.0,0.0,0.0,0.0,0.0,0.0,0.0,0.0,0.0,0.0,0.0,0.0,0.0,0.0,0.0,0.0,0.0,0.0,0.0,0.0,0.0,0.0,0.0,0.0,0.0,0.0,0.0,0.0,0.0,0.0,0.0,0.0,0.0,0.0,0.0,0.0,0.0,0.0,0.0,0.0,0.0,0.0,0.0,0.0,0.0,0.0,0.0,0.0,0.0,0.0,0.0,0.0,0.0,0.0,0.0,0.0,0.0,0.0,0.0,0.0,0.0,0.0,0.0,0.0,0.0,0.0,0.0,0.0,0.0,0.0,0.0,0.0,0.0,0.0,0.0,0.0,0.0,0.0,0.0,0.0,0.0,0.0,0.0,0.0,0.0,0.0,0.0,0.0,0.0,0.0,0.0,0.0,0.0,0.0,0.0,0.0,0.0,0.0,0.0,0.0,0.0,0.0,0.0,0.0,0.0,0.0,0.0,0.0,0.0,0.0,0.0,0.0,0.0,0.0,0.0,0.0,0.0,0.0,0.0,0.0,0.0,0.0,0.0,0.0,0.0,0.0,0.0,0.0,0.0,0.0,0.0,0.0,0.0,0.0,0.0,0.0,0.0,0.0,0.0,0.0,0.0,0.0,0.0,0.0,0.0,0.0,0.0,0.0,0.0,0.0,0.0,0.0,0.0,0.0,0.0,0.0,0.0,0.0,0.0,0.0,0.0,0.0,0.0,0.0,0.0,0.0,0.0,0.0,0.0,0.0,0.0,0.0,0.0,0.0,0.0,0.0,0.0,0.0,0.0,0.0,0.0,0.0,0.0,0.0,0.0,0.0,0.0,0.0,0.0,0.0,0.0,0.0,0.0,0.0,0.0,0.0,0.0,0.0,0.0,0.0,0.0,0.0,0.0,0.0,0.0,0.0,0.0,0.0,0.0,0.0,0.0,0.0,0.0,0.0,0.0,0.0,0.0,0.0,0.0,0.0,0.0,0.0,0.0,0.0,0.0,0.0,0.0,0.0,0.0,0.0,0.0,0.0,0.0,0.0,0.0,0.0,0.0,0.0,0.0,0.0,0.0,0.0,0.0,0.0,0.0,0.0,0.0,0.0,0.0,0.0,0.0,0.0,0.0,0.0,0.0,0.0,0.0,0.0,0.0,0.0,0.0,0.0,0.0,0.0,0.0,0.0,0.0,0.0,0.0,0.0,0.0,0.0,0.0,0.0,0.0,0.0,0.0,0.0,0.0,0.0,0.0,0.0,0.0,0.0,0.0,0.0,0.0,0.0,0.0,0.0,0.0,0.0,0.0,0.0,0.0,0.0,0.0,0.0,0.0,0.0,0.0,0.0,0.0,0.0,0.0,0.0,0.0,0.0,0.0,0.0,0.0,0.0,0.0,0.0,0.0,0.0,0.0,0.0,0.0,0.0,0.0,0.0,0.0,0.0,0.0,0.0,0.0,0.0,0.0,0.0,0.0,0.0,0.0,0.0,0.0,0.0,0.0,0.0,0.0,0.0,0.0,0.0,0.0,0.0,0.0,0.0,0.0,0.0,0.0,0.0,0.0,0.0,0.0,0.0,0.0,0.0,0.0,0.0,0.0,0.0,0.0,0.0,0.0,0.0,0.0,0.0,0.0,0.0,0.0,0.0,0.0,0.0,0.0,0.0,0.0,0.0,0.0,0.0,0.0,0.0,0.0,0.0,0.0,0.0,0.0,0.0,0.0,0.0,0.0,0.0,0.0,0.0,0.0,0.0,0.0,0.0,0.0,0.0,0.0,0.0,0.0,0.0,0.0,0.0,0.0,0.0,0.0,0.0,0.0,0.0,0.0,0.0,0.0,0.0,0.0,0.0,0.0,0.0,0.0,0.0,0.0,0.0,0.0,0.0,0.0,0.0,0.0,0.0,0.0,0.0,0.0,0.0,0.0,0.0,0.0,0.0,0.0,0.0,0.0,0.0,0.0,0.0,0.0,0.0,0.0,0.0,0.0,0.0,0.0,0.0,0.0,0.0,0.0,0.0,0.0,0.0,0.0,0.0,0.0,0.0,0.0,0.0,0.0,0.0,0.0,0.0,0.0,0.0,0.0,0.0,0.0,0.0,0.0,0.0,0.0,0.0,0.0,0.0,0.0,0.0,0.0,0.0,0.0,0.0,0.0,0.0,0.0,0.0,0.0,0.0,0.0,0.0,0.0,0.0,0.0,0.0,0.0,0.0,0.0,0.0,0.0,0.0,0.0,0.0,0.0,0.0,0.0,0.0,0.0,0.0,0.0,0.0,0.0,0.0,0.0,0.0,0.0,0.0,0.0,0.0,0.0,0.0,0.0,0.0,0.0,0.0,0.0,0.0,0.0,0.0,0.0,0.0,0.0,0.0,0.0,0.0,0.0,0.0,0.0,0.0,0.0,0.0,0.0,0.0,0.0,0.0,0.0,0.0,0.0,0.0,0.0,0.0,0.0,0.0,0.0,0.0,0.0,0.0,0.0,0.0,0.0,0.0,0.0,0.0,0.0,0.0,0.0,0.0,0.0,0.0,0.0,0.0,0.0,0.0,0.0,0.0,0.0,0.0,0.0,0.0,0.0,0.0,0.0,0.0,0.0,0.0,0.0,0.0,0.0,0.0,0.0,0.0,0.0,0.0,0.0,0.0,0.0,0.0,0.0,0.0,0.0,0.0,0.0,0.0,0.0,0.0,0.0,0.0,0.0,0.0,0.0,0.0,0.0,0.0,0.0,0.0,0.0,0.0,0.0,0.0,0.0,0.0,0.0,0.0,0.0,0.0,0.0,0.0,0.0,0.0,0.0,0.0,0.0,0.0,0.0,0.0,0.0,0.0,0.0,0.0,0.0,0.0,0.0,0.0,0.0,0.0,0.0,0.0,0.0,0.0,0.0,0.0,0.0,0.0,0.0,0.0,0.0,0.0,0.0,0.0,0.0,0.0,0.0,0.0,0.0,0.0,0.0,0.0,0.0,0.0,0.0,0.0,0.0,0.0,0.0,0.0,0.0,0.0,0.0,0.0,0.0,0.0,0.0,0.0,0.0,0.0,0.0,0.0,0.0,0.0,0.0,0.0,0.0,0.0,0.0,0.0,0.0,0.0,0.0,0.0,0.0,0.0,0.0,0.0,0.0,0.0,0.0,0.0,0.0,0.0,0.0,0.0,0.0,0.0,0.0,0.0,0.0,0.0,0.0,0.0,0.0,0.0,2.3858,0.0,0.0,0.0,0.0,0.0,0.0,0.0,0.0,0.0,0.0,0.0,0.0,0.0,0.0,0.0,0.0,0.0,0.0,0.0,0.0,0.0,0.0,0.0,0.0,0.0,0.0,0.0,0.0,0.0,0.0,0.0,0.0,0.0,0.0,0.0,0.0,0.0,0.0,0.0,0.0,0.0,0.0,0.0,0.0,0.0,0.0,0.0,0.0,0.0,0.0,0.0,0.0,0.0,0.0,0.0,0.0,0.0,0.0,0.0,0.0,0.0,0.0,0.0,0.0,0.0,0.0,0.0,0.0,0.0,0.0,0.0,0.0,0.0,0.0,0.0,0.0,0.0,0.0,0.0,0.0,0.0,0.0,0.0,0.0,0.0,0.0,0.0,0.0,0.0,0.0,0.0,0.0,0.0,0.0,0.0,0.0,0.0,0.0,0.0,0.0,0.0,0.0,0.0,0.0,0.0,0.0,0.0,0.0,0.0,0.0,2.2081,2.2608,2.0527,2.0591,2.3207,0.0,0.0,0.0,0.0,0.0,0.0,0.0,0.0,0.0,0.0,0.0,0.0,0.0,0.0,0.0,0.0,0.0,0.0,0.0,0.0,0.0,0.0,0.0,0.0,0.0,0.0,0.0,0.0,0.0,0.0,0.0,0.0,0.0,0.0,0.0,0.0,0.0,0.0,0.0,0.0,0.0,0.0,0.0,0.0,0.0,0.0,0.0,0.0,0.0,0.0,0.0,0.0,0.0,0.0,0.0,0.0,0.0,0.0,0.0,0.0,0.0,0.0,0.0,0.0,0.0,0.0,0.0,0.0,0.0,0.0,0.0,0.0,0.0,0.0,0.0,0.0,0.0,0.0,0.0,0.0,0.0,0.0,0.0,0.0,0.0,0.0,0.0,0.0,0.0,0.0,0.0,0.0,0.0,0.0,0.0,0.0,0.0,0.0,0.0,0.0,0.0,0.0,0.0,0.0,0.0,0.0,0.0,0.0,0.0,0.0,0.0,0.0,2.0639,2.0629,2.309,0.0,0.0,0.0,0.0,0.0,0.0,0.0,0.0,0.0,0.0,0.0,0.0,0.0,0.0,0.0,0.0,0.0,0.0,0.0,0.0,0.0,0.0,0.0,0.0,0.0,0.0,0.0,0.0,0.0,0.0,0.0,0.0,0.0,0.0,0.0,0.0,0.0,0.0,0.0,0.0,0.0,0.0,0.0,0.0,0.0,0.0,0.0,0.0,0.0,0.0,0.0,0.0,0.0,0.0,0.0,0.0,0.0,0.0,0.0,0.0,0.0,0.0,0.0,0.0,0.0,0.0,0.0,0.0,0.0,0.0,0.0,0.0,0.0,0.0,0.0,0.0,0.0,0.0,0.0,0.0,0.0,0.0,0.0,0.0,0.0,0.0,0.0,0.0,0.0,0.0,0.0,0.0,0.0,0.0,0.0,0.0,0.0,0.0,0.0,0.0,0.0,0.0,0.0,0.0,0.0,0.0,0.0,0.0,0.0,0.0,2.3753,2.3828,2.3577,0.0,2.5858,0.0,0.0,0.0,0.0,0.0,0.0,0.0,0.0,0.0,0.0,0.0,0.0,0.0,0.0,0.0,0.0,0.0,0.0,0.0,0.0,0.0,0.0,0.0,0.0,0.0,0.0,0.0,0.0,0.0,0.0,0.0,0.0,0.0,0.0,0.0,0.0,0.0,0.0,0.0,0.0,0.0,0.0,0.0,0.0,0.0,0.0,0.0,0.0,0.0,0.0,0.0,0.0,0.0,0.0,0.0,0.0,0.0,0.0,0.0,0.0,0.0,0.0,0.0,0.0,0.0,0.0,0.0,0.0,0.0,0.0,0.0,0.0,0.0,0.0,0.0,0.0,0.0,0.0,0.0,0.0,0.0,0.0,0.0,0.0,0.0,0.0,0.0,0.0,0.0,0.0,0.0,0.0,0.0,0.0,0.0,0.0,0.0,0.0,0.0,0.0,0.0,0.0,0.0,0.0,0.0,0.0,0.0,0.0,0.0,0.0,2.315,2.3461,2.3813,2.4879,0.0,0.0,0.0,0.0,0.0,0.0,0.0,0.0,0.0,0.0,0.0,0.0,0.0,0.0,0.0,0.0,0.0,0.0,0.0,0.0,0.0,0.0,0.0,0.0,0.0,0.0,0.0,0.0,0.0,0.0,0.0,0.0,0.0,0.0,0.0,0.0,0.0,0.0,0.0,0.0,0.0,0.0,0.0,0.0,0.0,0.0,0.0,0.0,0.0,0.0,0.0,0.0,0.0,0.0,0.0,0.0,0.0,0.0,0.0,0.0,0.0,0.0,0.0,0.0,0.0,0.0,0.0,0.0,0.0,0.0,0.0,0.0,0.0,0.0,0.0,0.0,0.0,0.0,0.0,0.0,0.0,0.0,0.0,0.0,0.0,0.0,0.0,0.0,0.0,0.0,0.0,0.0,0.0,0.0,0.0,0.0,0.0,0.0,0.0,0.0,0.0,0.0,0.0,0.0,0.0,0.0,0.0,0.0,0.0,0.0,2.302,2.283,2.3361,2.4208,2.5384,2.7028,0.0,0.0,0.0,0.0,0.0,0.0,0.0,0.0,0.0,0.0,0.0,0.0,0.0,0.0,0.0,0.0,0.0,0.0,0.0,0.0,0.0,0.0,0.0,0.0,0.0,0.0,0.0,0.0,0.0,0.0,0.0,0.0,0.0,0.0,0.0,0.0,0.0,0.0,0.0,0.0,0.0,0.0,0.0,0.0,0.0,0.0,0.0,0.0,0.0,0.0,0.0,0.0,0.0,0.0,0.0,0.0,0.0,0.0,0.0,0.0,0.0,0.0,0.0,0.0,0.0,0.0,0.0,0.0,0.0,0.0,0.0,0.0,0.0,0.0,0.0,0.0,0.0,0.0,0.0,0.0,0.0,0.0,0.0,0.0,0.0,0.0,0.0,0.0,0.0,0.0,0.0,0.0,0.0,0.0,0.0,0.0,0.0,0.0,0.0,0.0,0.0,0.0,0.0,0.0,0.0,0.0,0.0,0.0,2.5377,2.408,2.356,2.3954,2.5397,2.639,0.0,0.0,0.0,0.0,0.0,0.0,0.0,0.0,0.0,0.0,0.0,0.0,0.0,0.0,0.0,0.0,0.0,0.0,0.0,0.0,0.0,0.0,0.0,0.0,0.0,0.0,0.0,0.0,0.0,0.0,0.0,0.0,0.0,0.0,0.0,0.0,0.0,0.0,0.0,0.0,0.0,0.0,0.0,0.0,0.0,0.0,0.0,0.0,0.0,0.0,0.0,0.0,0.0,0.0,0.0,0.0,0.0,0.0,0.0,0.0,0.0,0.0,0.0,0.0,0.0,0.0,0.0,0.0,0.0,0.0,0.0,0.0,0.0,0.0,0.0,0.0,0.0,0.0,0.0,0.0,0.0,0.0,0.0,0.0,0.0,0.0,0.0,0.0,0.0,0.0,0.0,0.0,0.0,0.0,0.0,0.0,0.0,0.0,0.0,0.0,0.0,0.0,0.0,0.0,0.0,0.0,0.0,0.0,0.0,2.4682,2.4747,2.4728,2.4566,2.5763,2.7,0.0,0.0,0.0,0.0,0.0,0.0,0.0,0.0,0.0,0.0,0.0,0.0,0.0,0.0,0.0,0.0,0.0,0.0,0.0,0.0,0.0,0.0,0.0,0.0,0.0,0.0,0.0,0.0,0.0,0.0,0.0,0.0,0.0,0.0,0.0,0.0,0.0,0.0,0.0,0.0,0.0,0.0,0.0,0.0,0.0,0.0,0.0,0.0,0.0,0.0,0.0,0.0,0.0,0.0,0.0,0.0,0.0,0.0,0.0,0.0,0.0,0.0,0.0,0.0,0.0,0.0,0.0,0.0,0.0,0.0,0.0,0.0,0.0,0.0,0.0,0.0,0.0,0.0,0.0,0.0,0.0,0.0,0.0,0.0,0.0,0.0,0.0,0.0,0.0,0.0,0.0,0.0,0.0,0.0,0.0,0.0,0.0,0.0,0.0,0.0,0.0,0.0,0.0,0.0,0.0,0.0,0.0,0.0,0.0,2.3926,0.0,2.511,2.4696,2.5836,2.7255,0.0,0.0,0.0,0.0,0.0,0.0,0.0,0.0,0.0,0.0,0.0,0.0,0.0,0.0,0.0,0.0,0.0,0.0,0.0,0.0,0.0,0.0,0.0,0.0,0.0,0.0,0.0,0.0,0.0,0.0,0.0,0.0,0.0,0.0,0.0,0.0,0.0,0.0,0.0,0.0,0.0,0.0,0.0,0.0,0.0,0.0,0.0,0.0,0.0,0.0,0.0,0.0,0.0,0.0,0.0,0.0,0.0,0.0,0.0,0.0,0.0,0.0,0.0,0.0,0.0,0.0,0.0,0.0,0.0,0.0,0.0,0.0,0.0,0.0,0.0,0.0,0.0,0.0,0.0,0.0,0.0,0.0,0.0,0.0,0.0,0.0,0.0,0.0,0.0,0.0,0.0,0.0,0.0,0.0,0.0,0.0,0.0,0.0,0.0,0.0,0.0,0.0,0.0,0.0,0.0,0.0,0.0,0.0,2.4656,2.3405,2.4312,2.4761,2.4386,2.5737,2.7117,0.0,0.0,0.0,0.0,0.0,0.0,0.0,0.0,0.0,0.0,0.0,0.0,0.0,0.0,0.0,0.0,0.0,0.0,0.0,0.0,0.0,0.0,0.0,0.0,0.0,0.0,0.0,0.0,0.0,0.0,0.0,0.0,0.0,0.0,0.0,0.0,0.0,0.0,0.0,0.0,0.0,0.0,0.0,0.0,0.0,0.0,0.0,0.0,0.0,0.0,0.0,0.0,0.0,0.0,0.0,0.0,0.0,0.0,0.0,0.0,0.0,0.0,0.0,0.0,0.0,0.0,0.0,0.0,0.0,0.0,0.0,0.0,0.0,0.0,0.0,0.0,0.0,0.0,0.0,0.0,0.0,0.0,0.0,0.0,0.0,0.0,0.0,0.0,0.0,0.0,0.0,0.0,0.0,0.0,0.0,0.0,0.0,0.0,0.0,0.0,0.0,0.0,0.0,0.0,0.0,0.0,0.0,0.0,0.0,2.5768,2.576,2.5955,2.6346,2.6712,2.7932,0.0,0.0,0.0,0.0,0.0,0.0,0.0,0.0,0.0,0.0,0.0,0.0,0.0,0.0,0.0,0.0,0.0,0.0,0.0,0.0,0.0,0.0,0.0,0.0,0.0,0.0,0.0,0.0,0.0,0.0,0.0,0.0,0.0,0.0,0.0,0.0,0.0,0.0,0.0,0.0,0.0,0.0,0.0,0.0,0.0,0.0,0.0,0.0,0.0,0.0,0.0,0.0,0.0,0.0,0.0,0.0,0.0,0.0,0.0,0.0,0.0,0.0,0.0,0.0,0.0,0.0,0.0,0.0,0.0,0.0,0.0,0.0,0.0,0.0,0.0,0.0,0.0,0.0,0.0,0.0,0.0,0.0,0.0,0.0,0.0,0.0,0.0,0.0,0.0,0.0,0.0,0.0,0.0,0.0,0.0,0.0,0.0,0.0,0.0,0.0,0.0,0.0,0.0,0.0,0.0,0.0,0.0,0.0,0.0,2.8746,2.7859,2.7469,2.7728,2.8367,2.9258,3.0478,0.0,0.0,0.0,0.0,0.0,0.0,0.0,0.0,0.0,0.0,0.0,0.0,0.0,0.0,0.0,0.0,0.0,0.0,0.0,0.0,0.0,0.0,0.0,0.0,0.0,0.0,0.0,0.0,0.0,0.0,0.0,0.0,0.0,0.0,0.0,0.0,0.0,0.0,0.0,0.0,0.0,0.0,0.0,0.0,0.0,0.0,0.0,0.0,0.0,0.0,0.0,0.0,0.0,0.0,0.0,0.0,0.0,0.0,0.0,0.0,0.0,0.0,0.0,0.0,0.0,0.0,0.0,0.0,0.0,0.0,0.0,0.0,0.0,0.0,0.0,0.0,0.0,0.0,0.0,0.0,0.0,0.0,0.0,0.0,0.0,0.0,0.0,0.0,0.0,0.0,0.0,0.0,0.0,0.0,0.0,0.0,0.0,0.0,0.0,0.0,0.0,0.0,0.0,0.0,0.0,0.0,0.0,0.0,3.2312,3.0741,2.9717,2.9135,3.0692,3.1092,0.0,0.0,0.0,0.0,0.0,0.0,0.0,0.0,0.0,0.0,0.0,0.0,0.0,0.0,0.0,0.0,0.0,0.0,0.0,0.0,0.0,0.0,0.0,0.0,0.0,0.0,0.0,0.0,0.0,0.0,0.0,0.0,0.0,0.0,0.0,0.0,0.0,0.0,0.0,0.0,0.0,0.0,0.0,0.0,0.0,0.0,0.0,0.0,0.0,0.0,0.0,0.0,0.0,0.0,0.0,0.0,0.0,0.0,0.0,0.0,0.0,0.0,0.0,0.0,0.0,0.0,0.0,0.0,0.0,0.0,0.0,0.0,0.0,0.0,0.0,0.0,0.0,0.0,0.0,0.0,0.0,0.0,0.0,0.0,0.0,0.0,0.0,0.0,0.0,0.0,0.0,0.0,0.0,0.0,0.0,0.0,0.0,0.0,0.0,0.0,0.0,0.0,0.0,0.0,0.0,0.0,0.0,0.0,0.0,3.5268,3.7277,3.7392,3.5343,3.3926,3.3533,0.0,0.0,0.0,0.0,0.0,0.0,0.0,0.0,0.0,0.0,0.0,0.0,0.0,0.0,0.0,0.0,0.0,0.0,0.0,0.0,0.0,0.0,0.0,0.0,0.0,0.0,0.0,0.0,0.0,0.0,0.0,0.0,0.0,0.0,0.0,0.0,0.0,0.0,0.0,0.0,0.0,0.0,0.0,0.0,0.0,0.0,0.0,0.0,0.0,0.0,0.0,0.0,0.0,0.0,0.0,0.0,0.0,0.0,0.0,0.0,0.0,0.0,0.0,0.0,0.0,0.0,0.0,0.0,0.0,0.0,0.0,0.0,0.0,0.0,0.0,0.0,0.0,0.0,0.0,0.0,0.0,0.0,0.0,0.0,0.0,0.0,0.0,0.0,0.0,0.0,0.0,0.0,0.0,0.0,0.0,0.0,0.0,0.0,0.0,0.0,0.0,0.0,0.0,0.0,0.0,0.0,0.0,0.0,3.6118,3.7193,4.1573,4.3246,4.1912,3.8868,3.6552,0.0,0.0,0.0,0.0,0.0,0.0,0.0,0.0,0.0,0.0,0.0,0.0,0.0,0.0,0.0,0.0,0.0,0.0,0.0,0.0,0.0,0.0,0.0,0.0,0.0,0.0,0.0,0.0,0.0,0.0,0.0,0.0,0.0,0.0,0.0,0.0,0.0,0.0,0.0,0.0,0.0,0.0,0.0,0.0,0.0,0.0,0.0,0.0,0.0,0.0,0.0,0.0,0.0,0.0,0.0,0.0,0.0,0.0,0.0,0.0,0.0,0.0,0.0,0.0,0.0,0.0,0.0,0.0,0.0,0.0,0.0,0.0,0.0,0.0,0.0,0.0,0.0,0.0,0.0,0.0,0.0,0.0,0.0,0.0,0.0,0.0,0.0,0.0,0.0,0.0,0.0,0.0,0.0,0.0,0.0,0.0,0.0,0.0,0.0,0.0,0.0,0.0,0.0,0.0,0.0,0.0,0.0,0.0,3.8617,3.9005,4.4406,4.7458,4.7642,4.4001,3.9779,0.0,0.0,0.0,0.0,0.0,0.0,0.0,0.0,0.0,0.0,0.0,0.0,0.0,0.0,0.0,0.0,0.0,0.0,0.0,0.0,0.0,0.0,0.0,0.0,0.0,0.0,0.0,0.0,0.0,0.0,0.0,0.0,0.0,0.0,0.0,0.0,0.0,0.0,0.0,0.0,0.0,0.0,0.0,0.0,0.0,0.0,0.0,0.0,0.0,0.0,0.0,0.0,0.0,0.0,0.0,0.0,0.0,0.0,0.0,0.0,0.0,0.0,0.0,0.0,0.0,0.0,0.0,0.0,0.0,0.0,0.0,0.0,0.0,0.0,0.0,0.0,0.0,0.0,0.0,0.0,0.0,0.0,0.0,0.0,0.0,0.0,0.0,0.0,0.0,0.0,0.0,0.0,0.0,0.0,0.0,0.0,0.0,0.0,0.0,0.0,0.0,0.0,0.0,0.0,0.0,0.0,0.0,0.0,4.0852,4.3692,4.7323,4.8927,4.8318,4.4409,4.1972,0.0,0.0,0.0,0.0,0.0,0.0,0.0,0.0,0.0,0.0,0.0,0.0,0.0,0.0,0.0,0.0,0.0,0.0,0.0,0.0,0.0,0.0,0.0,0.0,0.0,0.0,0.0,0.0,0.0,0.0,0.0,0.0,0.0,0.0,0.0,0.0,0.0,0.0,0.0,0.0,0.0,0.0,0.0,0.0,0.0,0.0,0.0,0.0,3.4324,0.0,0.0,0.0,0.0,0.0,0.0,0.0,0.0,0.0,0.0,0.0,0.0,0.0,0.0,0.0,0.0,0.0,0.0,0.0,0.0,0.0,0.0,0.0,0.0,0.0,0.0,0.0,0.0,0.0,0.0,0.0,0.0,0.0,0.0,0.0,0.0,0.0,0.0,0.0,0.0,0.0,0.0,0.0,0.0,0.0,0.0,0.0,0.0,0.0,0.0,0.0,0.0,0.0,0.0,0.0,0.0,0.0,0.0,0.0,4.3166,4.6494,4.9789,5.142,5.1196,4.7543,4.4616,0.0,0.0,0.0,0.0,0.0,0.0,0.0,0.0,0.0,0.0,0.0,0.0,0.0,0.0,0.0,0.0,0.0,0.0,0.0,0.0,0.0,0.0,0.0,0.0,0.0,0.0,0.0,0.0,0.0,0.0,0.0,0.0,0.0,0.0,0.0,0.0,0.0,0.0,0.0,0.0,0.0,0.0,0.0,0.0,0.0,0.0,0.0,0.0,0.0,0.0,0.0,0.0,0.0,0.0,0.0,0.0,0.0,0.0,0.0,0.0,0.0,0.0,0.0,0.0,0.0,0.0,0.0,0.0,0.0,0.0,0.0,0.0,0.0,0.0,0.0,0.0,0.0,0.0,0.0,0.0,0.0,0.0,0.0,0.0,0.0,0.0,0.0,0.0,0.0,0.0,0.0,0.0,0.0,0.0,0.0,0.0,0.0,0.0,0.0,0.0,0.0,0.0,0.0,0.0,0.0,0.0,0.0,4.1573,4.5321,4.8989,5.2111,5.4026,5.4552,5.0895,4.7001,4.3168,0.0,0.0,0.0,0.0,0.0,0.0,0.0,0.0,0.0,0.0,0.0,0.0,0.0,0.0,0.0,0.0,0.0,0.0,0.0,0.0,0.0,0.0,0.0,0.0,0.0,0.0,0.0,0.0,0.0,0.0,0.0,0.0,0.0,0.0,0.0,0.0,0.0,0.0,3.1065,3.3168,0.0,0.0,0.0,0.0,0.0,0.0,0.0,0.0,3.4889,0.0,0.0,0.0,0.0,0.0,0.0,0.0,0.0,0.0,0.0,0.0,0.0,0.0,0.0,0.0,0.0,0.0,0.0,0.0,0.0,0.0,0.0,0.0,0.0,0.0,0.0,0.0,0.0,0.0,0.0,0.0,0.0,0.0,0.0,0.0,0.0,0.0,0.0,0.0,0.0,0.0,0.0,0.0,0.0,0.0,0.0,0.0,0.0,0.0,0.0,0.0,0.0,0.0,0.0,0.0,0.0,4.1567,4.2868,4.6706,5.3169,5.4531,5.5159,5.506,5.0611,4.7776,4.6949,0.0,0.0,0.0,0.0,0.0,0.0,0.0,0.0,0.0,0.0,0.0,0.0,0.0,0.0,0.0,0.0,0.0,0.0,0.0,0.0,0.0,0.0,0.0,0.0,0.0,0.0,0.0,0.0,0.0,0.0,0.0,0.0,0.0,0.0,0.0,0.0,0.0,0.0,0.0,3.4589,3.5204,0.0,0.0,0.0,0.0,0.0,0.0,0.0,0.0,3.5872,0.0,0.0,0.0,0.0,0.0,0.0,0.0,0.0,0.0,0.0,0.0,0.0,0.0,0.0,0.0,0.0,0.0,0.0,0.0,0.0,0.0,0.0,0.0,0.0,0.0,0.0,0.0,0.0,0.0,0.0,0.0,0.0,0.0,0.0,0.0,0.0,0.0,0.0,0.0,0.0,0.0,0.0,0.0,0.0,0.0,0.0,0.0,0.0,0.0,0.0,0.0,0.0,0.0,0.0,0.0,4.3914,4.6625,5.0928,5.6899,5.7122,5.7408,5.7894,5.2576,4.9636,0.0,0.0,0.0,0.0,0.0,0.0,0.0,0.0,0.0,0.0,0.0,0.0,0.0,0.0,0.0,0.0,0.0,0.0,0.0,0.0,0.0,0.0,0.0,0.0,0.0,0.0,0.0,0.0,0.0,0.0,0.0,0.0,0.0,0.0,0.0,0.0,0.0,0.0,0.0,0.0,3.5634,3.6593,3.6905,0.0,0.0,0.0,0.0,0.0,0.0,3.7099,3.7032,0.0,0.0,0.0,0.0,0.0,0.0,0.0,0.0,0.0,0.0,0.0,0.0,0.0,0.0,0.0,0.0,0.0,0.0,0.0,0.0,0.0,0.0,0.0,0.0,0.0,0.0,0.0,0.0,0.0,0.0,0.0,0.0,0.0,0.0,0.0,0.0,0.0,0.0,0.0,0.0,0.0,0.0,0.0,0.0,0.0,0.0,0.0,0.0,0.0,0.0,0.0,0.0,0.0,0.0,0.0,4.5951,5.0205,5.4825,5.9588,5.9315,5.9527,6.0447,5.4168,5.0852,0.0,0.0,0.0,0.0,0.0,0.0,0.0,0.0,0.0,0.0,0.0,0.0,0.0,0.0,0.0,0.0,0.0,0.0,0.0,0.0,0.0,0.0,0.0,0.0,0.0,0.0,0.0,0.0,0.0,0.0,0.0,0.0,0.0,0.0,0.0,0.0,0.0,0.0,0.0,0.0,0.0,3.8074,3.7831,3.7758,0.0,0.0,0.0,0.0,3.797,3.8708,0.0,0.0,0.0,0.0,0.0,0.0,0.0,0.0,0.0,0.0,0.0,0.0,0.0,0.0,0.0,0.0,0.0,0.0,0.0,0.0,0.0,0.0,0.0,0.0,0.0,0.0,0.0,0.0,0.0,0.0,0.0,0.0,0.0,0.0,0.0,0.0,0.0,0.0,0.0,0.0,0.0,0.0,0.0,0.0,0.0,0.0,0.0,0.0,0.0,0.0,0.0,0.0,0.0,0.0,0.0,0.0,4.717,5.1523,5.5957,6.0229,6.0404,6.0456,6.0494,5.3226,4.9877,0.0,0.0,0.0,0.0,0.0,0.0,0.0,0.0,0.0,0.0,0.0,0.0,0.0,0.0,0.0,0.0,0.0,0.0,0.0,0.0,0.0,0.0,0.0,0.0,0.0,0.0,0.0,0.0,0.0,0.0,0.0,0.0,0.0,0.0,0.0,0.0,0.0,0.0,0.0,0.0,0.0,3.9236,3.9182,3.9647,3.9563,0.0,0.0,0.0,4.0856,4.2594,0.0,0.0,0.0,0.0,0.0,0.0,0.0,0.0,0.0,0.0,0.0,0.0,0.0,0.0,0.0,0.0,0.0,0.0,0.0,0.0,0.0,0.0,0.0,0.0,0.0,0.0,0.0,0.0,0.0,0.0,0.0,0.0,0.0,0.0,0.0,0.0,0.0,0.0,0.0,0.0,0.0,0.0,0.0,0.0,0.0,0.0,0.0,0.0,0.0,0.0,0.0,0.0,0.0,0.0,0.0,4.5626,4.852,5.4603,5.931,6.239,6.2116,6.1533,6.0706,5.3482,4.9936,0.0,0.0,0.0,0.0,0.0,0.0,0.0,0.0,0.0,0.0,0.0,0.0,0.0,0.0,0.0,0.0,0.0,0.0,0.0,0.0,0.0,0.0,0.0,0.0,0.0,0.0,0.0,0.0,0.0,0.0,0.0,0.0,0.0,0.0,0.0,0.0,0.0,0.0,0.0,0.0,0.0,0.0,4.0221,4.1262,0.0,0.0,0.0,4.2641,4.3178,0.0,0.0,0.0,0.0,0.0,0.0,0.0,0.0,0.0,0.0,0.0,0.0,0.0,0.0,0.0,0.0,0.0,0.0,0.0,0.0,0.0,0.0,0.0,0.0,0.0,0.0,0.0,0.0,0.0,0.0,0.0,0.0,0.0,0.0,0.0,0.0,0.0,0.0,0.0,0.0,0.0,0.0,0.0,0.0,0.0,0.0,0.0,0.0,0.0,0.0,0.0,0.0,0.0,0.0,0.0,0.0,0.0,4.978,5.7299,6.216,6.3903,6.3084,6.2048,6.072,5.4179,0.0,0.0,0.0,0.0,0.0,0.0,0.0,0.0,0.0,0.0,0.0,0.0,0.0,0.0,0.0,0.0,0.0,0.0,0.0,0.0,0.0,0.0,0.0,0.0,0.0,0.0,0.0,0.0,0.0,0.0,0.0,0.0,0.0,0.0,0.0,0.0,0.0,0.0,0.0,0.0,0.0,0.0,4.2376,4.1352,4.3169,4.4564,0.0,0.0,4.5221,4.5547,4.6822,4.6553,0.0,0.0,0.0,0.0,0.0,0.0,0.0,0.0,0.0,0.0,0.0,0.0,0.0,0.0,0.0,0.0,0.0,0.0,0.0,0.0,0.0,0.0,0.0,0.0,0.0,0.0,0.0,0.0,0.0,0.0,0.0,0.0,0.0,0.0,0.0,0.0,0.0,0.0,0.0,0.0,0.0,0.0,0.0,0.0,0.0,0.0,0.0,0.0,0.0,0.0,0.0,0.0,0.0,0.0,0.0,5.1172,5.8726,6.3135,6.3903,6.2599,6.153,6.072,5.5118,5.175,0.0,0.0,0.0,0.0,0.0,0.0,0.0,0.0,0.0,0.0,0.0,0.0,0.0,0.0,0.0,0.0,0.0,0.0,0.0,0.0,0.0,0.0,0.0,0.0,0.0,0.0,0.0,0.0,0.0,0.0,0.0,0.0,0.0,0.0,0.0,0.0,0.0,0.0,0.0,0.0,0.0,4.3421,4.266,4.5671,4.8199,0.0,0.0,4.8745,4.8155,5.1152,5.1086,4.3638,0.0,0.0,0.0,0.0,0.0,0.0,0.0,0.0,0.0,0.0,0.0,0.0,0.0,0.0,0.0,0.0,0.0,0.0,0.0,0.0,0.0,0.0,0.0,0.0,0.0,0.0,0.0,0.0,0.0,0.0,0.0,0.0,0.0,0.0,0.0,0.0,0.0,0.0,0.0,0.0,0.0,0.0,0.0,0.0,0.0,0.0,0.0,0.0,0.0,0.0,0.0,0.0,0.0,5.1446,5.212,5.9189,6.3246,6.3926,6.302,6.1951,6.0818,5.5668,5.2119,0.0,0.0,0.0,0.0,0.0,0.0,0.0,0.0,0.0,0.0,0.0,0.0,0.0,0.0,0.0,0.0,0.0,0.0,0.0,0.0,0.0,0.0,0.0,0.0,0.0,0.0,0.0,0.0,3.5269,3.5375,3.5579,0.0,0.0,0.0,0.0,0.0,0.0,0.0,0.0,0.0,0.0,4.6351,4.7392,5.0077,0.0,0.0,5.1702,5.1462,5.078,5.1289,5.0009,4.4996,4.4038,0.0,0.0,0.0,0.0,0.0,0.0,0.0,0.0,0.0,0.0,0.0,0.0,0.0,0.0,0.0,0.0,0.0,0.0,0.0,0.0,0.0,0.0,0.0,0.0,0.0,0.0,0.0,0.0,0.0,0.0,0.0,0.0,0.0,0.0,0.0,0.0,0.0,0.0,0.0,0.0,0.0,0.0,0.0,0.0,0.0,0.0,0.0,0.0,0.0,0.0,0.0,0.0,5.2748,5.3216,5.9796,6.357,6.4259,6.3376,6.2242,6.0753,5.677,5.3499,0.0,0.0,0.0,0.0,0.0,0.0,0.0,0.0,0.0,0.0,0.0,0.0,0.0,0.0,0.0,0.0,0.0,0.0,0.0,0.0,0.0,0.0,0.0,0.0,0.0,0.0,0.0,0.0,3.6273,3.6364,3.5892,0.0,0.0,0.0,0.0,0.0,0.0,0.0,0.0,0.0,0.0,4.8774,5.0129,5.234,5.3816,5.3549,5.3182,5.2737,5.2309,5.1412,4.9569,4.5915,0.0,0.0,0.0,0.0,0.0,0.0,0.0,0.0,0.0,0.0,0.0,0.0,0.0,0.0,0.0,0.0,0.0,0.0,0.0,0.0,0.0,0.0,0.0,0.0,0.0,0.0,0.0,0.0,0.0,0.0,0.0,0.0,0.0,0.0,0.0,0.0,0.0,0.0,0.0,0.0,0.0,0.0,0.0,0.0,0.0,0.0,0.0,0.0,0.0,0.0,0.0,0.0,0.0,0.0,5.4612,6.0741,6.4259,6.4906,6.3635,6.221,6.0818,5.8669,5.6122,5.3252,0.0,0.0,0.0,0.0,0.0,0.0,0.0,0.0,0.0,0.0,0.0,0.0,0.0,0.0,0.0,0.0,0.0,0.0,0.0,0.0,0.0,0.0,0.0,0.0,0.0,0.0,3.4988,3.631,3.6972,0.0,0.0,0.0,0.0,0.0,0.0,0.0,0.0,0.0,0.0,4.6661,5.0384,4.9798,5.1733,5.3579,5.4243,5.3131,5.2246,5.2299,5.2177,5.0612,0.0,0.0,0.0,0.0,0.0,0.0,0.0,0.0,0.0,0.0,0.0,0.0,0.0,0.0,0.0,0.0,0.0,0.0,0.0,0.0,0.0,0.0,0.0,0.0,0.0,0.0,0.0,0.0,0.0,0.0,0.0,0.0,0.0,0.0,0.0,0.0,0.0,0.0,0.0,0.0,4.143,4.2584,0.0,0.0,0.0,0.0,0.0,0.0,0.0,0.0,0.0,0.0,0.0,0.0,5.4454,5.6034,6.1223,6.4097,6.4291,6.3408,6.221,6.0818,5.9144,5.6478,5.2689,0.0,0.0,0.0,0.0,0.0,0.0,0.0,0.0,0.0,0.0,0.0,0.0,0.0,0.0,0.0,0.0,0.0,0.0,0.0,0.0,0.0,0.0,0.0,0.0,0.0,3.6471,0.0,0.0,0.0,0.0,0.0,0.0,0.0,0.0,0.0,0.0,0.0,4.3,4.6351,4.9221,5.1239,5.1908,5.4159,5.5881,0.0,0.0,0.0,0.0,0.0,0.0,0.0,0.0,0.0,0.0,0.0,0.0,0.0,0.0,5.0124,4.6891,4.8408,5.0071,4.9727,0.0,0.0,0.0,0.0,0.0,0.0,0.0,0.0,0.0,0.0,0.0,0.0,0.0,0.0,0.0,0.0,3.7024,0.0,0.0,0.0,0.0,0.0,0.0,0.0,0.0,4.3138,4.5456,4.6256,4.7435,4.8153,0.0,4.7525,4.4769,0.0,0.0,0.0,0.0,0.0,0.0,0.0,0.0,5.5604,5.6693,6.1443,6.4097,6.4291,6.3667,6.2728,6.153,5.963,5.704,5.379,5.1394,4.9439,0.0,0.0,0.0,0.0,0.0,0.0,0.0,0.0,0.0,0.0,0.0,0.0,0.0,0.0,0.0,0.0,0.0,0.0,0.0,0.0,0.0,0.0,0.0,3.8121,0.0,0.0,0.0,0.0,0.0,0.0,0.0,0.0,0.0,4.3136,4.4338,4.6685,5.0782,5.2068,5.2833,5.3506,0.0,0.0,0.0,0.0,0.0,0.0,0.0,5.0953,4.9642,5.0444,5.1735,5.3126,5.4898,5.5986,5.5527,0.0,0.0,5.1304,5.2595,5.4381,5.4092,5.402,5.3954,5.3886,5.4031,5.4624,0.0,0.0,0.0,0.0,0.0,0.0,0.0,0.0,3.898,3.9295,0.0,0.0,0.0,0.0,0.0,0.0,0.0,0.0,0.0,0.0,4.866,5.0778,4.9949,5.1002,5.1241,0.0,5.1007,5.0431,4.9281,4.7184,0.0,0.0,0.0,0.0,0.0,0.0,5.651,5.6834,6.1562,6.4324,6.4906,6.4324,6.3635,6.2848,6.0051,5.7914,5.6543,5.379,5.2036,5.1475,4.9337,0.0,0.0,0.0,0.0,0.0,0.0,0.0,0.0,0.0,0.0,0.0,0.0,0.0,0.0,0.0,0.0,0.0,0.0,0.0,0.0,3.9131,0.0,0.0,0.0,0.0,0.0,0.0,0.0,0.0,0.0,0.0,4.5513,4.7852,5.0925,5.4148,0.0,0.0,0.0,0.0,5.3882,5.2827,5.2536,5.2683,5.2809,5.439,5.5206,5.4011,0.0,0.0,5.865,5.8477,5.812,5.6836,6.0507,6.2274,5.8364,5.6768,5.6311,5.7323,5.6835,5.6079,5.6776,5.7211,5.7179,4.9197,0.0,0.0,0.0,0.0,4.2823,4.3921,4.464,4.4596,4.4146,4.3371,4.1762,0.0,0.0,0.0,0.0,0.0,0.0,4.7598,4.9686,5.4117,5.672,5.7801,5.8933,5.9447,5.9315,5.835,5.7462,5.6606,5.4992,5.2156,4.8282,0.0,0.0,0.0,0.0,5.6996,5.9587,6.2964,6.4583,6.4291,6.4097,6.3635,6.2913,5.9619,5.7935,5.7979,5.5713,5.4196,5.3539,5.1447,0.0,0.0,0.0,0.0,0.0,0.0,0.0,0.0,0.0,0.0,0.0,0.0,0.0,0.0,0.0,0.0,0.0,0.0,0.0,4.0013,4.1015,4.1167,0.0,0.0,0.0,0.0,0.0,0.0,0.0,0.0,0.0,5.3091,5.223,5.2447,0.0,0.0,5.3798,5.3682,5.492,5.6036,5.6616,0.0,0.0,0.0,5.8732,5.8548,5.8715,6.1351,6.3539,6.3973,6.4704,6.5321,6.5383,6.6437,6.7121,6.7017,6.5816,6.4855,6.4793,6.5165,6.553,6.5452,6.5735,6.6416,5.735,5.1475,4.8697,4.7445,4.738,4.8452,4.9337,5.0022,4.9175,4.8489,4.785,4.5797,4.39,4.2305,4.2819,0.0,0.0,0.0,5.263,5.5014,5.9044,6.1655,6.3122,6.4393,6.5019,6.493,6.357,6.2663,6.221,5.9652,5.7043,0.0,0.0,0.0,5.4535,5.6781,5.8982,6.1206,6.3968,6.5101,6.4388,6.4129,6.3667,6.2858,6.0808,5.9619,5.9468,5.7417,5.596,5.5215,5.2883,5.1167,0.0,0.0,0.0,0.0,0.0,0.0,0.0,0.0,0.0,0.0,0.0,3.9615,0.0,0.0,0.0,0.0,4.0715,4.1331,4.1989,4.2478,0.0,0.0,0.0,0.0,0.0,0.0,0.0,4.7013,5.1577,5.5721,5.7951,5.7279,5.7275,5.9376,5.817,5.7205,5.7536,0.0,5.9293,6.0129,6.0654,6.1339,6.2434,6.2652,6.3117,6.4412,6.618,6.7606,6.8093,6.9158,7.0106,7.0553,7.0729,7.1058,7.191,7.1531,7.0822,6.9882,7.0297,7.0762,7.0642,7.1153,7.1854,6.4953,6.3211,5.6839,5.4204,5.4168,5.4085,5.4558,5.5177,5.3142,5.2428,5.2531,5.0159,4.885,4.85,4.8835,0.0,0.0,5.5014,5.7802,5.9695,6.357,6.5716,6.6485,6.778,6.8363,6.8331,6.7068,6.642,6.6161,6.2404,6.0979,6.1831,5.8777,5.7061,5.7029,6.0073,6.1821,6.2016,6.4639,6.5683,6.5004,6.4291,6.3635,6.302,6.2825,6.2136,6.0882,5.8745,5.7276,5.6446,5.3875,5.23,5.2041,0.0,0.0,0.0,0.0,0.0,0.0,0.0,0.0,0.0,0.0,0.0,0.0,0.0,0.0,0.0,4.2901,0.0,4.4037,4.4217,0.0,0.0,0.0,4.8186,5.0016,5.1881,5.3608,5.4932,0.0,0.0,0.0,0.0,6.4121,6.6258,6.4423,6.3196,6.397,6.3421,6.3196,6.3227,6.3408,6.3797,6.4859,6.6331,6.8072,6.9762,7.0873,7.1005,7.114,7.1862,7.2627,7.286,7.3432,7.3884,7.3944,7.4307,7.4423,7.2946,7.2708,7.2854,7.328,7.3483,7.382,7.1067,7.0105,6.846,6.4722,6.0027,6.0882,6.0764,5.9827,5.8826,5.6944,5.4515,5.3639,5.3304,5.3477,5.4545,5.6482,5.9162,6.1186,6.354,6.5973,6.7544,6.8655,6.9399,6.9723,6.9885,6.9853,6.9561,6.9076,6.8493,6.7546,6.5805,6.3547,6.3126,6.1919,5.9878,6.0623,6.1854,6.3473,6.4647,6.5165,6.4971,6.3797,6.3344,6.3732,6.2145,6.1368,6.1498,5.8993,5.7276,5.651,5.4826,5.311,5.1491,5.0778,0.0,0.0,0.0,0.0,0.0,0.0,0.0,0.0,0.0,4.1479,4.1182,0.0,4.3151,0.0,4.6027,4.8373,5.0079,4.9958,0.0,0.0,5.0381,5.1092,5.1949,5.5573,5.7739,5.6897,6.0692,6.3773,6.4729,6.6064,6.7715,6.973,6.641,6.3972,6.4656,6.5594,6.6159,6.6331,6.7489,6.8849,6.9406,7.05,7.131,7.1925,7.2099,7.2337,7.2881,7.2993,7.3348,7.4349,7.4566,7.4772,7.5224,7.5451,7.5541,7.5384,7.5179,7.5035,7.5179,7.5378,7.5642,7.3804,7.3447,7.3447,7.0952,6.7135,6.7103,6.6246,6.4795,6.3459,6.1585,5.9424,5.8975,5.8838,5.9112,6.0456,6.2041,6.3854,6.5556,6.7365,6.9205,7.0241,7.1083,7.1828,7.212,7.2282,7.2249,7.1958,7.144,7.0727,7.0403,6.9076,6.6906,6.7205,6.6161,6.37,6.2372,6.2631,6.4421,6.4809,6.5165,6.5392,6.3797,6.2923,6.2932,6.0332,5.9036,5.9425,5.6726,5.515,5.5053,5.4017,5.2903,5.1704,5.1038,4.9167,0.0,0.0,0.0,0.0,0.0,0.0,0.0,0.0,0.0,0.0,0.0,4.6186,0.0,0.0,0.0,5.2232,5.2627,5.3127,5.3624,5.4905,5.63,5.7841,6.1164,6.3186,6.2849,6.5756,6.7978,6.8417,6.9432,7.0533,7.1731,6.9503,6.7917,6.8306,6.9076,6.9561,6.9626,7.0565,7.144,7.1861,7.2217,7.2508,7.2508,7.2508,7.2735,7.3474,7.3727,7.4107,7.5204,7.566,7.5983,7.6342,7.6406,7.6492,7.6609,7.6439,7.6267,7.6239,7.6414,7.6528,7.5002,7.5002,7.4905,7.4543,7.3906,7.249,7.0891,6.9104,6.7292,6.6059,6.5369,6.4732,6.4632,6.4941,6.6243,6.6887,6.7172,6.8978,7.0267,7.0986,7.2217,7.3091,7.3766,7.4349,7.4581,7.4548,7.3998,7.335,7.2638,7.2087,7.131,7.0306,7.0338,6.9335,6.719,6.463,6.3829,6.4842,6.5036,6.5392,6.5934,6.3764,6.2242,6.1281,5.813,5.6316,5.6154,5.3628,5.2462,5.2961,5.2411,5.2139,5.23,5.1264,4.9903,0.0,4.7001,0.0,0.0,0.0,0.0,0.0,0.0,0.0,0.0,4.82,4.9835,5.2111,5.4072,5.4779,5.3689,5.4672,5.6036,5.7623,5.9799,6.2294,6.5029,6.6985,6.8505,6.9558,7.0562,7.1252,7.1419,7.212,7.2476,7.2443,7.2249,7.1958,7.2346,7.2249,7.2217,7.2508,7.2508,7.2346,7.2411,7.2476,7.2508,7.2508,7.2508,7.2826,7.369,7.4274,7.4927,7.5793,7.6637,7.7195,7.7255,7.7227,7.7227,7.7227,7.7032,7.6896,7.6839,7.6811,7.6839,7.7204,7.7139,7.6621,7.6297,7.6168,7.587,7.3522,6.9926,7.0103,6.9736,6.9038,6.8457,6.8845,7.0008,7.0873,7.1625,7.2184,7.26,7.3183,7.3831,7.4063,7.4257,7.4387,7.4543,7.4581,7.4581,7.4451,7.4063,7.341,7.3804,7.2443,6.9587,7.0112,6.9335,0.0,0.0,0.0,0.0,6.5319,6.5651,6.5133,6.2566,6.0558,5.9187,5.6878,0.0,5.4762,5.311,5.2028,5.1607,5.1477,0.0,0.0,0.0,0.0,0.0,0.0,0.0,0.0,0.0,0.0,0.0,5.1834,5.1448,5.0857,5.1544,5.3413,5.6619,5.6393,5.7525,6.1136,6.0751,6.135,6.4043,6.4984,6.6186,6.8064,6.9339,7.0236,7.0685,7.1408,7.1988,7.2228,7.2443,7.2508,7.2508,7.2508,7.2508,7.2508,7.2508,7.2508,7.2508,7.2508,7.2508,7.2508,7.2508,7.2508,7.2508,7.2508,7.3101,7.4394,7.4865,7.5565,7.6839,7.7401,7.7527,7.7527,7.7527,7.7555,7.7527,7.7472,7.7361,7.7172,7.7116,7.7199,7.8337,0.0,7.7593,7.7107,0.0,0.0,7.4753,7.2339,7.2719,7.2494,7.1825,7.1852,7.2289,7.2994,7.3383,7.3739,7.4122,7.4122,7.4451,7.5131,7.5131,7.5326,7.5682,7.5682,7.5682,7.5682,7.5682,7.5099,7.4155,7.4446,7.3345,7.0889,7.1245,7.0889,6.982,6.9108,6.7683,6.561,6.629,6.6452,6.6031,6.3667,6.1854,6.0666,0.0,0.0,0.0,0.0,0.0,0.0,0.0,0.0,0.0,0.0,0.0,5.4822,5.4666,5.4914,5.5487,5.5548,5.6354,5.8214,5.8851,5.7988,5.5332,5.6957,5.8938,6.0827,6.0572,6.1471,6.4214,6.4684,6.5381,6.6902,6.7986,6.8984,6.9921,7.0786,7.1451,7.1724,7.2068,7.2348,7.2482,7.2508,7.2508,7.2508,7.2508,7.2508,7.2508,7.2508,7.2508,7.2508,7.2508,7.2508,7.2508,7.2508,7.2562,7.2668,7.2721,7.325,7.4526,7.5171,7.5894,7.7079,7.7816,7.8236,7.8236,7.8236,7.8236,7.8236,7.8128,7.8074,7.7992,7.7692,7.7449,7.9082,7.9017,7.8305,7.7593,7.6912,7.633,7.5649,7.4969,0.0,0.0,0.0,7.4641,7.4872,7.4969,7.4969,7.4969,7.4969,7.4969,7.5326,7.5909,7.5881,7.6232,7.6783,7.6815,7.6815,7.6815,7.6815,7.6103,7.4808,7.4678,7.3933,7.28,7.2573,7.2573,7.2638,7.199,7.0403,6.8039,6.7553,6.723,6.6971,6.4898,6.3344,6.2363,5.868,5.6855,5.7158,5.5507,5.5118,5.6219,5.6316,5.6543,5.7029,5.7191,5.6943,5.6298,5.6445,5.7452,5.9486,5.9783,6.1159,6.4171,6.4894,6.3631,5.9795,6.2153,6.3923,6.4091,6.4551,6.5154,6.5952,6.7239,6.8224,6.85,6.9798,7.0776,7.1236,7.1773,7.2235,7.2455,7.2476,7.2508,7.2508,7.2508,7.2508,7.2508,7.2508,7.2508,7.2508,7.2508,7.2508,7.2508,7.2508,7.2535,7.2588,7.2615,7.2688,7.3005,7.3031,7.3423,7.4425,7.5279,7.6129,7.7133,7.81,7.8676,7.8922,7.8962,7.8988,7.8988,7.883,7.875,7.8883,7.8424,7.7992,7.9856,7.9792,7.905,7.8337,7.7657,7.756,7.7139,7.6394,7.5131,7.5261,7.6297,7.5779,7.5909,7.6491,7.6491,7.6491,7.6491,7.6491,7.6556,0.0,7.6653,7.6686,7.6815,7.6815,7.6815,7.6815,7.6815,7.6394,7.5552,7.4905,7.4192,7.3474,7.28,7.28,7.3345,7.2703,7.1861,7.0824,6.9011,6.7456,6.6258,6.4153,6.2113,6.018,5.8486,5.6888,5.5713,5.5518,5.5324,5.5571,5.5551,5.6652,5.9079,5.9878,6.1084,6.3095,6.3805,6.4142,6.3995,6.4229,6.4683,6.5418,6.6127,6.5635,6.3723,6.4434,6.5073,6.5155,6.577,6.6671,6.7886,6.8328,6.9067,7.031,7.0776,7.1295,7.211,7.2331,7.2455,7.2508,7.2508,7.2508,7.2508,7.2508,7.2508,7.2508,7.2508,7.2508,7.2508,7.2508,7.2508,7.2508,7.2508,7.2615,7.2774,7.2853,7.3031,7.3525,7.3577,7.3954,7.5076,7.556,7.6261,7.7751,7.8188,7.86,7.9169,7.9336,7.9336,7.9362,7.9277,7.931,7.9362,7.9206,7.9101,8.054,8.0442,7.9792,7.9306,7.892,7.8143,7.7431,7.6751,7.6103,7.6168,7.6718,7.6459,7.6491,7.6783,7.6815,7.6815,7.6815,7.6815,7.6815,7.6815,7.6815,7.6815,7.6815,7.6815,7.6815,7.6815,7.6815,7.6427,7.5719,7.5358,7.4678,7.3669,7.328,7.3253,7.3572,7.328,7.2541,7.1381,7.0079,6.8687,6.7262,6.5934,6.4736,6.3764,6.2728,6.1919,6.1216,6.1206,6.1206,6.1184,6.1206,6.1821,6.3061,6.3505,6.4203,6.5368,6.5732,6.5989,6.6152,6.6259,6.6544,6.7024,6.7024,6.6716,6.5972,6.614,6.6656,6.739,6.7429,6.7945,6.9394,6.9878,7.0381,7.1132,7.1552,7.2019,7.2417,7.2508,7.2508,7.2508,7.2508,7.2508,7.2508,7.2508,7.2508,7.2508,7.2508,7.2508,7.2535,7.2641,7.2668,7.2562,7.2641,7.2741,7.2873,7.3162,7.3473,7.3851,7.4062,7.4447,7.5189,7.5606,7.655,7.7649,7.8279,7.8985,7.9659,7.9827,7.9827,7.9827,7.9827,7.9853,7.9853,7.9827,7.975,8.0995,8.0931,8.0442,8.0119,7.9889,7.8596,7.7754,7.7301,7.7269,7.7269,7.7236,7.6945,7.6815,7.6815,7.6815,7.6815,7.6815,7.6815,7.6815,7.6815,7.6815,7.6815,7.6815,7.6815,7.6815,7.6815,7.6815,7.6589,7.6172,7.601,7.5229,7.396,7.3669,7.3669,7.3831,7.348,7.28,7.1666,7.0824,6.9691,6.8234,6.7683,6.7384,6.7165,6.6614,6.629,6.6129,6.6096,6.6096,6.6096,6.6096,6.6096,6.6096,6.6258,6.6355,6.6355,6.6485,6.6809,6.7352,6.7287,6.7489,6.8136,6.7877,6.7675,6.7708,6.7837,6.8169,6.8907,6.8921,6.9439,7.0448,7.1219,7.164,7.1699,7.2152,7.2443,7.2508,7.2508,7.2508,7.2508,7.2508,7.2508,7.2508,7.2508,7.2508,7.2508,7.2508,7.2535,7.2615,7.28,7.2794,7.2847,7.2985,7.3142,7.3162,7.3577,7.4011,7.4306,7.4531,7.4812,7.5216,7.5864,7.6543,7.7309,7.8175,7.895,7.971,8.0082,8.015,8.0158,8.0133,8.0183,8.0158,7.9955,7.9913,8.0995,8.0995,8.0866,8.0572,7.9921,7.9115,7.8694,7.8661,7.8661,7.8694,7.8499,7.7366,7.6848,7.6815,7.6848,7.688,7.688,7.6815,7.6848,7.6848,7.6815,7.6815,7.688,7.6815,7.6815,7.6815,7.6815,7.7042,7.7463,7.6977,7.5941,7.4581,7.3896,7.3901,7.4289,7.3253,7.2541,7.2379,7.1083,6.9691,6.8298,6.8136,6.7813,6.7222,6.7132,6.6776,6.6226,6.6096,6.6129,6.6096,6.6161,6.6129,6.6193,6.6744,6.7068,6.7092,6.7618,6.8039,6.8039,6.7521,6.7521,6.8136,6.8745,6.9069,6.9101,6.9691,6.9529,6.9011,7.0079,7.0992,7.1316,7.1958,7.2314,7.2314,7.2411,7.2508,7.2508,7.2508,7.2508,7.2508,7.2508,7.2508,7.2508,7.2508,7.2508,7.2508,7.2562,7.2615,7.28,7.2952,7.3162,7.3448,7.3628,7.3756,7.3902,7.4206,7.4556,7.5,7.5204,7.5325,7.5528,7.5691,7.6034,7.6965,7.7656,7.845,7.916,7.9701,8.0175,8.0209,8.0209,8.0209,8.0141,7.9701,7.9491,8.0736,8.041,8.041,7.9989,7.9338,7.9017,7.8888,7.8888,7.8888,7.8888,7.8823,7.8273,7.8046,7.8046,7.8046,7.8014,7.8046,7.8046,7.8014,7.8046,7.8046,7.8046,7.8014,7.7593,7.7398,7.7366,7.701,7.7172,7.7657,7.7528,7.688,7.5876,7.4803,7.4322,7.4451,7.3188,7.2508,7.2443,7.1116,6.9885,6.8914,6.8428,6.8072,6.7845,6.778,6.7683,6.7392,6.7327,6.7327,6.7359,6.7359,6.7359,6.7359,6.7651,6.7586,6.7262,6.7424,6.778,6.8169,6.791,6.8072,6.8809,6.9133,6.949,6.995,7.0598,7.0701,7.0371,7.0895,7.1543,7.199,7.2314,7.2508,7.2508,7.2508,7.2508,7.2508,7.2508,7.2508,7.2508,7.2508,7.2508,7.2508,7.2508,7.2508,7.2535,7.2641,7.28,7.2932,7.3292,7.3672,7.3927,7.4306,7.4481,7.4456,7.4704,7.5033,7.5277,7.5446,7.558,7.5628,7.5676,7.5946,7.6724,7.7435,7.8179,7.9025,7.9667,8.0209,8.0209,8.0175,8.0107,7.9667,7.9304,7.9304,8.0799,8.0051,7.9792,7.9403,7.8888,7.8888,7.9017,7.9179,7.9179,7.9277,7.9471,7.9471,7.9471,7.9406,7.9082,7.8888,7.8888,7.8888,7.8888,7.8888,7.8888,7.8888,7.8823,7.837,7.8014,7.7726,7.7333,7.7431,7.8046,7.8111,7.7754,7.6977,7.5811,7.5099,7.4775,7.3512,7.28,7.267,7.1245,7.0047,6.9295,6.859,6.8201,6.8201,6.8201,6.8104,6.791,6.8104,6.8007,6.7618,6.7813,6.7813,6.7651,6.7813,6.778,6.7489,6.7262,6.7611,6.8428,6.8298,6.8622,6.9464,6.9723,7.0079,7.0662,7.1284,7.1672,7.1666,7.1705,7.199,7.2379,7.2508,7.2508,7.2508,7.2508,7.2508,7.2508,7.2508,7.2508,7.2508,7.2508,7.2508,7.2508,7.2508,7.2508,7.2535,7.2715,7.2979,7.3136,7.3646,7.413,7.4406,7.4926,7.5082,7.4861,7.5106,7.5373,7.5446,7.559,7.5652,7.5676,7.5676,7.5709,7.6352,7.7164,7.7908,7.8517,7.9261,8.0073,8.0175,8.0141,7.9938,7.9363,7.9,7.8822,8.1252,7.9954,7.9241,7.892,7.8856,7.8856,7.9306,7.9792,7.9889,8.0248,8.0704,8.0801,8.0866,8.0736,7.9568,7.892,7.892,7.8985,7.9017,7.9017,7.8985,7.892,7.8888,7.8856,7.8499,7.7949,7.7754,7.8078,7.8758,7.8856,7.8467,7.7754,7.701,7.6297,7.552,7.416,7.3539,7.328,7.144,7.0047,6.9302,6.859,6.8201,6.8201,6.8201,6.791,6.7481,6.7877,6.7618,6.629,6.6971,6.7003,6.642,6.6906,6.7521,6.8007,6.7553,6.7813,6.8939,6.8719,6.8914,7.0177,7.0889,7.1284,7.1375,7.1958,7.2314,7.2411,7.2346,7.2443,7.2476,7.2508,7.2508,7.2508,7.2508,7.2508,7.2508,7.2508,7.2508,7.2508,7.2508,7.2508,7.2508,7.2508,7.2535,7.2556,7.2747,7.3057,7.3577,7.3927,7.4431,7.4926,7.5252,7.5301,7.5267,7.5388,7.5614,7.5662,7.5638,7.5676,7.5676,7.5709,7.5777,7.5946,7.6657,7.7333,7.7976,7.8686,7.9532,7.987,8.0006,7.9769,7.8957,7.8416,7.8145,8.0993,7.9212,7.8499,7.8208,7.8208,7.8208,7.8629,7.9338,7.9792,8.0148,8.041,8.0801,8.0995,8.0963,8.0478,8.0248,8.0248,8.0219,8.0219,8.0219,8.0248,8.0219,8.0216,7.9795,7.9241,7.8532,7.8046,7.8175,7.8953,7.9795,7.9633,7.8564,7.7787,7.688,7.5682,7.4289,7.3604,7.3377,7.1504,7.0274,6.9917,6.8816,6.8201,6.8201,6.8201,6.8104,6.7845,6.8072,6.7942,6.7456,6.7683,6.7715,6.7456,6.7262,6.774,6.868,6.8234,6.846,6.9756,7.0177,7.0442,7.096,7.1699,7.2087,7.2152,7.2346,7.2508,7.2508,7.2508,7.2508,7.2508,7.2508,7.2508,7.2508,7.2508,7.2508,7.2508,7.2508,7.2508,7.2508,7.2508,7.2508,7.2508,7.2508,7.2588,7.2715,7.2979,7.3396,7.3876,7.4364,7.4812,7.5204,7.5446,7.5566,7.5566,7.558,7.5676,7.5676,7.5676,7.5676,7.5676,7.5676,7.5743,7.5845,7.6386,7.7198,7.801,7.9092,7.9735,7.9938,8.004,7.9532,7.8551,7.8068,7.7604,8.0799,7.9241,7.8208,7.769,7.7495,7.7495,7.8014,7.8888,7.9435,7.9889,8.0345,8.0831,8.0995,8.0995,8.0995,8.0995,8.0995,8.0995,8.0995,8.1028,8.1222,8.1352,8.1319,8.1122,8.0507,7.9536,7.8596,7.8532,7.9244,8.0216,8.0021,7.892,7.837,7.7463,7.607,7.4646,7.3928,7.3512,7.1796,7.0701,7.0565,6.9302,6.8557,6.8525,6.8331,6.8072,6.791,6.8072,6.7942,6.7618,6.7748,6.7974,6.8104,6.7748,6.8194,6.9367,6.9205,6.9432,7.0533,7.1148,7.1478,7.1763,7.2184,7.2508,7.2508,7.2508,7.2508,7.2508,7.2508,7.2508,7.2508,7.2508,7.2508,7.2508,7.2508,7.2508,7.2508,7.2508,7.2508,7.2508,7.2508,7.2508,7.2508,7.2508,7.2641,7.2847,7.3188,7.3621,7.4155,7.4713,7.5155,7.5398,7.559,7.5628,7.5628,7.5652,7.5676,7.5676,7.5676,7.5676,7.5676,7.5676,7.5777,7.5879,7.642,7.7266,7.8247,7.9397,7.987,8.0107,7.9972,7.9566,7.8653,7.7764,7.7266,8.0701,7.9856,7.8467,7.7657,7.7139,7.7107,7.769,7.8791,7.9014,7.9821,8.0731,8.0993,8.1055,8.1025,8.1025,8.1028,8.1093,8.1125,8.106,8.106,8.1611,8.1934,8.2029,8.2515,8.2062,8.0769,7.9568,7.9309,7.9921,8.0083,7.9762,7.905,7.8823,7.8046,7.6751,7.5358,7.4581,7.4095,7.2443,7.144,7.1245,6.9982,6.927,6.9263,6.8687,6.8136,6.7456,6.7942,6.7683,6.6711,6.7068,6.7553,6.8298,6.8331,6.8914,7.0112,7.0371,7.0727,7.1284,7.1446,7.1828,7.2249,7.2476,7.2508,7.2508,7.2508,7.2508,7.2508,7.2508,7.2508,7.2508,7.2508,7.2508,7.2508,7.2508,7.2508,7.2508,7.2508,7.2508,7.2508,7.2508,7.2508,7.2508,7.2562,7.2694,7.2952,7.3396,7.3876,7.4439,7.496,7.5373,7.5556,7.5652,7.5676,7.5676,7.5676,7.5676,7.5676,7.5676,7.5676,7.5676,7.5709,7.5879,7.6082,7.7029,7.7874,7.8551,7.9566,7.9972,8.0141,7.9904,7.9431,7.8517,7.7594,7.686,8.2223,8.0701,8.0186,7.9312,7.8305,7.824,7.8532,7.8982,7.9607,8.0181,8.0636,8.1124,8.1319,8.1293,8.1115,8.1287,8.1708,8.174,8.1481,8.1157,8.1287,8.1705,8.2126,8.2353,8.1932,8.1093,8.0575,8.0216,8.0116,8.0442,8.0119,7.9115,7.8888,7.8143,7.6815,7.5844,7.5164,7.4451,7.2994,7.1925,7.1381,7.0533,7.0047,7.0047,6.982,6.9594,6.9399,6.8655,6.8266,6.8234,6.8518,6.8971,6.9561,6.9723,7.0144,7.0954,7.1116,7.144,7.2022,7.2152,7.2217,7.2443,7.2508,7.2508,7.2508,7.2508,7.2508,7.2508,7.2508,7.2508,7.2508,7.2508,7.2508,7.2508,7.2508,7.2508,7.2508,7.2508,7.2508,7.2508,7.2508,7.2508,7.2562,7.2641,7.288,7.3188,7.3646,7.418,7.4738,7.5106,7.5398,7.5628,7.5652,7.5676,7.5676,7.5676,7.5676,7.5676,7.5676,7.5879,7.5845,7.5912,7.6082,7.669,7.7638,7.8382,7.9058,7.96,8.004,7.9837,7.9431,7.8822,7.8077,7.7367,7.6657,8.3292,8.1805,8.1543,8.0736,7.9698,7.9438,7.9526,7.987,8.0207,8.0609,8.1022,8.1476,8.178,8.1857,8.1685,8.1925,8.245,8.2515,8.2256,8.1902,8.2128,8.2452,8.2839,8.2871,8.2515,8.187,8.1513,8.1058,8.0442,8.0704,8.0283,7.9115,7.8888,7.8175,7.688,7.6103,7.5358,7.4548,7.348,7.2541,7.1828,7.1148,7.0792,7.0759,7.0533,7.0403,7.0338,6.9496,6.9205,6.9594,6.9716,7.0047,7.0695,7.0792,7.1057,7.1634,7.1828,7.2022,7.2443,7.2476,7.2508,7.2508,7.2508,7.2508,7.2508,7.2508,7.2508,7.2508,7.2508,7.2508,7.2508,7.2508,7.2508,7.2508,7.2508,7.2508,7.2508,7.2508,7.2508,7.2508,7.2508,7.2535,7.2668,7.2774,7.311,7.3492,7.3978,7.4456,7.496,7.5301,7.5518,7.5628,7.5652,7.5676,7.5676,7.5676,7.5676,7.5676,7.5676,7.6014,7.6217,7.6318,7.6487,7.7536,7.8517,7.8957,7.9566,7.9837,8.0141,7.9566,7.9194,7.8619,7.8077,7.7198,7.6487,8.3875,8.3195,8.2515,8.1835,8.1152,8.0599,8.0805,8.1366,8.1026,8.136,8.2025,8.2247,8.2403,8.266,8.2702,8.282,8.3191,8.3227,8.3292,8.3422,8.3778,8.4069,8.3972,8.4069,8.3713,8.3001,8.2418,8.1738,8.0898,8.0963,8.0313,7.905,7.8823,7.8175,7.6945,7.6103,7.546,7.4775,7.3998,7.3285,7.2573,7.1861,7.1472,7.1413,7.0986,7.0695,7.0695,7.0695,7.0565,7.05,7.0533,7.0889,7.1316,7.1446,7.1796,7.2346,7.2476,7.2443,7.2508,7.2508,7.2508,7.2508,7.2508,7.2508,7.2508,7.2508,7.2508,7.2508,7.2508,7.2508,7.2508,7.2508,7.2508,7.2508,7.2508,7.2508,7.2508,7.2508,7.2508,7.2508,7.2535,7.2615,7.2821,7.29,7.337,7.3876,7.4331,7.4812,7.5131,7.5446,7.5604,7.5743,7.5811,7.6048,7.6149,7.6521,7.6521,7.6555,7.642,7.6521,7.6826,7.6961,7.7299,7.8323,7.9126,7.9566,7.987,8.0073,8.0209,7.9972,7.9464,7.8822,7.801,7.713,7.6555,8.4588,8.394,8.3746,8.3413,8.2975,8.2777,8.2693,8.2727,8.2967,8.3165,8.3449,8.3482,8.3676,8.4009,8.3628,8.3595,8.3903,8.394,8.4296,8.4748,8.491,8.4652,8.4426,8.4749,8.4328,8.3292,8.2936,8.2256,8.106,8.0995,8.0251,7.892,7.8856,7.8237,7.6945,7.6589,7.6135,7.5395,7.4678,7.4025,7.3312,7.2605,7.2217,7.2184,7.2022,7.1958,7.2022,7.2476,7.2184,7.1278,7.1699,7.2022,7.2184,7.2217,7.2314,7.2443,7.2508,7.2508,7.2508,7.2508,7.2508,7.2508,7.2573,7.2508,7.2508,7.2508,7.2508,7.2508,7.2508,7.2508,7.2508,7.2508,7.2508,7.2508,7.2508,7.2508,7.2508,7.2508,7.2508,7.2508,7.2508,7.2733,7.2997,7.3397,7.3752,7.4262,7.4797,7.5274,7.5652,7.5754,7.6082,7.6048,7.6115,7.6454,7.6758,7.7198,7.7435,7.7536,7.7435,7.7266,7.7604,7.7874,7.829,7.9034,7.9498,7.9972,8.004,8.0175,8.0209,8.0209,7.9329,7.8483,7.7841,7.7063,7.6758,8.5041,8.4683,8.4808,8.4827,8.4739,8.4596,8.4534,8.4551,8.4568,8.4727,8.4779,8.4698,8.4838,8.5145,8.4585,8.4557,8.4805,8.4715,8.4879,8.5202,8.5267,8.5041,8.4847,8.5138,8.4555,8.3325,8.3195,8.2353,8.1222,8.0995,8.0216,7.9147,7.8888,7.8204,7.6912,7.6783,7.6427,7.5719,7.5229,7.4613,7.3669,7.348,7.3221,7.3124,7.3188,7.3383,7.3447,7.3804,7.3447,7.2735,7.2962,7.3253,7.3021,7.2929,7.2832,7.2573,7.2508,7.2508,7.2508,7.2508,7.2508,7.2573,7.2735,7.2929,7.2962,7.2962,7.2962,7.2988,7.2703,7.2541,7.2508,7.2508,7.2508,7.2508,7.2508,7.2508,7.2508,7.2508,7.2508,7.2567,7.2868,7.3223,7.3488,7.4241,7.4871,7.5429,7.6006,7.6328,7.6573,7.6584,7.6589,7.6657,7.6826,7.7198,7.7401,7.7739,7.7976,7.8111,7.8382,7.8179,7.8382,7.872,7.916,7.96,7.9972,8.0209,8.0209,8.0209,8.0209,7.987,7.8957,7.8483,7.8044,7.7401,7.7063,8.5396,8.5394,8.5706,8.6013,8.6184,8.6019,8.61,8.6401,8.5978,8.5882,8.6028,8.583,8.5915,8.6229,8.5576,8.5486,8.5735,8.5327,8.5234,8.5267,8.5202,8.504,8.4976,8.517,8.449,8.3389,8.3195,8.2321,8.1319,8.0995,8.0345,7.9374,7.8985,7.8111,7.7074,7.6815,7.6394,7.5816,7.5622,7.5099,7.4257,7.4225,7.4122,7.3831,7.4122,7.4322,7.4451,7.4641,7.4414,7.3836,7.4322,7.416,7.3706,7.3701,7.3447,7.2994,7.2929,7.2897,7.28,7.2929,7.2832,7.2994,7.3415,7.3701,7.3701,7.3701,7.3636,7.3474,7.2962,7.2703,7.2508,7.2508,7.2508,7.2508,7.2508,7.2508,7.2508,7.2508,7.2508,7.2664,7.3456,7.401,7.4714,7.5549,7.6465,7.6324,7.6876,7.7165,7.7312,7.7352,7.7468,7.7604,7.7807,7.8044,7.8145,7.8271,7.844,7.8585,7.9025,7.9126,7.9194,7.9498,7.987,8.0209,8.0209,8.0209,8.0209,8.0209,8.0209,7.9938,7.9295,7.9126,7.8923,7.8077,7.7536,8.5976,8.5706,8.6077,8.6502,8.6981,8.7172,8.7158,8.7032,8.7092,8.7105,8.7166,8.6912,8.6965,8.7312,8.6417,8.6007,8.583,8.5519,8.5299,8.5234,8.4652,8.4458,8.4555,8.4911,8.4426,8.3422,8.3163,8.2385,8.1319,8.0931,8.0604,7.9795,7.9115,7.8208,7.7074,7.6977,7.6459,7.5816,7.5719,7.5682,7.5261,7.4872,7.4743,7.4581,7.471,7.4678,7.4743,7.5164,7.539,7.5168,7.484,7.4581,7.4419,7.4387,7.4252,7.4063,7.403,7.4063,7.4095,7.3998,7.4095,7.3966,7.416,7.4354,7.4354,7.4387,7.4122,7.3766,7.3415,7.3059,7.2573,7.2508,7.2508,7.2508,7.2508,7.2508,7.2508,7.2541,7.2767,7.3269,7.3776,7.4304,7.5153,7.6121,7.6871,7.7187,7.7572,7.7887,7.8087,7.8213,7.8314,7.8483,7.8653,7.8855,7.8923,7.8991,7.9126,7.916,7.9498,7.9735,7.9837,7.9904,8.0141,8.0209,8.0209,8.0209,8.0209,8.0209,8.0209,7.9938,7.9701,7.9498,7.916,7.8483,7.8348,8.6295,8.5861,8.6441,8.7014,8.7456,8.7895,8.807,8.8053,8.8189,8.8273,8.8189,8.782,8.774,8.7841,8.7017,8.6413,8.6169,8.5737,8.5262,8.4844,8.4328,8.4037,8.3778,8.4005,8.3713,8.2806,8.2677,8.2029,8.1254,8.0931,8.0669,8.0051,7.9565,7.892,7.7949,7.7754,7.7431,7.6912,7.6658,7.6528,7.62,7.62,7.633,7.6524,7.6589,7.6491,7.6265,7.6459,7.6491,7.6135,7.5552,7.5131,7.5131,7.5099,7.4969,7.4646,7.4581,7.4581,7.4581,7.4548,7.4419,7.4225,7.471,7.4808,7.484,7.4872,7.4775,7.4192,7.3739,7.3285,7.2605,7.2508,7.2508,7.2508,7.2508,7.2638,7.2897,7.3026,7.3124,7.375,7.4599,7.5325,7.6114,7.6947,7.7748,7.8376,7.8842,7.9135,7.9203,7.9329,7.9228,7.9363,7.9498,7.96,7.9667,7.9769,7.987,7.987,7.9904,8.004,8.0073,8.0107,8.0175,8.0209,8.0209,8.0209,8.0209,8.0209,8.0209,8.0073,7.9904,7.9701,7.9532,7.9329,7.9329,8.6544,8.6107,8.6924,8.7486,8.7866,8.8415,8.8785,8.9044,8.9134,8.8976,8.8988,8.8511,8.8185,8.7991,8.7256,8.6867,8.6535,8.6044,8.532,8.4516,8.41,8.3584,8.3163,8.2871,8.258,8.1967,8.2096,8.1675,8.119,8.0963,8.0736,8.0216,8.0018,7.9435,7.8985,7.8823,7.8337,7.769,7.7754,7.769,7.7333,7.7593,7.8046,7.837,7.8467,7.824,7.7852,7.7819,7.769,7.7139,7.6496,7.62,7.6006,7.5686,7.5585,7.4937,7.5099,7.5164,7.5196,7.5067,7.484,7.416,7.5099,7.5423,7.5164,7.5358,7.5164,7.4451,7.3734,7.3118,7.2573,7.2508,7.2573,7.267,7.267,7.2994,7.3545,7.3831,7.403,7.4209,7.524,7.618,7.7044,7.7934,7.8781,7.9492,7.9929,8.0209,8.0209,8.0141,7.9938,7.9837,7.9904,7.9904,7.9972,7.9972,8.0175,8.0209,8.0209,8.0209,8.0209,8.0209,8.0209,8.0209,8.0209,8.0209,8.0209,8.0209,8.0209,8.0209,8.0141,7.9972,8.0006,8.0175,8.0141,8.6946,8.6981,8.746,8.7958,8.8477,8.8847,8.9016,8.91,8.9134,8.9134,8.9044,8.8705,8.8362,8.8078,8.7489,8.6894,8.6504,8.6105,8.5406,8.4473,8.3834,8.3127,8.2321,8.1837,8.1416,8.1416,8.1675,8.1611,8.1157,8.0963,8.0898,8.0672,8.028,7.9694,7.9244,7.8856,7.8758,7.8273,7.8467,7.8564,7.8564,7.8694,7.8888,7.9115,7.9147,7.8953,7.8791,7.8694,7.8661,7.8532,7.8435,7.7981,7.7333,7.6427,7.607,7.62,7.6297,7.6265,7.6297,7.6394,7.6362,7.633,7.6459,7.62,7.5876,7.6006,7.5585,7.4257,7.3318,7.2703,7.2541,7.267,7.2897,7.3188,7.3447,7.3701,7.4322,7.4808,7.5196,7.5316,7.6114,7.6872,7.7639,7.8392,7.9079,7.957,7.9929,8.0158,8.0209,8.0209,8.0141,8.0107,8.0141,8.0141,8.0175,8.0141,8.0209,8.0209,8.0209,8.0209,8.0209,8.0209,8.0209,8.0209,8.0209,8.0209,8.0209,8.0209,8.0209,8.0209,8.0209,8.0209,8.0209,8.0209,8.0209,8.7554,8.7519,8.7954,8.8334,8.8648,8.8959,8.9134,8.9134,8.9134,8.9134,8.9016,8.8728,8.8534,8.8305,8.7929,8.7371,8.6834,8.6623,8.5636,8.4422,8.3628,8.2699,8.1705,8.1157,8.1028,8.1093,8.1352,8.1384,8.1028,8.0995,8.0995,8.0931,8.0637,8.0313,8.0057,8.0054,7.9568,7.9179,7.9244,7.9468,7.9532,7.973,7.9957,7.9989,7.9924,7.9827,7.95,7.9438,7.9273,7.8888,7.8499,7.837,7.8078,7.7528,7.6815,7.6912,7.7139,7.7301,7.7431,7.756,7.756,7.688,7.7074,7.6751,7.6232,7.6135,7.5876,7.4516,7.3507,7.3059,7.3091,7.3285,7.3739,7.3998,7.4095,7.4419,7.5002,7.5488,7.5844,7.6191,7.6794,7.7364,7.7849,7.8584,7.9251,7.9699,7.998,8.0107,8.0209,8.0209,8.0209,8.0209,8.0209,8.0234,8.0259,8.0284,8.0335,8.0335,8.0309,8.0309,8.0284,8.0309,8.0259,8.0209,8.0209,8.0259,8.0209,8.0209,8.0209,8.0209,8.0209,8.0209,8.0209,8.0209,8.0209,8.8047,8.7958,8.842,8.8648,8.8762,8.8988,8.9134,8.9134,8.9134,8.9134,8.9072,8.8847,8.8677,8.8534,8.831,8.7904,8.7401,8.7282,8.6049,8.4683,8.3835,8.2782,8.1726,8.1058,8.0898,8.0701,8.0766,8.0866,8.0995,8.0995,8.0995,8.0963,8.0995,8.0995,8.0898,8.0769,8.0604,8.0378,8.0213,8.0213,8.0375,8.0701,8.0995,8.0995,8.0995,8.0701,8.0248,8.0183,7.9957,7.9471,7.9017,7.8758,7.8953,7.8564,7.7949,7.7431,7.7754,7.7949,7.8143,7.8435,7.8208,7.7269,7.7528,7.6977,7.6168,7.5909,7.5811,7.4905,7.3998,7.3539,7.3539,7.3863,7.4095,7.4322,7.4451,7.484,7.5423,7.5848,7.6232,7.6688,7.7301,7.7692,7.8079,7.8724,7.9414,7.9724,7.9972,8.0133,8.0209,8.0209,8.0209,8.0209,8.0234,8.0284,8.0309,8.0385,8.046,8.056,8.056,8.0585,8.051,8.046,8.041,8.036,8.0301,8.0351,8.0284,8.0209,8.0209,8.0209,8.0209,8.0209,8.0209,8.0209,8.0209,8.8054,8.8472,8.8591,8.8762,8.9016,8.9106,8.9134,8.9134,8.9134,8.9134,8.9134,8.9044,8.8875,8.8648,8.8396,8.8194,8.7962,8.7511,8.6726,8.5515,8.4358,8.3283,8.2289,8.1374,8.0669,8.028,8.018,8.0475,8.0669,8.0769,8.0866,8.0834,8.0736,8.0931,8.0704,8.0639,8.0963,8.0834,8.0834,8.0834,8.0834,8.0931,8.0995,8.0995,8.0995,8.0931,8.0769,8.0736,8.0639,8.0639,8.0575,8.0345,8.0018,7.9824,7.9338,7.8888,7.8726,7.8758,7.8791,7.9017,7.8726,7.7949,7.7852,7.7074,7.6232,7.5423,7.5326,7.5589,7.4484,7.3798,7.3669,7.3253,7.3285,7.3771,7.4354,7.4872,7.5488,7.5881,7.6265,7.6688,7.7148,7.7659,7.8107,7.883,7.9492,7.9776,7.9972,8.0133,8.0209,8.0209,8.0209,8.0209,8.0309,8.0385,8.046,8.051,8.0635,8.0783,8.0808,8.0808,8.0759,8.0684,8.0659,8.0635,8.0526,8.0376,8.0284,8.0209,8.0209,8.0209,8.0209,8.0209,8.0209,8.0209,8.0209,8.8648,8.8875,8.8903,8.8959,8.9072,8.9134,8.9134,8.9134,8.9134,8.9134,8.9134,8.9134,8.9016,8.8847,8.8733,8.8625,8.8391,8.8069,8.7295,8.6126,8.481,8.3614,8.2411,8.1171,8.0213,7.9986,7.963,7.9438,7.9795,7.9827,7.9827,7.9892,7.983,7.973,7.9957,7.9859,8.0054,8.0345,8.0766,8.0963,8.0995,8.0995,8.0995,8.0995,8.0995,8.1025,8.1025,8.0995,8.0995,8.0995,8.0995,8.0866,8.0669,8.0572,8.0378,8.0216,8.0086,7.9924,7.9662,7.9859,7.9374,7.8694,7.8305,7.7787,7.6556,7.5747,7.5326,7.5589,7.5196,7.4646,7.4354,7.4289,7.4192,7.4354,7.4451,7.4613,7.5196,7.5714,7.6131,7.6549,7.6929,7.7424,7.7912,7.8617,7.9343,7.9955,8.0107,8.0158,8.0209,8.0209,8.0209,8.0209,8.036,8.051,8.061,8.0684,8.0857,8.098,8.098,8.098,8.0956,8.0931,8.0931,8.0783,8.061,8.046,8.0259,8.0209,8.0209,8.0209,8.0209,8.0209,8.0209,8.0209,8.0209,8.8801,8.8829,8.9032,8.9134,8.9134,8.9134,8.9134,8.9134,8.9134,8.9134,8.9134,8.9134,8.9134,8.91,8.9044,8.8903,8.87,8.8446,8.7592,8.638,8.5002,8.3746,8.2586,8.1192,8.0116,7.9727,7.9241,7.8758,7.8402,7.8402,7.8532,7.8856,7.9115,7.9017,7.892,7.9082,7.9374,8.0083,8.0672,8.0963,8.0995,8.0995,8.0995,8.1025,8.1055,8.1115,8.1144,8.1523,8.1617,8.1144,8.1434,8.1404,8.1025,8.0866,8.0866,8.0769,8.0769,8.0669,8.0475,8.0475,8.0248,7.9568,7.8888,7.837,7.756,7.6686,7.6265,7.6366,7.5779,7.539,7.5099,7.5196,7.484,7.4678,7.4775,7.471,7.4775,7.5455,7.5677,7.5654,7.6142,7.6909,7.751,7.8288,7.9066,7.9955,8.0209,8.0141,8.0166,8.0132,8.0276,8.0326,8.0585,8.0774,8.0995,8.1068,8.1166,8.1262,8.1287,8.1287,8.1383,8.1311,8.1273,8.1054,8.0734,8.051,8.0335,8.0259,8.0209,8.0209,8.0209,8.0209,8.0209,8.0209,8.0209,8.8091,8.8125,8.8795,8.9032,8.9032,8.91,8.9066,8.8931,8.8998,8.8998,8.8998,8.9032,8.8931,8.9032,8.8897,8.8869,8.8914,8.8026,8.735,8.6269,8.4834,8.3626,8.2537,8.1443,8.0148,7.9179,7.8661,7.7949,7.733,7.7386,7.7913,7.8694,7.8557,7.8755,7.8823,7.8758,7.9306,7.9986,8.0669,8.0963,8.0995,8.0995,8.1025,8.1085,8.1293,8.1499,8.1532,8.2358,8.2524,8.1766,8.2029,8.1913,8.1347,8.106,8.1028,8.0995,8.0995,8.0898,8.0866,8.0801,8.054,7.9957,7.9244,7.8629,7.8175,7.7884,7.7657,7.7366,7.6589,7.5881,7.5488,7.5164,7.4969,7.4775,7.4808,7.4808,7.4937,7.5358,7.5451,7.501,7.5555,7.6712,7.7298,7.8081,7.8521,7.9305,7.9566,7.9532,7.998,8.0064,8.0383,8.0542,8.0823,8.1117,8.1493,8.167,8.1836,8.1977,8.2013,8.2024,8.2024,8.1883,8.1575,8.1224,8.0906,8.0601,8.0385,8.0284,8.0209,8.0209,8.0209,8.0209,8.0209,8.0209,8.0209,8.7719,8.738,8.7651,8.7753,8.7753,8.7753,8.7753,8.7753,8.7753,8.8023,8.8395,8.7989,8.7989,8.8192,8.7888,8.7753,8.7719,8.7405,8.6842,8.609,8.485,8.3784,8.2735,8.1196,7.9578,7.8849,7.8172,7.7605,7.7162,7.7092,7.7367,7.7855,7.7983,7.765,7.7722,7.8625,7.9338,7.9986,8.0604,8.0995,8.0995,8.1025,8.1115,8.1322,8.1931,8.2266,8.2577,8.3284,8.3231,8.2954,8.2764,8.2297,8.1733,8.1349,8.1093,8.1028,8.1028,8.0995,8.0995,8.0898,8.0478,7.9406,7.8661,7.8305,7.8402,7.7949,7.7819,7.756,7.7305,7.6658,7.5719,7.5455,7.5229,7.4872,7.484,7.5002,7.5099,7.5455,7.5455,7.5085,7.6071,7.7303,7.7636,7.7914,7.8253,7.863,7.8806,7.9016,7.9429,7.9917,8.0226,8.0711,8.1014,8.1455,8.1825,8.213,8.243,8.259,8.2726,8.2625,8.2488,8.2141,8.1836,8.1431,8.1054,8.0759,8.051,8.0309,8.0209,8.0209,8.0209,8.0209,8.0209,8.0234,8.0309,8.7042,8.6569,8.6332,8.6474,8.6846,8.6879,8.6879,8.6879,8.6913,8.7144,8.7617,8.7144,8.7177,8.7414,8.7245,8.6771,8.6704,8.6514,8.5988,8.5231,8.4354,8.3588,8.2334,8.099,7.9625,7.8867,7.7991,7.7389,7.7338,7.7422,7.757,7.7608,7.7567,7.7627,7.7703,7.8525,7.95,8.0018,8.0604,8.1052,8.1115,8.1401,8.168,8.2165,8.2894,8.349,8.3893,8.4441,8.4491,8.4031,8.3628,8.31,8.2469,8.1835,8.1416,8.1254,8.1125,8.1028,8.0995,8.0866,8.0445,7.9536,7.9017,7.8532,7.8175,7.7981,7.7852,7.8175,7.7949,7.7402,7.6431,7.6783,7.6556,7.6362,7.6135,7.6168,7.552,7.5492,7.539,7.5224,7.6229,7.6903,7.743,7.7602,7.8102,7.8308,7.8357,7.8542,7.8761,7.9356,8.0014,8.0579,8.1225,8.1674,8.2153,8.2498,8.2861,8.3186,8.3231,8.3053,8.2851,8.2488,8.2048,8.1599,8.1214,8.0882,8.0659,8.0535,8.036,8.02,8.025,8.0385,8.0435,8.0485,8.0535,8.5858,8.5723,8.5019,8.5527,8.6677,8.6873,8.6778,8.6609,8.6704,8.6805,8.6907,8.6771,8.6704,8.6771,8.6467,8.5993,8.5554,8.5587,8.5121,8.4064,8.3793,8.2954,8.196,8.0844,7.9786,7.9248,7.8429,7.7781,7.7637,7.7911,7.7911,7.8305,7.8826,7.8971,7.8466,7.9386,7.9951,8.0116,8.0826,8.1198,8.1668,8.218,8.2613,8.3297,8.4262,8.4891,8.5231,8.582,8.5718,8.4978,8.4749,8.4191,8.3222,8.2483,8.2126,8.2094,8.1481,8.1157,8.0995,8.0995,8.0475,7.973,7.9115,7.8953,7.8661,7.8305,7.7981,7.824,7.8111,7.8111,7.8273,7.8467,7.7787,7.7398,7.7074,7.6783,7.6103,7.5811,7.5747,7.5798,7.568,7.5878,7.6613,7.7279,7.7848,7.8077,7.8034,7.8127,7.8336,7.8876,7.9624,8.0604,8.1338,8.2072,8.2567,8.2951,8.3319,8.3625,8.3689,8.3516,8.3186,8.2783,8.2292,8.1812,8.1555,8.1395,8.1111,8.0817,8.0684,8.0576,8.0526,8.0635,8.0684,8.0759,8.0901,8.5486,8.4979,8.4681,8.4884,8.5358,8.5358,8.5358,8.5358,8.5391,8.5689,8.596,8.5655,8.5358,8.5256,8.4843,8.437,8.3795,8.4167,8.3671,8.3193,8.3297,8.2649,8.1694,8.0668,7.9833,7.8995,7.8391,7.8278,7.8215,7.8577,7.9116,7.9575,8.0354,8.0657,8.0287,8.0562,8.0761,8.128,8.1672,8.193,8.2537,8.3038,8.3662,8.4415,8.5546,8.6201,8.6411,8.7045,8.6737,8.5878,8.5716,8.4809,8.3932,8.3195,8.2839,8.2839,8.245,8.1964,8.1252,8.0637,7.9989,7.9438,7.8888,7.8596,7.8143,7.7981,7.8014,7.8111,7.8014,7.7852,7.7495,7.7431,7.7042,7.7042,7.6848,7.6815,7.6491,7.6459,7.6427,7.6595,7.6598,7.6947,7.7537,7.7958,7.8429,7.8213,7.8136,7.8089,7.8254,7.8647,7.9289,8.0508,8.147,8.2347,8.3043,8.3692,8.3986,8.4181,8.4173,8.3982,8.3581,8.3062,8.2776,8.2383,8.2174,8.1943,8.1596,8.1308,8.1137,8.1044,8.1308,8.1234,8.12,8.1273,8.1405,8.508,8.4614,8.458,8.458,8.458,8.458,8.458,8.458,8.4614,8.4945,8.5148,8.4573,8.4268,8.4005,8.3456,8.2712,8.2171,8.2754,8.2802,8.2422,8.2737,8.2195,8.133,8.0408,7.9671,7.8952,7.8562,7.8403,7.887,7.936,8.0247,8.1304,8.2066,8.2289,8.2146,8.2345,8.219,8.2654,8.2888,8.3399,8.3878,8.4378,8.5028,8.5848,8.6698,8.7396,8.7587,8.7657,8.7582,8.6819,8.6045,8.5264,8.4577,8.3972,8.3584,8.3551,8.3195,8.258,8.1608,8.0799,8.0216,7.9471,7.8402,7.7754,7.7528,7.7398,7.7625,7.7722,7.7787,7.7787,7.756,7.7366,7.7301,7.7333,7.7107,7.7107,7.6783,7.6718,7.6718,7.692,7.7273,7.7813,7.8426,7.8831,7.9221,7.8713,7.8247,7.8283,7.8351,7.8811,7.9432,8.0696,8.2014,8.311,8.3968,8.4683,8.4889,8.4839,8.464,8.4378,8.384,8.3341,8.3143,8.2882,8.2378,8.2019,8.2015,8.1888,8.2129,8.2362,8.2614,8.2415,8.1888,8.2112,8.2511,8.458,8.458,8.458,8.458,8.458,8.458,8.458,8.458,8.458,8.458,8.4512,8.3862,8.349,8.3253,8.2678,8.1968,8.1528,8.2069,8.1933,8.1785,8.194,8.1518,8.0967,8.008,7.9655,7.9372,7.9175,7.9262,7.9556,8.0629,8.1828,8.2609,8.2886,8.3473,8.3955,8.4365,8.4095,8.4283,8.4581,8.5061,8.5513,8.601,8.6502,8.7161,8.7854,8.8294,8.84,8.8276,8.7783,8.7127,8.6492,8.5852,8.5193,8.4586,8.4328,8.4069,8.3648,8.2936,8.2191,8.1479,8.0766,7.9989,7.8953,7.7852,7.7236,7.7236,7.7463,7.769,7.7819,7.8305,7.8532,7.8402,7.8305,7.8046,7.769,7.7398,7.6912,7.6783,7.6783,7.7008,7.7394,7.7963,7.8815,7.9361,7.9439,7.9297,7.8867,7.8855,7.8976,7.9289,8.0028,8.117,8.2523,8.3968,8.4735,8.4934,8.5024,8.4696,8.4916,8.4704,8.413,8.3573,8.3391,8.2997,8.2395,8.225,8.2768,8.3248,8.3636,8.3856,8.4077,8.389,8.3516,8.3842,8.425,8.458,8.458,8.458,8.458,8.458,8.458,8.458,8.458,8.458,8.4343,8.3795,8.3592,8.2881,8.196,8.1697,8.1156,8.1054,8.1164,8.1296,8.1324,8.1435,8.1237,8.0796,8.0208,7.9848,7.9754,7.9845,8.0137,8.0741,8.1836,8.2683,8.3298,8.3806,8.4615,8.5504,8.6426,8.6314,8.6331,8.6569,8.6769,8.6984,8.7285,8.7686,8.8092,8.8526,8.8841,8.8751,8.8391,8.7871,8.7219,8.6097,8.5264,8.4551,8.4328,8.4296,8.4847,8.4328,8.3616,8.2904,8.2191,8.1543,8.0993,8.0251,7.9085,7.8179,7.769,7.7787,7.7981,7.8014,7.837,7.8726,7.8726,7.8661,7.8435,7.8143,7.7787,7.7398,7.7236,7.7265,7.7398,7.7753,7.8333,7.9196,7.9306,7.9422,7.951,7.9556,7.955,7.9607,7.9926,8.0553,8.1699,8.2593,8.39,8.4185,8.4369,8.4507,8.4598,8.4832,8.4825,8.4181,8.3709,8.3534,8.3468,8.3392,8.3612,8.4016,8.4484,8.497,8.5375,8.5585,8.5378,8.5286,8.5542,8.5821,8.458,8.458,8.458,8.458,8.458,8.458,8.4478,8.4208,8.414,8.3862,8.3456,8.2873,8.2103,8.1418,8.1021,8.0648,8.0344,8.0648,8.0867,8.1073,8.1106,8.0845,8.0512,8.0218,7.985,7.9939,8.0363,8.0811,8.1498,8.2581,8.3558,8.4005,8.4708,8.5655,8.6751,8.8013,8.8982,8.8889,8.8808,8.8679,8.8506,8.8379,8.8391,8.838,8.8813,8.8937,8.8711,8.8275,8.7871,8.712,8.5899,8.4937,8.4355,8.4231,8.4555,8.5009,8.4911,8.4264,8.3681,8.326,8.2612,8.2126,8.1867,8.1058,7.9989,7.9277,7.9017,7.8856,7.8564,7.8435,7.8661,7.8856,7.8823,7.8758,7.8499,7.824,7.8046,7.7852,7.7869,7.7946,7.8341,7.8842,7.9176,7.9268,7.9562,8.0014,8.0232,8.0267,8.031,8.0417,8.1127,8.2099,8.2801,8.3611,8.3898,8.4529,8.4888,8.5095,8.4876,8.4741,8.413,8.4178,8.434,8.4578,8.475,8.4937,8.5019,8.5761,8.63,8.6659,8.7009,8.7095,8.7005,8.7075,8.7319,8.458,8.458,8.458,8.4546,8.4478,8.4444,8.4099,8.3456,8.3422,8.3389,8.3118,8.2103,8.1663,8.1494,8.1088,8.0716,8.0513,8.0615,8.0648,8.0837,8.0417,8.0221,8.0259,7.9961,8.0136,8.0273,8.0822,8.1828,8.2051,8.305,8.4133,8.4681,8.5317,8.6332,8.7888,8.914,9.0137,9.0789,9.036,8.996,8.9672,8.9376,8.8795,8.8294,8.8531,8.8835,8.829,8.8007,8.7904,8.705,8.5998,8.4937,8.4446,8.4231,8.462,8.5009,8.5138,8.4879,8.4458,8.4167,8.3907,8.3551,8.3355,8.2936,8.2094,8.0766,8.0248,8.0119,7.9924,7.9989,8.0248,8.0378,8.0345,8.0151,7.9924,7.9503,7.9111,7.8816,7.8481,7.8592,7.8759,7.9238,7.9489,7.9623,7.9606,8.0336,8.0553,8.0595,8.1118,8.119,8.2141,8.298,8.3668,8.4484,8.5434,8.5925,8.5857,8.5777,8.5511,8.5364,8.532,8.5269,8.5274,8.5454,8.5639,8.5757,8.5943,8.6774,8.7435,8.7644,8.8065,8.8686,8.877,8.8667,8.8747,8.458,8.458,8.458,8.4275,8.3795,8.3795,8.3355,8.2678,8.2678,8.2712,8.2678,8.278,8.2577,8.2002,8.1731,8.1393,8.1021,8.0716,8.0665,8.0547,8.0116,8.0073,8.0385,8.0536,8.0706,8.1332,8.2093,8.3006,8.3599,8.42,8.4742,8.5418,8.6027,8.7042,8.8767,8.9918,9.0797,9.1744,9.1174,9.0769,9.061,8.963,8.8801,8.8463,8.8564,8.8632,8.8295,8.8136,8.7978,8.7415,8.5989,8.497,8.4261,8.423,8.4588,8.5106,8.5299,8.5138,8.5041,8.4911,8.4717,8.4782,8.4683,8.4683,8.3972,8.2483,8.1641,8.1576,8.1511,8.1641,8.1738,8.1802,8.1867,8.1608,8.1349,8.0766,8.0213,7.9753,7.926,7.9278,7.939,7.959,7.9879,7.9889,7.9847,7.9983,8.0172,8.0564,8.1698,8.2237,8.3765,8.4589,8.5007,8.5821,8.6662,8.7068,8.6864,8.6906,8.6806,8.6626,8.6502,8.6418,8.6418,8.6374,8.644,8.6819,8.7323,8.7901,8.8446,8.8797,8.9183,8.9783,9.0134,9.0125,9.0192,8.458,8.4546,8.4234,8.3862,8.349,8.3152,8.2611,8.2069,8.2272,8.2382,8.2441,8.278,8.278,8.2306,8.2069,8.1832,8.1283,8.0885,8.0581,8.0276,8.0209,8.0209,8.0513,8.0978,8.1096,8.1689,8.2847,8.3862,8.4911,8.5215,8.552,8.6298,8.6839,8.7922,8.9545,9.0324,9.1,9.1778,9.1169,9.0865,9.0763,8.9681,8.8734,8.8429,8.8497,8.8531,8.8357,8.8187,8.806,8.7319,8.5932,8.5064,8.4446,8.4292,8.4619,8.5041,8.5299,8.5299,8.5299,8.5299,8.5299,8.5299,8.5299,8.504,8.504,8.3681,8.3357,8.3195,8.2547,8.2547,8.258,8.2612,8.2904,8.2904,8.2547,8.2094,8.1641,8.1249,8.0923,8.082,8.0811,8.0678,8.0659,8.0037,8.0185,8.0804,8.084,8.1609,8.2544,8.3578,8.5071,8.6199,8.6578,8.6688,8.7117,8.7515,8.7689,8.7804,8.8072,8.7927,8.7815,8.7639,8.7528,8.7777,8.806,8.8464,8.8979,8.9325,8.9827,9.0299,9.0579,9.0918,9.1212,9.1426,9.1439,8.4411,8.4343,8.3659,8.3287,8.3118,8.2543,8.1832,8.1325,8.1934,8.2238,8.2238,8.2374,8.2408,8.2272,8.1934,8.1562,8.1249,8.0919,8.0513,8.0242,8.0209,8.0209,8.0513,8.1021,8.1629,8.2306,8.3287,8.4471,8.5587,8.5723,8.6129,8.7211,8.8361,8.9506,9.029,9.0899,9.1474,9.1372,9.0932,9.029,8.985,8.941,8.8734,8.8497,8.8598,8.866,8.8379,8.8228,8.8204,8.7378,8.619,8.539,8.4862,8.4678,8.4781,8.517,8.5299,8.5299,8.5299,8.5299,8.5299,8.5299,8.5299,8.5299,8.5299,8.5105,8.4717,8.4361,8.3713,8.3486,8.3486,8.3584,8.3907,8.4005,8.3616,8.3292,8.2936,8.258,8.2321,8.2159,8.2027,8.1833,8.1379,8.0699,8.0912,8.1567,8.2301,8.3178,8.4105,8.518,8.6454,8.7483,8.8113,8.8147,8.8337,8.8579,8.9131,8.9131,8.9425,8.9259,8.903,8.8579,8.8685,8.9547,8.9868,8.981,9.0232,9.0606,9.1158,9.1488,9.1689,9.1783,9.1925,9.2139,9.2425,8.3727,8.3659,8.2915,8.2306,8.1765,8.1562,8.1088,8.0581,8.119,8.1494,8.1697,8.2205,8.2678,8.3253,8.3186,8.2543,8.1283,8.0945,8.0581,8.0276,8.0209,8.0209,8.0648,8.1663,8.2813,8.3592,8.42,8.4911,8.596,8.6027,8.6839,8.8564,8.87,8.9748,9.0899,9.1237,9.1034,9.0865,9.0493,8.9918,8.9444,8.91,8.87,8.8564,8.8694,8.8525,8.8312,8.8425,8.8348,8.7808,8.6822,8.5999,8.5473,8.5162,8.5168,8.517,8.5299,8.5299,8.5299,8.5299,8.5299,8.5299,8.5299,8.5299,8.5299,8.5299,8.5041,8.5041,8.4652,8.4652,8.4683,8.4652,8.4847,8.4652,8.4361,8.4102,8.381,8.3357,8.3001,8.2936,8.2871,8.2742,8.258,8.2254,8.2254,8.2815,8.3209,8.4035,8.4631,8.6139,8.7691,8.8482,8.9224,9.051,9.1082,9.0762,9.0992,9.0922,9.0561,9.007,8.9601,8.9227,8.9502,9.0343,9.0637,9.0566,9.106,9.1716,9.1774,9.201,9.2389,9.2568,9.2675,9.2817,9.3103]}]]